<?xml version="1.0" encoding="UTF-8" standalone="no" ?>
<gpx xmlns="http://www.topografix.com/GPX/1/1" xmlns:xsi="http://www.w3.org/2001/XMLSchema-instance" xsi:schemaLocation="http://www.topografix.com/GPX/1/1 http://www.topografix.com/GPX/1/1/gpx.xsd" version="1.1" creator="VisuGPX - https://www.visugpx.com">
  <metadata>
    <name>Activité Randonnée TwoNav</name>
    <desc><![CDATA[2023-03-04_110838.trk]]></desc>
  </metadata>
  <trk>
    <name><![CDATA[Activité Randonnée TwoNav_1]]></name>
    <trkseg>
      <trkpt lat="48.19333" lon="6.51551">
        <ele>370.3</ele>
        <time>2023-03-04T10:08:38Z</time>
      </trkpt>
      <trkpt lat="48.19331" lon="6.51543">
        <ele>370.4</ele>
        <time>2023-03-04T10:08:39Z</time>
      </trkpt>
      <trkpt lat="48.19329" lon="6.51535">
        <ele>370.6</ele>
        <time>2023-03-04T10:08:49Z</time>
      </trkpt>
      <trkpt lat="48.19327" lon="6.51528">
        <ele>370.8</ele>
        <time>2023-03-04T10:08:59Z</time>
      </trkpt>
      <trkpt lat="48.19326" lon="6.5152">
        <ele>371</ele>
        <time>2023-03-04T10:09:06Z</time>
      </trkpt>
      <trkpt lat="48.19324" lon="6.51512">
        <ele>371.2</ele>
        <time>2023-03-04T10:09:14Z</time>
      </trkpt>
      <trkpt lat="48.19322" lon="6.51504">
        <ele>371.4</ele>
        <time>2023-03-04T10:09:20Z</time>
      </trkpt>
      <trkpt lat="48.1932" lon="6.51497">
        <ele>371.6</ele>
        <time>2023-03-04T10:09:28Z</time>
      </trkpt>
      <trkpt lat="48.19318" lon="6.51489">
        <ele>371.8</ele>
        <time>2023-03-04T10:09:28Z</time>
      </trkpt>
      <trkpt lat="48.19309" lon="6.51486">
        <ele>372.2</ele>
        <time>2023-03-04T10:09:36Z</time>
      </trkpt>
      <trkpt lat="48.19301" lon="6.5148">
        <ele>372.6</ele>
        <time>2023-03-04T10:09:44Z</time>
      </trkpt>
      <trkpt lat="48.19293" lon="6.51474">
        <ele>373.1</ele>
        <time>2023-03-04T10:09:51Z</time>
      </trkpt>
      <trkpt lat="48.19285" lon="6.51467">
        <ele>373.6</ele>
        <time>2023-03-04T10:09:58Z</time>
      </trkpt>
      <trkpt lat="48.19277" lon="6.5146">
        <ele>374.2</ele>
        <time>2023-03-04T10:10:06Z</time>
      </trkpt>
      <trkpt lat="48.19269" lon="6.51454">
        <ele>374.8</ele>
        <time>2023-03-04T10:10:12Z</time>
      </trkpt>
      <trkpt lat="48.1926" lon="6.51447">
        <ele>375.4</ele>
        <time>2023-03-04T10:10:19Z</time>
      </trkpt>
      <trkpt lat="48.19251" lon="6.51439">
        <ele>376</ele>
        <time>2023-03-04T10:10:26Z</time>
      </trkpt>
      <trkpt lat="48.19242" lon="6.51431">
        <ele>376.6</ele>
        <time>2023-03-04T10:10:33Z</time>
      </trkpt>
      <trkpt lat="48.19234" lon="6.51425">
        <ele>377</ele>
        <time>2023-03-04T10:10:40Z</time>
      </trkpt>
      <trkpt lat="48.19226" lon="6.51419">
        <ele>377.5</ele>
        <time>2023-03-04T10:10:48Z</time>
      </trkpt>
      <trkpt lat="48.19217" lon="6.51412">
        <ele>377.9</ele>
        <time>2023-03-04T10:10:56Z</time>
      </trkpt>
      <trkpt lat="48.19209" lon="6.51405">
        <ele>378.3</ele>
        <time>2023-03-04T10:11:04Z</time>
      </trkpt>
      <trkpt lat="48.19201" lon="6.51398">
        <ele>378.7</ele>
        <time>2023-03-04T10:11:12Z</time>
      </trkpt>
      <trkpt lat="48.19193" lon="6.51391">
        <ele>379.1</ele>
        <time>2023-03-04T10:11:19Z</time>
      </trkpt>
      <trkpt lat="48.19186" lon="6.51382">
        <ele>379.5</ele>
        <time>2023-03-04T10:11:26Z</time>
      </trkpt>
      <trkpt lat="48.19177" lon="6.51373">
        <ele>379.9</ele>
        <time>2023-03-04T10:11:33Z</time>
      </trkpt>
      <trkpt lat="48.1917" lon="6.51363">
        <ele>380.3</ele>
        <time>2023-03-04T10:11:41Z</time>
      </trkpt>
      <trkpt lat="48.19161" lon="6.51356">
        <ele>380.6</ele>
        <time>2023-03-04T10:11:49Z</time>
      </trkpt>
      <trkpt lat="48.19152" lon="6.51349">
        <ele>381</ele>
        <time>2023-03-04T10:11:57Z</time>
      </trkpt>
      <trkpt lat="48.19144" lon="6.51341">
        <ele>381.4</ele>
        <time>2023-03-04T10:12:07Z</time>
      </trkpt>
      <trkpt lat="48.19135" lon="6.51335">
        <ele>381.7</ele>
        <time>2023-03-04T10:12:14Z</time>
      </trkpt>
      <trkpt lat="48.19126" lon="6.51331">
        <ele>381.9</ele>
        <time>2023-03-04T10:12:20Z</time>
      </trkpt>
      <trkpt lat="48.19116" lon="6.51328">
        <ele>382</ele>
        <time>2023-03-04T10:12:26Z</time>
      </trkpt>
      <trkpt lat="48.19106" lon="6.51329">
        <ele>382.1</ele>
        <time>2023-03-04T10:12:32Z</time>
      </trkpt>
      <trkpt lat="48.19097" lon="6.5133">
        <ele>382.2</ele>
        <time>2023-03-04T10:12:39Z</time>
      </trkpt>
      <trkpt lat="48.19088" lon="6.51325">
        <ele>382.4</ele>
        <time>2023-03-04T10:12:46Z</time>
      </trkpt>
      <trkpt lat="48.19079" lon="6.51324">
        <ele>382.5</ele>
        <time>2023-03-04T10:12:53Z</time>
      </trkpt>
      <trkpt lat="48.1907" lon="6.51322">
        <ele>382.5</ele>
        <time>2023-03-04T10:13:01Z</time>
      </trkpt>
      <trkpt lat="48.1906" lon="6.51319">
        <ele>382.5</ele>
        <time>2023-03-04T10:13:09Z</time>
      </trkpt>
      <trkpt lat="48.19051" lon="6.51317">
        <ele>382.5</ele>
        <time>2023-03-04T10:13:15Z</time>
      </trkpt>
      <trkpt lat="48.19042" lon="6.51316">
        <ele>382.4</ele>
        <time>2023-03-04T10:13:22Z</time>
      </trkpt>
      <trkpt lat="48.19033" lon="6.51319">
        <ele>382.3</ele>
        <time>2023-03-04T10:13:31Z</time>
      </trkpt>
      <trkpt lat="48.19023" lon="6.51322">
        <ele>382.3</ele>
        <time>2023-03-04T10:13:37Z</time>
      </trkpt>
      <trkpt lat="48.19015" lon="6.51327">
        <ele>382.3</ele>
        <time>2023-03-04T10:13:43Z</time>
      </trkpt>
      <trkpt lat="48.19006" lon="6.51334">
        <ele>382.3</ele>
        <time>2023-03-04T10:13:51Z</time>
      </trkpt>
      <trkpt lat="48.18998" lon="6.51342">
        <ele>382.3</ele>
        <time>2023-03-04T10:13:59Z</time>
      </trkpt>
      <trkpt lat="48.18991" lon="6.51351">
        <ele>382.3</ele>
        <time>2023-03-04T10:14:08Z</time>
      </trkpt>
      <trkpt lat="48.18985" lon="6.51361">
        <ele>382.3</ele>
        <time>2023-03-04T10:14:19Z</time>
      </trkpt>
      <trkpt lat="48.18977" lon="6.5137">
        <ele>382.4</ele>
        <time>2023-03-04T10:14:30Z</time>
      </trkpt>
      <trkpt lat="48.18973" lon="6.51383">
        <ele>382.5</ele>
        <time>2023-03-04T10:14:40Z</time>
      </trkpt>
      <trkpt lat="48.18966" lon="6.51392">
        <ele>382.7</ele>
        <time>2023-03-04T10:14:50Z</time>
      </trkpt>
      <trkpt lat="48.18958" lon="6.51402">
        <ele>382.9</ele>
        <time>2023-03-04T10:14:58Z</time>
      </trkpt>
      <trkpt lat="48.18951" lon="6.51412">
        <ele>383.1</ele>
        <time>2023-03-04T10:15:06Z</time>
      </trkpt>
      <trkpt lat="48.18944" lon="6.5142">
        <ele>383.3</ele>
        <time>2023-03-04T10:15:14Z</time>
      </trkpt>
      <trkpt lat="48.18935" lon="6.51426">
        <ele>383.5</ele>
        <time>2023-03-04T10:15:24Z</time>
      </trkpt>
      <trkpt lat="48.18926" lon="6.51433">
        <ele>383.8</ele>
        <time>2023-03-04T10:15:32Z</time>
      </trkpt>
      <trkpt lat="48.18917" lon="6.51437">
        <ele>384</ele>
        <time>2023-03-04T10:15:39Z</time>
      </trkpt>
      <trkpt lat="48.18908" lon="6.51445">
        <ele>384.3</ele>
        <time>2023-03-04T10:15:49Z</time>
      </trkpt>
      <trkpt lat="48.18899" lon="6.51446">
        <ele>384.6</ele>
        <time>2023-03-04T10:15:59Z</time>
      </trkpt>
      <trkpt lat="48.18891" lon="6.51454">
        <ele>385.1</ele>
        <time>2023-03-04T10:16:08Z</time>
      </trkpt>
      <trkpt lat="48.18882" lon="6.51462">
        <ele>385.8</ele>
        <time>2023-03-04T10:16:16Z</time>
      </trkpt>
      <trkpt lat="48.18872" lon="6.51469">
        <ele>386.5</ele>
        <time>2023-03-04T10:16:22Z</time>
      </trkpt>
      <trkpt lat="48.18863" lon="6.51474">
        <ele>387.2</ele>
        <time>2023-03-04T10:16:27Z</time>
      </trkpt>
      <trkpt lat="48.18853" lon="6.51479">
        <ele>387.9</ele>
        <time>2023-03-04T10:16:33Z</time>
      </trkpt>
      <trkpt lat="48.18843" lon="6.51482">
        <ele>388.5</ele>
        <time>2023-03-04T10:16:39Z</time>
      </trkpt>
      <trkpt lat="48.18835" lon="6.51487">
        <ele>389.2</ele>
        <time>2023-03-04T10:16:44Z</time>
      </trkpt>
      <trkpt lat="48.18826" lon="6.51496">
        <ele>389.9</ele>
        <time>2023-03-04T10:16:50Z</time>
      </trkpt>
      <trkpt lat="48.18817" lon="6.51503">
        <ele>390.6</ele>
        <time>2023-03-04T10:16:55Z</time>
      </trkpt>
      <trkpt lat="48.1881" lon="6.51512">
        <ele>391.3</ele>
        <time>2023-03-04T10:17:01Z</time>
      </trkpt>
      <trkpt lat="48.18806" lon="6.51525">
        <ele>391.9</ele>
        <time>2023-03-04T10:17:10Z</time>
      </trkpt>
      <trkpt lat="48.18798" lon="6.51534">
        <ele>392.4</ele>
        <time>2023-03-04T10:17:18Z</time>
      </trkpt>
      <trkpt lat="48.1879" lon="6.51541">
        <ele>393</ele>
        <time>2023-03-04T10:17:24Z</time>
      </trkpt>
      <trkpt lat="48.18782" lon="6.51549">
        <ele>393.6</ele>
        <time>2023-03-04T10:17:32Z</time>
      </trkpt>
      <trkpt lat="48.18773" lon="6.51556">
        <ele>394.2</ele>
        <time>2023-03-04T10:17:40Z</time>
      </trkpt>
      <trkpt lat="48.18765" lon="6.51564">
        <ele>395</ele>
        <time>2023-03-04T10:17:46Z</time>
      </trkpt>
      <trkpt lat="48.18756" lon="6.51568">
        <ele>395.8</ele>
        <time>2023-03-04T10:17:54Z</time>
      </trkpt>
      <trkpt lat="48.1875" lon="6.51577">
        <ele>396.6</ele>
        <time>2023-03-04T10:18:02Z</time>
      </trkpt>
      <trkpt lat="48.18743" lon="6.51587">
        <ele>397.3</ele>
        <time>2023-03-04T10:18:09Z</time>
      </trkpt>
      <trkpt lat="48.18736" lon="6.51597">
        <ele>397.8</ele>
        <time>2023-03-04T10:18:16Z</time>
      </trkpt>
      <trkpt lat="48.18729" lon="6.51608">
        <ele>398.2</ele>
        <time>2023-03-04T10:18:23Z</time>
      </trkpt>
      <trkpt lat="48.18724" lon="6.51621">
        <ele>398.5</ele>
        <time>2023-03-04T10:18:32Z</time>
      </trkpt>
      <trkpt lat="48.18718" lon="6.51631">
        <ele>398.8</ele>
        <time>2023-03-04T10:18:38Z</time>
      </trkpt>
      <trkpt lat="48.18713" lon="6.51643">
        <ele>399.1</ele>
        <time>2023-03-04T10:18:45Z</time>
      </trkpt>
      <trkpt lat="48.18709" lon="6.51655">
        <ele>399.5</ele>
        <time>2023-03-04T10:18:53Z</time>
      </trkpt>
      <trkpt lat="48.18705" lon="6.51669">
        <ele>400</ele>
        <time>2023-03-04T10:19:03Z</time>
      </trkpt>
      <trkpt lat="48.18697" lon="6.51678">
        <ele>400.4</ele>
        <time>2023-03-04T10:19:15Z</time>
      </trkpt>
      <trkpt lat="48.18688" lon="6.51685">
        <ele>400.9</ele>
        <time>2023-03-04T10:19:21Z</time>
      </trkpt>
      <trkpt lat="48.18678" lon="6.5169">
        <ele>402.1</ele>
        <time>2023-03-04T10:19:30Z</time>
      </trkpt>
      <trkpt lat="48.1867" lon="6.51699">
        <ele>403.4</ele>
        <time>2023-03-04T10:19:42Z</time>
      </trkpt>
      <trkpt lat="48.18662" lon="6.51704">
        <ele>404.6</ele>
        <time>2023-03-04T10:19:51Z</time>
      </trkpt>
      <trkpt lat="48.18654" lon="6.51712">
        <ele>405.8</ele>
        <time>2023-03-04T10:20:00Z</time>
      </trkpt>
      <trkpt lat="48.18645" lon="6.51717">
        <ele>406.8</ele>
        <time>2023-03-04T10:20:09Z</time>
      </trkpt>
      <trkpt lat="48.18636" lon="6.51722">
        <ele>407.7</ele>
        <time>2023-03-04T10:20:14Z</time>
      </trkpt>
      <trkpt lat="48.18628" lon="6.5173">
        <ele>408.6</ele>
        <time>2023-03-04T10:20:21Z</time>
      </trkpt>
      <trkpt lat="48.18619" lon="6.51734">
        <ele>409.5</ele>
        <time>2023-03-04T10:20:28Z</time>
      </trkpt>
      <trkpt lat="48.18611" lon="6.5174">
        <ele>410.5</ele>
        <time>2023-03-04T10:20:36Z</time>
      </trkpt>
      <trkpt lat="48.18605" lon="6.51752">
        <ele>411.5</ele>
        <time>2023-03-04T10:20:48Z</time>
      </trkpt>
      <trkpt lat="48.18597" lon="6.5176">
        <ele>412.3</ele>
        <time>2023-03-04T10:20:56Z</time>
      </trkpt>
      <trkpt lat="48.18588" lon="6.51767">
        <ele>413.1</ele>
        <time>2023-03-04T10:21:05Z</time>
      </trkpt>
      <trkpt lat="48.18579" lon="6.51773">
        <ele>413.9</ele>
        <time>2023-03-04T10:21:12Z</time>
      </trkpt>
      <trkpt lat="48.18571" lon="6.51781">
        <ele>414.6</ele>
        <time>2023-03-04T10:21:20Z</time>
      </trkpt>
      <trkpt lat="48.18564" lon="6.5179">
        <ele>415.2</ele>
        <time>2023-03-04T10:21:28Z</time>
      </trkpt>
      <trkpt lat="48.18555" lon="6.51797">
        <ele>415.7</ele>
        <time>2023-03-04T10:21:37Z</time>
      </trkpt>
      <trkpt lat="48.18547" lon="6.51805">
        <ele>416.2</ele>
        <time>2023-03-04T10:21:47Z</time>
      </trkpt>
      <trkpt lat="48.18539" lon="6.51813">
        <ele>416.6</ele>
        <time>2023-03-04T10:21:55Z</time>
      </trkpt>
      <trkpt lat="48.18535" lon="6.51826">
        <ele>416.9</ele>
        <time>2023-03-04T10:22:05Z</time>
      </trkpt>
      <trkpt lat="48.18527" lon="6.51833">
        <ele>417.3</ele>
        <time>2023-03-04T10:22:13Z</time>
      </trkpt>
      <trkpt lat="48.1852" lon="6.51843">
        <ele>417.6</ele>
        <time>2023-03-04T10:22:21Z</time>
      </trkpt>
      <trkpt lat="48.18511" lon="6.51849">
        <ele>417.9</ele>
        <time>2023-03-04T10:22:28Z</time>
      </trkpt>
      <trkpt lat="48.18502" lon="6.51857">
        <ele>418.3</ele>
        <time>2023-03-04T10:22:35Z</time>
      </trkpt>
      <trkpt lat="48.18494" lon="6.51864">
        <ele>418.6</ele>
        <time>2023-03-04T10:22:41Z</time>
      </trkpt>
      <trkpt lat="48.18486" lon="6.51869">
        <ele>418.8</ele>
        <time>2023-03-04T10:22:46Z</time>
      </trkpt>
      <trkpt lat="48.18477" lon="6.51876">
        <ele>418.9</ele>
        <time>2023-03-04T10:22:52Z</time>
      </trkpt>
      <trkpt lat="48.18468" lon="6.51884">
        <ele>419</ele>
        <time>2023-03-04T10:22:57Z</time>
      </trkpt>
      <trkpt lat="48.18461" lon="6.51894">
        <ele>419.1</ele>
        <time>2023-03-04T10:23:03Z</time>
      </trkpt>
      <trkpt lat="48.18454" lon="6.51904">
        <ele>419.1</ele>
        <time>2023-03-04T10:23:10Z</time>
      </trkpt>
      <trkpt lat="48.18448" lon="6.51915">
        <ele>419.1</ele>
        <time>2023-03-04T10:23:16Z</time>
      </trkpt>
      <trkpt lat="48.18442" lon="6.51928">
        <ele>419.1</ele>
        <time>2023-03-04T10:23:24Z</time>
      </trkpt>
      <trkpt lat="48.18434" lon="6.51935">
        <ele>418.9</ele>
        <time>2023-03-04T10:23:32Z</time>
      </trkpt>
      <trkpt lat="48.18428" lon="6.51946">
        <ele>418.8</ele>
        <time>2023-03-04T10:23:40Z</time>
      </trkpt>
      <trkpt lat="48.18424" lon="6.51958">
        <ele>418.6</ele>
        <time>2023-03-04T10:23:48Z</time>
      </trkpt>
      <trkpt lat="48.18419" lon="6.5197">
        <ele>418.5</ele>
        <time>2023-03-04T10:23:55Z</time>
      </trkpt>
      <trkpt lat="48.18413" lon="6.51982">
        <ele>418.5</ele>
        <time>2023-03-04T10:24:03Z</time>
      </trkpt>
      <trkpt lat="48.1841" lon="6.51996">
        <ele>418.5</ele>
        <time>2023-03-04T10:24:14Z</time>
      </trkpt>
      <trkpt lat="48.1841" lon="6.5201">
        <ele>418.4</ele>
        <time>2023-03-04T10:24:26Z</time>
      </trkpt>
      <trkpt lat="48.18405" lon="6.52022">
        <ele>418.4</ele>
        <time>2023-03-04T10:24:36Z</time>
      </trkpt>
      <trkpt lat="48.18401" lon="6.52035">
        <ele>418.4</ele>
        <time>2023-03-04T10:24:46Z</time>
      </trkpt>
      <trkpt lat="48.18393" lon="6.52044">
        <ele>418.2</ele>
        <time>2023-03-04T10:24:56Z</time>
      </trkpt>
      <trkpt lat="48.18388" lon="6.52057">
        <ele>418.1</ele>
        <time>2023-03-04T10:25:05Z</time>
      </trkpt>
      <trkpt lat="48.18383" lon="6.52068">
        <ele>418</ele>
        <time>2023-03-04T10:25:12Z</time>
      </trkpt>
      <trkpt lat="48.18375" lon="6.52077">
        <ele>417.8</ele>
        <time>2023-03-04T10:25:23Z</time>
      </trkpt>
      <trkpt lat="48.18369" lon="6.52089">
        <ele>417.7</ele>
        <time>2023-03-04T10:25:32Z</time>
      </trkpt>
      <trkpt lat="48.18367" lon="6.52102">
        <ele>417.6</ele>
        <time>2023-03-04T10:25:36Z</time>
      </trkpt>
      <trkpt lat="48.18364" lon="6.52116">
        <ele>417.5</ele>
        <time>2023-03-04T10:25:41Z</time>
      </trkpt>
      <trkpt lat="48.18366" lon="6.52131">
        <ele>417.4</ele>
        <time>2023-03-04T10:25:49Z</time>
      </trkpt>
      <trkpt lat="48.18372" lon="6.52141">
        <ele>417.2</ele>
        <time>2023-03-04T10:25:58Z</time>
      </trkpt>
      <trkpt lat="48.18364" lon="6.52148">
        <ele>416.9</ele>
        <time>2023-03-04T10:26:11Z</time>
      </trkpt>
      <trkpt lat="48.18366" lon="6.52161">
        <ele>416</ele>
        <time>2023-03-04T10:26:30Z</time>
      </trkpt>
      <trkpt lat="48.18362" lon="6.52171">
        <ele>415.3</ele>
        <time>2023-03-04T10:26:46Z</time>
      </trkpt>
      <trkpt lat="48.18362" lon="6.52172">
        <ele>415.2</ele>
        <time>2023-03-04T10:26:47Z</time>
      </trkpt>
      <trkpt lat="48.18353" lon="6.52179">
        <ele>413.8</ele>
        <time>2023-03-04T10:27:01Z</time>
      </trkpt>
      <trkpt lat="48.18345" lon="6.52186">
        <ele>413.5</ele>
        <time>2023-03-04T10:27:09Z</time>
      </trkpt>
      <trkpt lat="48.18337" lon="6.52194">
        <ele>413.2</ele>
        <time>2023-03-04T10:27:15Z</time>
      </trkpt>
      <trkpt lat="48.1833" lon="6.52202">
        <ele>413</ele>
        <time>2023-03-04T10:27:20Z</time>
      </trkpt>
      <trkpt lat="48.18323" lon="6.52212">
        <ele>412.8</ele>
        <time>2023-03-04T10:27:25Z</time>
      </trkpt>
      <trkpt lat="48.18319" lon="6.52224">
        <ele>412.5</ele>
        <time>2023-03-04T10:27:32Z</time>
      </trkpt>
      <trkpt lat="48.18312" lon="6.52235">
        <ele>412.3</ele>
        <time>2023-03-04T10:27:38Z</time>
      </trkpt>
      <trkpt lat="48.18307" lon="6.52246">
        <ele>412.2</ele>
        <time>2023-03-04T10:27:49Z</time>
      </trkpt>
      <trkpt lat="48.18301" lon="6.52256">
        <ele>412.1</ele>
        <time>2023-03-04T10:27:56Z</time>
      </trkpt>
      <trkpt lat="48.18296" lon="6.52268">
        <ele>412</ele>
        <time>2023-03-04T10:28:03Z</time>
      </trkpt>
      <trkpt lat="48.18291" lon="6.52281">
        <ele>412</ele>
        <time>2023-03-04T10:28:12Z</time>
      </trkpt>
      <trkpt lat="48.18286" lon="6.52293">
        <ele>412</ele>
        <time>2023-03-04T10:28:18Z</time>
      </trkpt>
      <trkpt lat="48.18282" lon="6.52305">
        <ele>412</ele>
        <time>2023-03-04T10:28:26Z</time>
      </trkpt>
      <trkpt lat="48.18279" lon="6.5232">
        <ele>412.1</ele>
        <time>2023-03-04T10:28:34Z</time>
      </trkpt>
      <trkpt lat="48.18275" lon="6.52332">
        <ele>412.3</ele>
        <time>2023-03-04T10:28:44Z</time>
      </trkpt>
      <trkpt lat="48.18271" lon="6.52344">
        <ele>412.4</ele>
        <time>2023-03-04T10:28:53Z</time>
      </trkpt>
      <trkpt lat="48.18266" lon="6.52357">
        <ele>412.6</ele>
        <time>2023-03-04T10:29:01Z</time>
      </trkpt>
      <trkpt lat="48.18267" lon="6.52372">
        <ele>412.7</ele>
        <time>2023-03-04T10:29:10Z</time>
      </trkpt>
      <trkpt lat="48.18265" lon="6.52386">
        <ele>412.8</ele>
        <time>2023-03-04T10:29:18Z</time>
      </trkpt>
      <trkpt lat="48.18264" lon="6.524">
        <ele>412.9</ele>
        <time>2023-03-04T10:29:24Z</time>
      </trkpt>
      <trkpt lat="48.1826" lon="6.52412">
        <ele>413</ele>
        <time>2023-03-04T10:29:32Z</time>
      </trkpt>
      <trkpt lat="48.18253" lon="6.52424">
        <ele>413.2</ele>
        <time>2023-03-04T10:29:38Z</time>
      </trkpt>
      <trkpt lat="48.18248" lon="6.52439">
        <ele>413.3</ele>
        <time>2023-03-04T10:29:46Z</time>
      </trkpt>
      <trkpt lat="48.18244" lon="6.52454">
        <ele>413.2</ele>
        <time>2023-03-04T10:29:52Z</time>
      </trkpt>
      <trkpt lat="48.18237" lon="6.52464">
        <ele>413.2</ele>
        <time>2023-03-04T10:29:56Z</time>
      </trkpt>
      <trkpt lat="48.18232" lon="6.52476">
        <ele>413.1</ele>
        <time>2023-03-04T10:30:01Z</time>
      </trkpt>
      <trkpt lat="48.18227" lon="6.52489">
        <ele>413.1</ele>
        <time>2023-03-04T10:30:08Z</time>
      </trkpt>
      <trkpt lat="48.18219" lon="6.52496">
        <ele>413.1</ele>
        <time>2023-03-04T10:30:13Z</time>
      </trkpt>
      <trkpt lat="48.18212" lon="6.52507">
        <ele>413.1</ele>
        <time>2023-03-04T10:30:20Z</time>
      </trkpt>
      <trkpt lat="48.18209" lon="6.5252">
        <ele>413.3</ele>
        <time>2023-03-04T10:30:28Z</time>
      </trkpt>
      <trkpt lat="48.18206" lon="6.52534">
        <ele>413.7</ele>
        <time>2023-03-04T10:30:38Z</time>
      </trkpt>
      <trkpt lat="48.18201" lon="6.52546">
        <ele>414.1</ele>
        <time>2023-03-04T10:30:44Z</time>
      </trkpt>
      <trkpt lat="48.18202" lon="6.52561">
        <ele>414.3</ele>
        <time>2023-03-04T10:30:54Z</time>
      </trkpt>
      <trkpt lat="48.18201" lon="6.52575">
        <ele>414.4</ele>
        <time>2023-03-04T10:31:00Z</time>
      </trkpt>
      <trkpt lat="48.18195" lon="6.52588">
        <ele>414.5</ele>
        <time>2023-03-04T10:31:09Z</time>
      </trkpt>
      <trkpt lat="48.18192" lon="6.526">
        <ele>414.5</ele>
        <time>2023-03-04T10:31:16Z</time>
      </trkpt>
      <trkpt lat="48.18187" lon="6.52613">
        <ele>414.6</ele>
        <time>2023-03-04T10:31:25Z</time>
      </trkpt>
      <trkpt lat="48.18185" lon="6.52626">
        <ele>414.8</ele>
        <time>2023-03-04T10:31:32Z</time>
      </trkpt>
      <trkpt lat="48.18182" lon="6.5264">
        <ele>414.9</ele>
        <time>2023-03-04T10:31:40Z</time>
      </trkpt>
      <trkpt lat="48.18176" lon="6.52651">
        <ele>415.1</ele>
        <time>2023-03-04T10:31:48Z</time>
      </trkpt>
      <trkpt lat="48.18172" lon="6.52665">
        <ele>415.3</ele>
        <time>2023-03-04T10:31:56Z</time>
      </trkpt>
      <trkpt lat="48.18165" lon="6.52675">
        <ele>415.5</ele>
        <time>2023-03-04T10:32:04Z</time>
      </trkpt>
      <trkpt lat="48.18162" lon="6.52688">
        <ele>415.7</ele>
        <time>2023-03-04T10:32:11Z</time>
      </trkpt>
      <trkpt lat="48.18157" lon="6.527">
        <ele>416</ele>
        <time>2023-03-04T10:32:17Z</time>
      </trkpt>
      <trkpt lat="48.18151" lon="6.52713">
        <ele>416.2</ele>
        <time>2023-03-04T10:32:26Z</time>
      </trkpt>
      <trkpt lat="48.1815" lon="6.52727">
        <ele>416.3</ele>
        <time>2023-03-04T10:32:30Z</time>
      </trkpt>
      <trkpt lat="48.18146" lon="6.5274">
        <ele>416.4</ele>
        <time>2023-03-04T10:32:38Z</time>
      </trkpt>
      <trkpt lat="48.1814" lon="6.52751">
        <ele>416.3</ele>
        <time>2023-03-04T10:32:44Z</time>
      </trkpt>
      <trkpt lat="48.18134" lon="6.52764">
        <ele>416.2</ele>
        <time>2023-03-04T10:32:53Z</time>
      </trkpt>
      <trkpt lat="48.18127" lon="6.52774">
        <ele>415.9</ele>
        <time>2023-03-04T10:33:00Z</time>
      </trkpt>
      <trkpt lat="48.1812" lon="6.52782">
        <ele>415.7</ele>
        <time>2023-03-04T10:33:08Z</time>
      </trkpt>
      <trkpt lat="48.18113" lon="6.52791">
        <ele>415.5</ele>
        <time>2023-03-04T10:33:15Z</time>
      </trkpt>
      <trkpt lat="48.18107" lon="6.52802">
        <ele>415.2</ele>
        <time>2023-03-04T10:33:22Z</time>
      </trkpt>
      <trkpt lat="48.18102" lon="6.52815">
        <ele>414.9</ele>
        <time>2023-03-04T10:33:30Z</time>
      </trkpt>
      <trkpt lat="48.18097" lon="6.52827">
        <ele>414.6</ele>
        <time>2023-03-04T10:33:37Z</time>
      </trkpt>
      <trkpt lat="48.18092" lon="6.52842">
        <ele>414.2</ele>
        <time>2023-03-04T10:33:44Z</time>
      </trkpt>
      <trkpt lat="48.18086" lon="6.52853">
        <ele>413.8</ele>
        <time>2023-03-04T10:33:52Z</time>
      </trkpt>
      <trkpt lat="48.18081" lon="6.52866">
        <ele>413.3</ele>
        <time>2023-03-04T10:34:01Z</time>
      </trkpt>
      <trkpt lat="48.18076" lon="6.52877">
        <ele>412.8</ele>
        <time>2023-03-04T10:34:08Z</time>
      </trkpt>
      <trkpt lat="48.1807" lon="6.52888">
        <ele>412.2</ele>
        <time>2023-03-04T10:34:15Z</time>
      </trkpt>
      <trkpt lat="48.18066" lon="6.52901">
        <ele>411.6</ele>
        <time>2023-03-04T10:34:21Z</time>
      </trkpt>
      <trkpt lat="48.18063" lon="6.52914">
        <ele>411.1</ele>
        <time>2023-03-04T10:34:29Z</time>
      </trkpt>
      <trkpt lat="48.1806" lon="6.52928">
        <ele>410.5</ele>
        <time>2023-03-04T10:34:36Z</time>
      </trkpt>
      <trkpt lat="48.18061" lon="6.52943">
        <ele>409.9</ele>
        <time>2023-03-04T10:34:43Z</time>
      </trkpt>
      <trkpt lat="48.18058" lon="6.52957">
        <ele>409.4</ele>
        <time>2023-03-04T10:34:51Z</time>
      </trkpt>
      <trkpt lat="48.18056" lon="6.52974">
        <ele>408.7</ele>
        <time>2023-03-04T10:34:58Z</time>
      </trkpt>
      <trkpt lat="48.18055" lon="6.52988">
        <ele>408.1</ele>
        <time>2023-03-04T10:35:04Z</time>
      </trkpt>
      <trkpt lat="48.18054" lon="6.53003">
        <ele>407.6</ele>
        <time>2023-03-04T10:35:11Z</time>
      </trkpt>
      <trkpt lat="48.18055" lon="6.53018">
        <ele>407</ele>
        <time>2023-03-04T10:35:18Z</time>
      </trkpt>
      <trkpt lat="48.18053" lon="6.53032">
        <ele>406.4</ele>
        <time>2023-03-04T10:35:25Z</time>
      </trkpt>
      <trkpt lat="48.1805" lon="6.53045">
        <ele>405.9</ele>
        <time>2023-03-04T10:35:33Z</time>
      </trkpt>
      <trkpt lat="48.18049" lon="6.5306">
        <ele>405.2</ele>
        <time>2023-03-04T10:35:40Z</time>
      </trkpt>
      <trkpt lat="48.18049" lon="6.53072">
        <ele>404.7</ele>
        <time>2023-03-04T10:35:47Z</time>
      </trkpt>
      <trkpt lat="48.18048" lon="6.53072">
        <ele>404.7</ele>
        <time>2023-03-04T10:35:54Z</time>
      </trkpt>
      <trkpt lat="48.18048" lon="6.53086">
        <ele>404.1</ele>
        <time>2023-03-04T10:36:00Z</time>
      </trkpt>
      <trkpt lat="48.18048" lon="6.53102">
        <ele>403.4</ele>
        <time>2023-03-04T10:36:05Z</time>
      </trkpt>
      <trkpt lat="48.18048" lon="6.53116">
        <ele>402.8</ele>
        <time>2023-03-04T10:36:08Z</time>
      </trkpt>
      <trkpt lat="48.18047" lon="6.53131">
        <ele>402.2</ele>
        <time>2023-03-04T10:36:13Z</time>
      </trkpt>
      <trkpt lat="48.18047" lon="6.53146">
        <ele>401.5</ele>
        <time>2023-03-04T10:36:19Z</time>
      </trkpt>
      <trkpt lat="48.18047" lon="6.53161">
        <ele>400.8</ele>
        <time>2023-03-04T10:36:25Z</time>
      </trkpt>
      <trkpt lat="48.18049" lon="6.53174">
        <ele>400.1</ele>
        <time>2023-03-04T10:36:31Z</time>
      </trkpt>
      <trkpt lat="48.18052" lon="6.53187">
        <ele>399.3</ele>
        <time>2023-03-04T10:36:38Z</time>
      </trkpt>
      <trkpt lat="48.18054" lon="6.53201">
        <ele>398.5</ele>
        <time>2023-03-04T10:36:45Z</time>
      </trkpt>
      <trkpt lat="48.18055" lon="6.53215">
        <ele>397.7</ele>
        <time>2023-03-04T10:36:52Z</time>
      </trkpt>
      <trkpt lat="48.18057" lon="6.53229">
        <ele>396.8</ele>
        <time>2023-03-04T10:37:00Z</time>
      </trkpt>
      <trkpt lat="48.18061" lon="6.53242">
        <ele>396</ele>
        <time>2023-03-04T10:37:08Z</time>
      </trkpt>
      <trkpt lat="48.18062" lon="6.53254">
        <ele>395.3</ele>
        <time>2023-03-04T10:37:19Z</time>
      </trkpt>
      <trkpt lat="48.18062" lon="6.53255">
        <ele>395.3</ele>
        <time>2023-03-04T10:37:20Z</time>
      </trkpt>
      <trkpt lat="48.18062" lon="6.53255">
        <ele>395.3</ele>
        <time>2023-03-04T10:37:22Z</time>
      </trkpt>
      <trkpt lat="48.18062" lon="6.53255">
        <ele>395.2</ele>
        <time>2023-03-04T10:37:34Z</time>
      </trkpt>
      <trkpt lat="48.18062" lon="6.53255">
        <ele>395.2</ele>
        <time>2023-03-04T10:37:35Z</time>
      </trkpt>
      <trkpt lat="48.18062" lon="6.53255">
        <ele>395.2</ele>
        <time>2023-03-04T10:37:41Z</time>
      </trkpt>
      <trkpt lat="48.18063" lon="6.53255">
        <ele>395.1</ele>
        <time>2023-03-04T10:37:46Z</time>
      </trkpt>
      <trkpt lat="48.18063" lon="6.53255">
        <ele>395.1</ele>
        <time>2023-03-04T10:37:57Z</time>
      </trkpt>
      <trkpt lat="48.18062" lon="6.53256">
        <ele>395.1</ele>
        <time>2023-03-04T10:38:00Z</time>
      </trkpt>
      <trkpt lat="48.18062" lon="6.53256">
        <ele>394.7</ele>
        <time>2023-03-04T10:38:12Z</time>
      </trkpt>
      <trkpt lat="48.18062" lon="6.53256">
        <ele>394.3</ele>
        <time>2023-03-04T10:38:14Z</time>
      </trkpt>
      <trkpt lat="48.18062" lon="6.53256">
        <ele>393.9</ele>
        <time>2023-03-04T10:38:16Z</time>
      </trkpt>
      <trkpt lat="48.18062" lon="6.53256">
        <ele>393.6</ele>
        <time>2023-03-04T10:38:17Z</time>
      </trkpt>
      <trkpt lat="48.18062" lon="6.53257">
        <ele>393.2</ele>
        <time>2023-03-04T10:38:23Z</time>
      </trkpt>
      <trkpt lat="48.18062" lon="6.5327">
        <ele>392.1</ele>
        <time>2023-03-04T10:38:34Z</time>
      </trkpt>
      <trkpt lat="48.18062" lon="6.53284">
        <ele>390.9</ele>
        <time>2023-03-04T10:38:44Z</time>
      </trkpt>
      <trkpt lat="48.18065" lon="6.53298">
        <ele>390</ele>
        <time>2023-03-04T10:38:52Z</time>
      </trkpt>
      <trkpt lat="48.18068" lon="6.53311">
        <ele>388.9</ele>
        <time>2023-03-04T10:38:59Z</time>
      </trkpt>
      <trkpt lat="48.1807" lon="6.53325">
        <ele>387.9</ele>
        <time>2023-03-04T10:39:08Z</time>
      </trkpt>
      <trkpt lat="48.1807" lon="6.53339">
        <ele>386.8</ele>
        <time>2023-03-04T10:39:16Z</time>
      </trkpt>
      <trkpt lat="48.18071" lon="6.53352">
        <ele>385.3</ele>
        <time>2023-03-04T10:39:30Z</time>
      </trkpt>
      <trkpt lat="48.18073" lon="6.53366">
        <ele>384</ele>
        <time>2023-03-04T10:39:38Z</time>
      </trkpt>
      <trkpt lat="48.18074" lon="6.5338">
        <ele>382.9</ele>
        <time>2023-03-04T10:39:46Z</time>
      </trkpt>
      <trkpt lat="48.18077" lon="6.53395">
        <ele>381.6</ele>
        <time>2023-03-04T10:39:54Z</time>
      </trkpt>
      <trkpt lat="48.18082" lon="6.53406">
        <ele>380.8</ele>
        <time>2023-03-04T10:40:02Z</time>
      </trkpt>
      <trkpt lat="48.18088" lon="6.53418">
        <ele>379.6</ele>
        <time>2023-03-04T10:40:10Z</time>
      </trkpt>
      <trkpt lat="48.1809" lon="6.53432">
        <ele>378.7</ele>
        <time>2023-03-04T10:40:19Z</time>
      </trkpt>
      <trkpt lat="48.18095" lon="6.53445">
        <ele>378.3</ele>
        <time>2023-03-04T10:40:25Z</time>
      </trkpt>
      <trkpt lat="48.18103" lon="6.53454">
        <ele>377.8</ele>
        <time>2023-03-04T10:40:32Z</time>
      </trkpt>
      <trkpt lat="48.1811" lon="6.53463">
        <ele>377.5</ele>
        <time>2023-03-04T10:40:39Z</time>
      </trkpt>
      <trkpt lat="48.18117" lon="6.53473">
        <ele>377.2</ele>
        <time>2023-03-04T10:40:47Z</time>
      </trkpt>
      <trkpt lat="48.18122" lon="6.53486">
        <ele>376.9</ele>
        <time>2023-03-04T10:40:56Z</time>
      </trkpt>
      <trkpt lat="48.18122" lon="6.535">
        <ele>377.3</ele>
        <time>2023-03-04T10:41:09Z</time>
      </trkpt>
      <trkpt lat="48.18113" lon="6.53508">
        <ele>377.6</ele>
        <time>2023-03-04T10:41:16Z</time>
      </trkpt>
      <trkpt lat="48.18104" lon="6.53511">
        <ele>378</ele>
        <time>2023-03-04T10:41:26Z</time>
      </trkpt>
      <trkpt lat="48.181" lon="6.53518">
        <ele>378.3</ele>
        <time>2023-03-04T10:41:36Z</time>
      </trkpt>
      <trkpt lat="48.18101" lon="6.53518">
        <ele>378.3</ele>
        <time>2023-03-04T10:41:37Z</time>
      </trkpt>
      <trkpt lat="48.18101" lon="6.53517">
        <ele>378.3</ele>
        <time>2023-03-04T10:41:40Z</time>
      </trkpt>
      <trkpt lat="48.18101" lon="6.53517">
        <ele>378.3</ele>
        <time>2023-03-04T10:41:41Z</time>
      </trkpt>
      <trkpt lat="48.18092" lon="6.5352">
        <ele>378.7</ele>
        <time>2023-03-04T10:41:49Z</time>
      </trkpt>
      <trkpt lat="48.18084" lon="6.53527">
        <ele>379.2</ele>
        <time>2023-03-04T10:41:58Z</time>
      </trkpt>
      <trkpt lat="48.18077" lon="6.53538">
        <ele>379.7</ele>
        <time>2023-03-04T10:42:06Z</time>
      </trkpt>
      <trkpt lat="48.18076" lon="6.53553">
        <ele>380.2</ele>
        <time>2023-03-04T10:42:14Z</time>
      </trkpt>
      <trkpt lat="48.18069" lon="6.53562">
        <ele>380.7</ele>
        <time>2023-03-04T10:42:32Z</time>
      </trkpt>
      <trkpt lat="48.18067" lon="6.53576">
        <ele>381.7</ele>
        <time>2023-03-04T10:42:43Z</time>
      </trkpt>
      <trkpt lat="48.18062" lon="6.53587">
        <ele>382.9</ele>
        <time>2023-03-04T10:42:52Z</time>
      </trkpt>
      <trkpt lat="48.1806" lon="6.53601">
        <ele>384.5</ele>
        <time>2023-03-04T10:43:01Z</time>
      </trkpt>
      <trkpt lat="48.18059" lon="6.53615">
        <ele>386.2</ele>
        <time>2023-03-04T10:43:14Z</time>
      </trkpt>
      <trkpt lat="48.18055" lon="6.53628">
        <ele>387.7</ele>
        <time>2023-03-04T10:43:27Z</time>
      </trkpt>
      <trkpt lat="48.18049" lon="6.53639">
        <ele>388.6</ele>
        <time>2023-03-04T10:43:38Z</time>
      </trkpt>
      <trkpt lat="48.18041" lon="6.53648">
        <ele>389.1</ele>
        <time>2023-03-04T10:43:47Z</time>
      </trkpt>
      <trkpt lat="48.18033" lon="6.53657">
        <ele>389.6</ele>
        <time>2023-03-04T10:43:57Z</time>
      </trkpt>
      <trkpt lat="48.18025" lon="6.53665">
        <ele>390.2</ele>
        <time>2023-03-04T10:44:05Z</time>
      </trkpt>
      <trkpt lat="48.18018" lon="6.53675">
        <ele>390.8</ele>
        <time>2023-03-04T10:44:16Z</time>
      </trkpt>
      <trkpt lat="48.18008" lon="6.53678">
        <ele>391.4</ele>
        <time>2023-03-04T10:44:22Z</time>
      </trkpt>
      <trkpt lat="48.18001" lon="6.53689">
        <ele>392</ele>
        <time>2023-03-04T10:44:28Z</time>
      </trkpt>
      <trkpt lat="48.17993" lon="6.53696">
        <ele>392.6</ele>
        <time>2023-03-04T10:44:37Z</time>
      </trkpt>
      <trkpt lat="48.17984" lon="6.53704">
        <ele>393</ele>
        <time>2023-03-04T10:44:44Z</time>
      </trkpt>
      <trkpt lat="48.17975" lon="6.5371">
        <ele>393.2</ele>
        <time>2023-03-04T10:44:53Z</time>
      </trkpt>
      <trkpt lat="48.17967" lon="6.53716">
        <ele>393.2</ele>
        <time>2023-03-04T10:45:05Z</time>
      </trkpt>
      <trkpt lat="48.17959" lon="6.53722">
        <ele>393.3</ele>
        <time>2023-03-04T10:45:12Z</time>
      </trkpt>
      <trkpt lat="48.1795" lon="6.53725">
        <ele>393.7</ele>
        <time>2023-03-04T10:45:18Z</time>
      </trkpt>
      <trkpt lat="48.17941" lon="6.53732">
        <ele>394.1</ele>
        <time>2023-03-04T10:45:26Z</time>
      </trkpt>
      <trkpt lat="48.17932" lon="6.53737">
        <ele>394.6</ele>
        <time>2023-03-04T10:45:33Z</time>
      </trkpt>
      <trkpt lat="48.17922" lon="6.53744">
        <ele>394.9</ele>
        <time>2023-03-04T10:45:43Z</time>
      </trkpt>
      <trkpt lat="48.17914" lon="6.53738">
        <ele>395</ele>
        <time>2023-03-04T10:45:59Z</time>
      </trkpt>
      <trkpt lat="48.17905" lon="6.53742">
        <ele>394.9</ele>
        <time>2023-03-04T10:46:07Z</time>
      </trkpt>
      <trkpt lat="48.17897" lon="6.53747">
        <ele>394.8</ele>
        <time>2023-03-04T10:46:12Z</time>
      </trkpt>
      <trkpt lat="48.17888" lon="6.53752">
        <ele>394.5</ele>
        <time>2023-03-04T10:46:20Z</time>
      </trkpt>
      <trkpt lat="48.17879" lon="6.53757">
        <ele>394.3</ele>
        <time>2023-03-04T10:46:27Z</time>
      </trkpt>
      <trkpt lat="48.17869" lon="6.53762">
        <ele>394.4</ele>
        <time>2023-03-04T10:46:36Z</time>
      </trkpt>
      <trkpt lat="48.17864" lon="6.53773">
        <ele>394.9</ele>
        <time>2023-03-04T10:46:45Z</time>
      </trkpt>
      <trkpt lat="48.17859" lon="6.53785">
        <ele>395.5</ele>
        <time>2023-03-04T10:46:55Z</time>
      </trkpt>
      <trkpt lat="48.17852" lon="6.53796">
        <ele>396.3</ele>
        <time>2023-03-04T10:47:10Z</time>
      </trkpt>
      <trkpt lat="48.17842" lon="6.538">
        <ele>397</ele>
        <time>2023-03-04T10:47:21Z</time>
      </trkpt>
      <trkpt lat="48.17833" lon="6.53802">
        <ele>397.6</ele>
        <time>2023-03-04T10:47:34Z</time>
      </trkpt>
      <trkpt lat="48.17838" lon="6.53794">
        <ele>398.2</ele>
        <time>2023-03-04T10:47:53Z</time>
      </trkpt>
      <trkpt lat="48.17839" lon="6.53794">
        <ele>398.3</ele>
        <time>2023-03-04T10:47:54Z</time>
      </trkpt>
      <trkpt lat="48.17841" lon="6.53807">
        <ele>399.1</ele>
        <time>2023-03-04T10:48:11Z</time>
      </trkpt>
      <trkpt lat="48.1784" lon="6.53808">
        <ele>399.2</ele>
        <time>2023-03-04T10:48:15Z</time>
      </trkpt>
      <trkpt lat="48.1784" lon="6.53807">
        <ele>399.2</ele>
        <time>2023-03-04T10:48:16Z</time>
      </trkpt>
      <trkpt lat="48.17842" lon="6.53808">
        <ele>399.4</ele>
        <time>2023-03-04T10:48:21Z</time>
      </trkpt>
      <trkpt lat="48.17843" lon="6.53809">
        <ele>399.5</ele>
        <time>2023-03-04T10:48:22Z</time>
      </trkpt>
      <trkpt lat="48.1784" lon="6.53822">
        <ele>400.3</ele>
        <time>2023-03-04T10:48:42Z</time>
      </trkpt>
      <trkpt lat="48.17834" lon="6.53833">
        <ele>401.1</ele>
        <time>2023-03-04T10:48:52Z</time>
      </trkpt>
      <trkpt lat="48.17826" lon="6.53842">
        <ele>401.7</ele>
        <time>2023-03-04T10:49:12Z</time>
      </trkpt>
      <trkpt lat="48.17819" lon="6.5385">
        <ele>402.2</ele>
        <time>2023-03-04T10:49:18Z</time>
      </trkpt>
      <trkpt lat="48.17814" lon="6.53862">
        <ele>402.8</ele>
        <time>2023-03-04T10:49:26Z</time>
      </trkpt>
      <trkpt lat="48.17808" lon="6.53874">
        <ele>403.9</ele>
        <time>2023-03-04T10:49:33Z</time>
      </trkpt>
      <trkpt lat="48.17803" lon="6.53885">
        <ele>405.2</ele>
        <time>2023-03-04T10:49:39Z</time>
      </trkpt>
      <trkpt lat="48.178" lon="6.539">
        <ele>406.8</ele>
        <time>2023-03-04T10:49:46Z</time>
      </trkpt>
      <trkpt lat="48.17802" lon="6.53914">
        <ele>408.2</ele>
        <time>2023-03-04T10:49:56Z</time>
      </trkpt>
      <trkpt lat="48.17799" lon="6.53929">
        <ele>409.7</ele>
        <time>2023-03-04T10:50:06Z</time>
      </trkpt>
      <trkpt lat="48.17797" lon="6.53942">
        <ele>411</ele>
        <time>2023-03-04T10:50:12Z</time>
      </trkpt>
      <trkpt lat="48.17793" lon="6.53954">
        <ele>412.2</ele>
        <time>2023-03-04T10:50:20Z</time>
      </trkpt>
      <trkpt lat="48.17794" lon="6.53968">
        <ele>413.4</ele>
        <time>2023-03-04T10:50:29Z</time>
      </trkpt>
      <trkpt lat="48.17791" lon="6.53981">
        <ele>414.2</ele>
        <time>2023-03-04T10:50:44Z</time>
      </trkpt>
      <trkpt lat="48.17794" lon="6.53991">
        <ele>414.8</ele>
        <time>2023-03-04T10:50:57Z</time>
      </trkpt>
      <trkpt lat="48.17793" lon="6.53992">
        <ele>414.9</ele>
        <time>2023-03-04T10:50:58Z</time>
      </trkpt>
      <trkpt lat="48.17792" lon="6.54006">
        <ele>415.4</ele>
        <time>2023-03-04T10:51:10Z</time>
      </trkpt>
      <trkpt lat="48.17788" lon="6.54019">
        <ele>415.9</ele>
        <time>2023-03-04T10:51:20Z</time>
      </trkpt>
      <trkpt lat="48.1779" lon="6.54033">
        <ele>416.4</ele>
        <time>2023-03-04T10:51:28Z</time>
      </trkpt>
      <trkpt lat="48.17788" lon="6.54048">
        <ele>417</ele>
        <time>2023-03-04T10:51:36Z</time>
      </trkpt>
      <trkpt lat="48.17782" lon="6.54061">
        <ele>417.3</ele>
        <time>2023-03-04T10:51:47Z</time>
      </trkpt>
      <trkpt lat="48.17785" lon="6.54074">
        <ele>417.3</ele>
        <time>2023-03-04T10:51:52Z</time>
      </trkpt>
      <trkpt lat="48.17789" lon="6.54088">
        <ele>416.9</ele>
        <time>2023-03-04T10:52:00Z</time>
      </trkpt>
      <trkpt lat="48.17784" lon="6.541">
        <ele>416.2</ele>
        <time>2023-03-04T10:52:08Z</time>
      </trkpt>
      <trkpt lat="48.17783" lon="6.54115">
        <ele>415.4</ele>
        <time>2023-03-04T10:52:17Z</time>
      </trkpt>
      <trkpt lat="48.1778" lon="6.54129">
        <ele>414.8</ele>
        <time>2023-03-04T10:52:25Z</time>
      </trkpt>
      <trkpt lat="48.17777" lon="6.54141">
        <ele>414.9</ele>
        <time>2023-03-04T10:52:35Z</time>
      </trkpt>
      <trkpt lat="48.17769" lon="6.54149">
        <ele>415.7</ele>
        <time>2023-03-04T10:52:44Z</time>
      </trkpt>
      <trkpt lat="48.17761" lon="6.54159">
        <ele>416.7</ele>
        <time>2023-03-04T10:52:52Z</time>
      </trkpt>
      <trkpt lat="48.17753" lon="6.54168">
        <ele>417.8</ele>
        <time>2023-03-04T10:52:59Z</time>
      </trkpt>
      <trkpt lat="48.17745" lon="6.54178">
        <ele>418.9</ele>
        <time>2023-03-04T10:53:07Z</time>
      </trkpt>
      <trkpt lat="48.17738" lon="6.54186">
        <ele>419.6</ele>
        <time>2023-03-04T10:53:17Z</time>
      </trkpt>
      <trkpt lat="48.17735" lon="6.54199">
        <ele>419.9</ele>
        <time>2023-03-04T10:53:24Z</time>
      </trkpt>
      <trkpt lat="48.17733" lon="6.54212">
        <ele>420</ele>
        <time>2023-03-04T10:53:33Z</time>
      </trkpt>
      <trkpt lat="48.17727" lon="6.54224">
        <ele>399.1</ele>
        <time>2023-03-04T10:53:44Z</time>
      </trkpt>
      <trkpt lat="48.17723" lon="6.54237">
        <ele>399.7</ele>
        <time>2023-03-04T10:53:52Z</time>
      </trkpt>
      <trkpt lat="48.17718" lon="6.5425">
        <ele>400.3</ele>
        <time>2023-03-04T10:54:01Z</time>
      </trkpt>
      <trkpt lat="48.17712" lon="6.54261">
        <ele>401</ele>
        <time>2023-03-04T10:54:11Z</time>
      </trkpt>
      <trkpt lat="48.17705" lon="6.54271">
        <ele>401.7</ele>
        <time>2023-03-04T10:54:21Z</time>
      </trkpt>
      <trkpt lat="48.17696" lon="6.54275">
        <ele>402.5</ele>
        <time>2023-03-04T10:54:32Z</time>
      </trkpt>
      <trkpt lat="48.17686" lon="6.54277">
        <ele>403.4</ele>
        <time>2023-03-04T10:54:38Z</time>
      </trkpt>
      <trkpt lat="48.17676" lon="6.54277">
        <ele>404.2</ele>
        <time>2023-03-04T10:54:43Z</time>
      </trkpt>
      <trkpt lat="48.17667" lon="6.54281">
        <ele>405</ele>
        <time>2023-03-04T10:54:49Z</time>
      </trkpt>
      <trkpt lat="48.17657" lon="6.54284">
        <ele>405.7</ele>
        <time>2023-03-04T10:54:57Z</time>
      </trkpt>
      <trkpt lat="48.17648" lon="6.54286">
        <ele>406.2</ele>
        <time>2023-03-04T10:55:03Z</time>
      </trkpt>
      <trkpt lat="48.17639" lon="6.54283">
        <ele>406.6</ele>
        <time>2023-03-04T10:55:13Z</time>
      </trkpt>
      <trkpt lat="48.17639" lon="6.54283">
        <ele>406.6</ele>
        <time>2023-03-04T10:55:14Z</time>
      </trkpt>
      <trkpt lat="48.17639" lon="6.54283">
        <ele>406.6</ele>
        <time>2023-03-04T10:55:15Z</time>
      </trkpt>
      <trkpt lat="48.17628" lon="6.54286">
        <ele>407</ele>
        <time>2023-03-04T10:55:23Z</time>
      </trkpt>
      <trkpt lat="48.17619" lon="6.54288">
        <ele>407.3</ele>
        <time>2023-03-04T10:55:31Z</time>
      </trkpt>
      <trkpt lat="48.17609" lon="6.54289">
        <ele>407.5</ele>
        <time>2023-03-04T10:55:37Z</time>
      </trkpt>
      <trkpt lat="48.17599" lon="6.54292">
        <ele>407.9</ele>
        <time>2023-03-04T10:55:41Z</time>
      </trkpt>
      <trkpt lat="48.17589" lon="6.54294">
        <ele>408.3</ele>
        <time>2023-03-04T10:55:48Z</time>
      </trkpt>
      <trkpt lat="48.1758" lon="6.54291">
        <ele>408.8</ele>
        <time>2023-03-04T10:55:54Z</time>
      </trkpt>
      <trkpt lat="48.17571" lon="6.54291">
        <ele>409.3</ele>
        <time>2023-03-04T10:56:02Z</time>
      </trkpt>
      <trkpt lat="48.17562" lon="6.54295">
        <ele>409.8</ele>
        <time>2023-03-04T10:56:14Z</time>
      </trkpt>
      <trkpt lat="48.17552" lon="6.543">
        <ele>410.5</ele>
        <time>2023-03-04T10:56:21Z</time>
      </trkpt>
      <trkpt lat="48.17543" lon="6.54307">
        <ele>411.3</ele>
        <time>2023-03-04T10:56:29Z</time>
      </trkpt>
      <trkpt lat="48.17532" lon="6.54309">
        <ele>412.3</ele>
        <time>2023-03-04T10:56:38Z</time>
      </trkpt>
      <trkpt lat="48.17522" lon="6.54313">
        <ele>413.1</ele>
        <time>2023-03-04T10:56:44Z</time>
      </trkpt>
      <trkpt lat="48.17512" lon="6.54311">
        <ele>414</ele>
        <time>2023-03-04T10:56:52Z</time>
      </trkpt>
      <trkpt lat="48.17503" lon="6.5431">
        <ele>414.7</ele>
        <time>2023-03-04T10:57:00Z</time>
      </trkpt>
      <trkpt lat="48.17495" lon="6.54319">
        <ele>415.4</ele>
        <time>2023-03-04T10:57:06Z</time>
      </trkpt>
      <trkpt lat="48.17486" lon="6.54322">
        <ele>416.1</ele>
        <time>2023-03-04T10:57:10Z</time>
      </trkpt>
      <trkpt lat="48.17475" lon="6.5432">
        <ele>416.8</ele>
        <time>2023-03-04T10:57:20Z</time>
      </trkpt>
      <trkpt lat="48.17466" lon="6.5432">
        <ele>417.4</ele>
        <time>2023-03-04T10:57:29Z</time>
      </trkpt>
      <trkpt lat="48.17455" lon="6.54322">
        <ele>418.2</ele>
        <time>2023-03-04T10:57:37Z</time>
      </trkpt>
      <trkpt lat="48.17446" lon="6.54326">
        <ele>419.1</ele>
        <time>2023-03-04T10:57:42Z</time>
      </trkpt>
      <trkpt lat="48.17437" lon="6.54329">
        <ele>420</ele>
        <time>2023-03-04T10:57:48Z</time>
      </trkpt>
      <trkpt lat="48.17428" lon="6.54332">
        <ele>420.9</ele>
        <time>2023-03-04T10:57:52Z</time>
      </trkpt>
      <trkpt lat="48.17419" lon="6.54339">
        <ele>422</ele>
        <time>2023-03-04T10:57:59Z</time>
      </trkpt>
      <trkpt lat="48.1741" lon="6.54344">
        <ele>423</ele>
        <time>2023-03-04T10:58:05Z</time>
      </trkpt>
      <trkpt lat="48.17401" lon="6.54349">
        <ele>424</ele>
        <time>2023-03-04T10:58:12Z</time>
      </trkpt>
      <trkpt lat="48.17391" lon="6.54351">
        <ele>424.8</ele>
        <time>2023-03-04T10:58:19Z</time>
      </trkpt>
      <trkpt lat="48.17381" lon="6.5435">
        <ele>425.5</ele>
        <time>2023-03-04T10:58:24Z</time>
      </trkpt>
      <trkpt lat="48.17371" lon="6.5435">
        <ele>426.1</ele>
        <time>2023-03-04T10:58:36Z</time>
      </trkpt>
      <trkpt lat="48.17362" lon="6.54353">
        <ele>426.6</ele>
        <time>2023-03-04T10:58:42Z</time>
      </trkpt>
      <trkpt lat="48.17353" lon="6.54356">
        <ele>427.1</ele>
        <time>2023-03-04T10:58:49Z</time>
      </trkpt>
      <trkpt lat="48.17344" lon="6.54356">
        <ele>427.6</ele>
        <time>2023-03-04T10:58:58Z</time>
      </trkpt>
      <trkpt lat="48.17334" lon="6.54356">
        <ele>428.1</ele>
        <time>2023-03-04T10:59:07Z</time>
      </trkpt>
      <trkpt lat="48.17325" lon="6.54359">
        <ele>428.6</ele>
        <time>2023-03-04T10:59:14Z</time>
      </trkpt>
      <trkpt lat="48.1732" lon="6.54364">
        <ele>429</ele>
        <time>2023-03-04T10:59:24Z</time>
      </trkpt>
      <trkpt lat="48.1732" lon="6.54363">
        <ele>429.1</ele>
        <time>2023-03-04T10:59:28Z</time>
      </trkpt>
      <trkpt lat="48.17321" lon="6.54359">
        <ele>429.3</ele>
        <time>2023-03-04T10:59:33Z</time>
      </trkpt>
      <trkpt lat="48.17322" lon="6.54358">
        <ele>429.4</ele>
        <time>2023-03-04T10:59:35Z</time>
      </trkpt>
      <trkpt lat="48.17322" lon="6.54355">
        <ele>429.5</ele>
        <time>2023-03-04T10:59:41Z</time>
      </trkpt>
      <trkpt lat="48.17322" lon="6.54355">
        <ele>429.5</ele>
        <time>2023-03-04T10:59:46Z</time>
      </trkpt>
      <trkpt lat="48.17322" lon="6.54355">
        <ele>429.5</ele>
        <time>2023-03-04T10:59:47Z</time>
      </trkpt>
      <trkpt lat="48.17322" lon="6.54355">
        <ele>429.5</ele>
        <time>2023-03-04T10:59:48Z</time>
      </trkpt>
      <trkpt lat="48.17321" lon="6.54354">
        <ele>429.6</ele>
        <time>2023-03-04T10:59:50Z</time>
      </trkpt>
      <trkpt lat="48.17321" lon="6.54354">
        <ele>429.6</ele>
        <time>2023-03-04T10:59:52Z</time>
      </trkpt>
      <trkpt lat="48.17321" lon="6.54354">
        <ele>429.6</ele>
        <time>2023-03-04T10:59:53Z</time>
      </trkpt>
      <trkpt lat="48.17321" lon="6.54354">
        <ele>429.6</ele>
        <time>2023-03-04T10:59:54Z</time>
      </trkpt>
      <trkpt lat="48.17309" lon="6.54347">
        <ele>430.7</ele>
        <time>2023-03-04T11:25:40Z</time>
      </trkpt>
      <trkpt lat="48.17309" lon="6.54347">
        <ele>430.7</ele>
        <time>2023-03-04T11:25:43Z</time>
      </trkpt>
      <trkpt lat="48.17309" lon="6.54347">
        <ele>430.7</ele>
        <time>2023-03-04T11:25:44Z</time>
      </trkpt>
      <trkpt lat="48.17309" lon="6.54347">
        <ele>430.7</ele>
        <time>2023-03-04T11:25:47Z</time>
      </trkpt>
      <trkpt lat="48.17299" lon="6.54346">
        <ele>431.6</ele>
        <time>2023-03-04T11:25:56Z</time>
      </trkpt>
      <trkpt lat="48.1729" lon="6.54343">
        <ele>431.9</ele>
        <time>2023-03-04T11:26:04Z</time>
      </trkpt>
      <trkpt lat="48.17281" lon="6.5434">
        <ele>432.3</ele>
        <time>2023-03-04T11:26:12Z</time>
      </trkpt>
      <trkpt lat="48.17272" lon="6.54337">
        <ele>432.8</ele>
        <time>2023-03-04T11:26:21Z</time>
      </trkpt>
      <trkpt lat="48.17263" lon="6.54331">
        <ele>433.4</ele>
        <time>2023-03-04T11:26:29Z</time>
      </trkpt>
      <trkpt lat="48.17254" lon="6.5433">
        <ele>434</ele>
        <time>2023-03-04T11:26:37Z</time>
      </trkpt>
      <trkpt lat="48.17244" lon="6.54325">
        <ele>434.7</ele>
        <time>2023-03-04T11:26:43Z</time>
      </trkpt>
      <trkpt lat="48.17235" lon="6.5432">
        <ele>435.4</ele>
        <time>2023-03-04T11:26:49Z</time>
      </trkpt>
      <trkpt lat="48.17225" lon="6.54316">
        <ele>436</ele>
        <time>2023-03-04T11:26:55Z</time>
      </trkpt>
      <trkpt lat="48.17216" lon="6.54313">
        <ele>436.5</ele>
        <time>2023-03-04T11:27:03Z</time>
      </trkpt>
      <trkpt lat="48.17207" lon="6.54308">
        <ele>436.9</ele>
        <time>2023-03-04T11:27:11Z</time>
      </trkpt>
      <trkpt lat="48.17197" lon="6.54305">
        <ele>437.3</ele>
        <time>2023-03-04T11:27:20Z</time>
      </trkpt>
      <trkpt lat="48.17189" lon="6.543">
        <ele>437.7</ele>
        <time>2023-03-04T11:27:27Z</time>
      </trkpt>
      <trkpt lat="48.17179" lon="6.54299">
        <ele>438.1</ele>
        <time>2023-03-04T11:27:35Z</time>
      </trkpt>
      <trkpt lat="48.1717" lon="6.54293">
        <ele>438.3</ele>
        <time>2023-03-04T11:27:43Z</time>
      </trkpt>
      <trkpt lat="48.1716" lon="6.54289">
        <ele>438.6</ele>
        <time>2023-03-04T11:27:51Z</time>
      </trkpt>
      <trkpt lat="48.17152" lon="6.54284">
        <ele>438.7</ele>
        <time>2023-03-04T11:27:59Z</time>
      </trkpt>
      <trkpt lat="48.17143" lon="6.54281">
        <ele>438.7</ele>
        <time>2023-03-04T11:28:07Z</time>
      </trkpt>
      <trkpt lat="48.17134" lon="6.54279">
        <ele>438.6</ele>
        <time>2023-03-04T11:28:13Z</time>
      </trkpt>
      <trkpt lat="48.17124" lon="6.54275">
        <ele>438.4</ele>
        <time>2023-03-04T11:28:22Z</time>
      </trkpt>
      <trkpt lat="48.17116" lon="6.54271">
        <ele>438.2</ele>
        <time>2023-03-04T11:28:32Z</time>
      </trkpt>
      <trkpt lat="48.17107" lon="6.54268">
        <ele>437.9</ele>
        <time>2023-03-04T11:28:38Z</time>
      </trkpt>
      <trkpt lat="48.17098" lon="6.54264">
        <ele>437.5</ele>
        <time>2023-03-04T11:28:45Z</time>
      </trkpt>
      <trkpt lat="48.17088" lon="6.5426">
        <ele>437.3</ele>
        <time>2023-03-04T11:28:53Z</time>
      </trkpt>
      <trkpt lat="48.1708" lon="6.54254">
        <ele>437.1</ele>
        <time>2023-03-04T11:29:01Z</time>
      </trkpt>
      <trkpt lat="48.17071" lon="6.5425">
        <ele>437</ele>
        <time>2023-03-04T11:29:07Z</time>
      </trkpt>
      <trkpt lat="48.17062" lon="6.54246">
        <ele>436.9</ele>
        <time>2023-03-04T11:29:13Z</time>
      </trkpt>
      <trkpt lat="48.17052" lon="6.54241">
        <ele>437</ele>
        <time>2023-03-04T11:29:20Z</time>
      </trkpt>
      <trkpt lat="48.17042" lon="6.54237">
        <ele>437</ele>
        <time>2023-03-04T11:29:27Z</time>
      </trkpt>
      <trkpt lat="48.17034" lon="6.54232">
        <ele>437.1</ele>
        <time>2023-03-04T11:29:34Z</time>
      </trkpt>
      <trkpt lat="48.17025" lon="6.54229">
        <ele>437.2</ele>
        <time>2023-03-04T11:29:40Z</time>
      </trkpt>
      <trkpt lat="48.17015" lon="6.54224">
        <ele>437.3</ele>
        <time>2023-03-04T11:29:47Z</time>
      </trkpt>
      <trkpt lat="48.17006" lon="6.5422">
        <ele>437.3</ele>
        <time>2023-03-04T11:29:55Z</time>
      </trkpt>
      <trkpt lat="48.16997" lon="6.54216">
        <ele>437.2</ele>
        <time>2023-03-04T11:30:04Z</time>
      </trkpt>
      <trkpt lat="48.16987" lon="6.54212">
        <ele>437.1</ele>
        <time>2023-03-04T11:30:12Z</time>
      </trkpt>
      <trkpt lat="48.16978" lon="6.54208">
        <ele>437</ele>
        <time>2023-03-04T11:30:19Z</time>
      </trkpt>
      <trkpt lat="48.16969" lon="6.54204">
        <ele>437</ele>
        <time>2023-03-04T11:30:26Z</time>
      </trkpt>
      <trkpt lat="48.1696" lon="6.542">
        <ele>437</ele>
        <time>2023-03-04T11:30:33Z</time>
      </trkpt>
      <trkpt lat="48.16951" lon="6.54195">
        <ele>437</ele>
        <time>2023-03-04T11:30:40Z</time>
      </trkpt>
      <trkpt lat="48.16941" lon="6.54191">
        <ele>437.1</ele>
        <time>2023-03-04T11:30:47Z</time>
      </trkpt>
      <trkpt lat="48.16934" lon="6.54187">
        <ele>437.3</ele>
        <time>2023-03-04T11:31:00Z</time>
      </trkpt>
      <trkpt lat="48.16934" lon="6.54187">
        <ele>437.3</ele>
        <time>2023-03-04T11:31:01Z</time>
      </trkpt>
      <trkpt lat="48.16932" lon="6.54187">
        <ele>437.4</ele>
        <time>2023-03-04T11:31:07Z</time>
      </trkpt>
      <trkpt lat="48.16932" lon="6.54187">
        <ele>437.3</ele>
        <time>2023-03-04T11:31:08Z</time>
      </trkpt>
      <trkpt lat="48.16929" lon="6.5419">
        <ele>437.5</ele>
        <time>2023-03-04T11:31:22Z</time>
      </trkpt>
      <trkpt lat="48.16929" lon="6.5419">
        <ele>437.7</ele>
        <time>2023-03-04T11:31:24Z</time>
      </trkpt>
      <trkpt lat="48.16923" lon="6.5419">
        <ele>437.9</ele>
        <time>2023-03-04T11:31:41Z</time>
      </trkpt>
      <trkpt lat="48.16924" lon="6.5419">
        <ele>437.8</ele>
        <time>2023-03-04T11:31:42Z</time>
      </trkpt>
      <trkpt lat="48.16924" lon="6.5419">
        <ele>437.8</ele>
        <time>2023-03-04T11:31:43Z</time>
      </trkpt>
      <trkpt lat="48.16923" lon="6.5419">
        <ele>437.9</ele>
        <time>2023-03-04T11:31:44Z</time>
      </trkpt>
      <trkpt lat="48.16923" lon="6.5419">
        <ele>437.9</ele>
        <time>2023-03-04T11:31:46Z</time>
      </trkpt>
      <trkpt lat="48.16923" lon="6.5419">
        <ele>437.9</ele>
        <time>2023-03-04T11:31:47Z</time>
      </trkpt>
      <trkpt lat="48.16923" lon="6.5419">
        <ele>437.9</ele>
        <time>2023-03-04T11:31:48Z</time>
      </trkpt>
      <trkpt lat="48.16923" lon="6.5419">
        <ele>437.9</ele>
        <time>2023-03-04T11:31:49Z</time>
      </trkpt>
      <trkpt lat="48.16929" lon="6.54203">
        <ele>438.3</ele>
        <time>2023-03-04T11:32:03Z</time>
      </trkpt>
      <trkpt lat="48.16929" lon="6.54204">
        <ele>438.3</ele>
        <time>2023-03-04T11:32:08Z</time>
      </trkpt>
      <trkpt lat="48.16929" lon="6.54205">
        <ele>438.3</ele>
        <time>2023-03-04T11:32:09Z</time>
      </trkpt>
      <trkpt lat="48.1693" lon="6.54206">
        <ele>438.3</ele>
        <time>2023-03-04T11:32:11Z</time>
      </trkpt>
      <trkpt lat="48.16931" lon="6.54205">
        <ele>438.4</ele>
        <time>2023-03-04T11:32:12Z</time>
      </trkpt>
      <trkpt lat="48.16936" lon="6.54216">
        <ele>438.6</ele>
        <time>2023-03-04T11:32:33Z</time>
      </trkpt>
      <trkpt lat="48.16938" lon="6.5423">
        <ele>438.9</ele>
        <time>2023-03-04T11:32:45Z</time>
      </trkpt>
      <trkpt lat="48.16941" lon="6.54244">
        <ele>439.2</ele>
        <time>2023-03-04T11:32:53Z</time>
      </trkpt>
      <trkpt lat="48.16941" lon="6.54258">
        <ele>439.5</ele>
        <time>2023-03-04T11:33:01Z</time>
      </trkpt>
      <trkpt lat="48.16941" lon="6.54272">
        <ele>439.8</ele>
        <time>2023-03-04T11:33:09Z</time>
      </trkpt>
      <trkpt lat="48.16939" lon="6.54286">
        <ele>440.2</ele>
        <time>2023-03-04T11:33:16Z</time>
      </trkpt>
      <trkpt lat="48.16941" lon="6.54299">
        <ele>440.5</ele>
        <time>2023-03-04T11:33:25Z</time>
      </trkpt>
      <trkpt lat="48.16947" lon="6.54312">
        <ele>440.9</ele>
        <time>2023-03-04T11:33:34Z</time>
      </trkpt>
      <trkpt lat="48.1695" lon="6.54326">
        <ele>441.2</ele>
        <time>2023-03-04T11:33:40Z</time>
      </trkpt>
      <trkpt lat="48.16955" lon="6.54339">
        <ele>441.6</ele>
        <time>2023-03-04T11:33:47Z</time>
      </trkpt>
      <trkpt lat="48.1696" lon="6.54351">
        <ele>441.9</ele>
        <time>2023-03-04T11:33:55Z</time>
      </trkpt>
      <trkpt lat="48.16963" lon="6.54364">
        <ele>442.3</ele>
        <time>2023-03-04T11:34:06Z</time>
      </trkpt>
      <trkpt lat="48.16965" lon="6.54377">
        <ele>442.6</ele>
        <time>2023-03-04T11:34:15Z</time>
      </trkpt>
      <trkpt lat="48.16966" lon="6.54391">
        <ele>442.9</ele>
        <time>2023-03-04T11:34:25Z</time>
      </trkpt>
      <trkpt lat="48.16969" lon="6.54405">
        <ele>443.2</ele>
        <time>2023-03-04T11:34:35Z</time>
      </trkpt>
      <trkpt lat="48.16972" lon="6.54418">
        <ele>443.5</ele>
        <time>2023-03-04T11:34:41Z</time>
      </trkpt>
      <trkpt lat="48.16972" lon="6.54433">
        <ele>443.8</ele>
        <time>2023-03-04T11:34:47Z</time>
      </trkpt>
      <trkpt lat="48.16972" lon="6.54448">
        <ele>444</ele>
        <time>2023-03-04T11:34:55Z</time>
      </trkpt>
      <trkpt lat="48.16976" lon="6.54462">
        <ele>444</ele>
        <time>2023-03-04T11:35:02Z</time>
      </trkpt>
      <trkpt lat="48.16981" lon="6.54474">
        <ele>444</ele>
        <time>2023-03-04T11:35:09Z</time>
      </trkpt>
      <trkpt lat="48.16987" lon="6.54486">
        <ele>444</ele>
        <time>2023-03-04T11:35:17Z</time>
      </trkpt>
      <trkpt lat="48.16992" lon="6.54498">
        <ele>443.9</ele>
        <time>2023-03-04T11:35:25Z</time>
      </trkpt>
      <trkpt lat="48.16997" lon="6.54509">
        <ele>443.7</ele>
        <time>2023-03-04T11:35:31Z</time>
      </trkpt>
      <trkpt lat="48.17004" lon="6.54524">
        <ele>443.6</ele>
        <time>2023-03-04T11:35:36Z</time>
      </trkpt>
      <trkpt lat="48.17006" lon="6.54538">
        <ele>443.5</ele>
        <time>2023-03-04T11:35:43Z</time>
      </trkpt>
      <trkpt lat="48.17012" lon="6.54548">
        <ele>443.4</ele>
        <time>2023-03-04T11:35:51Z</time>
      </trkpt>
      <trkpt lat="48.17019" lon="6.54559">
        <ele>443.4</ele>
        <time>2023-03-04T11:35:58Z</time>
      </trkpt>
      <trkpt lat="48.17029" lon="6.54568">
        <ele>443.3</ele>
        <time>2023-03-04T11:36:06Z</time>
      </trkpt>
      <trkpt lat="48.17036" lon="6.54578">
        <ele>443.3</ele>
        <time>2023-03-04T11:36:11Z</time>
      </trkpt>
      <trkpt lat="48.1704" lon="6.54591">
        <ele>443.3</ele>
        <time>2023-03-04T11:36:17Z</time>
      </trkpt>
      <trkpt lat="48.17045" lon="6.54601">
        <ele>443.3</ele>
        <time>2023-03-04T11:36:23Z</time>
      </trkpt>
      <trkpt lat="48.17047" lon="6.54617">
        <ele>443.2</ele>
        <time>2023-03-04T11:36:29Z</time>
      </trkpt>
      <trkpt lat="48.17055" lon="6.54625">
        <ele>443.2</ele>
        <time>2023-03-04T11:36:37Z</time>
      </trkpt>
      <trkpt lat="48.17062" lon="6.54635">
        <ele>443.1</ele>
        <time>2023-03-04T11:36:46Z</time>
      </trkpt>
      <trkpt lat="48.1707" lon="6.54645">
        <ele>442.9</ele>
        <time>2023-03-04T11:36:53Z</time>
      </trkpt>
      <trkpt lat="48.17077" lon="6.54654">
        <ele>442.7</ele>
        <time>2023-03-04T11:37:00Z</time>
      </trkpt>
      <trkpt lat="48.17085" lon="6.54662">
        <ele>442.4</ele>
        <time>2023-03-04T11:37:07Z</time>
      </trkpt>
      <trkpt lat="48.17094" lon="6.5467">
        <ele>442.1</ele>
        <time>2023-03-04T11:37:14Z</time>
      </trkpt>
      <trkpt lat="48.17102" lon="6.54679">
        <ele>441.9</ele>
        <time>2023-03-04T11:37:20Z</time>
      </trkpt>
      <trkpt lat="48.17107" lon="6.54691">
        <ele>441.6</ele>
        <time>2023-03-04T11:37:28Z</time>
      </trkpt>
      <trkpt lat="48.17115" lon="6.547">
        <ele>441.4</ele>
        <time>2023-03-04T11:37:37Z</time>
      </trkpt>
      <trkpt lat="48.17123" lon="6.54709">
        <ele>441.1</ele>
        <time>2023-03-04T11:37:43Z</time>
      </trkpt>
      <trkpt lat="48.1713" lon="6.54717">
        <ele>440.8</ele>
        <time>2023-03-04T11:37:49Z</time>
      </trkpt>
      <trkpt lat="48.17139" lon="6.54724">
        <ele>440.5</ele>
        <time>2023-03-04T11:37:54Z</time>
      </trkpt>
      <trkpt lat="48.17146" lon="6.54734">
        <ele>440.2</ele>
        <time>2023-03-04T11:38:01Z</time>
      </trkpt>
      <trkpt lat="48.17153" lon="6.54746">
        <ele>439.9</ele>
        <time>2023-03-04T11:38:08Z</time>
      </trkpt>
      <trkpt lat="48.17159" lon="6.54756">
        <ele>439.6</ele>
        <time>2023-03-04T11:38:15Z</time>
      </trkpt>
      <trkpt lat="48.17166" lon="6.54768">
        <ele>439.3</ele>
        <time>2023-03-04T11:38:23Z</time>
      </trkpt>
      <trkpt lat="48.17174" lon="6.54775">
        <ele>439.1</ele>
        <time>2023-03-04T11:38:29Z</time>
      </trkpt>
      <trkpt lat="48.17183" lon="6.54781">
        <ele>438.8</ele>
        <time>2023-03-04T11:38:37Z</time>
      </trkpt>
      <trkpt lat="48.1719" lon="6.54791">
        <ele>438.6</ele>
        <time>2023-03-04T11:38:44Z</time>
      </trkpt>
      <trkpt lat="48.17197" lon="6.54801">
        <ele>438.4</ele>
        <time>2023-03-04T11:38:52Z</time>
      </trkpt>
      <trkpt lat="48.17204" lon="6.54812">
        <ele>438.3</ele>
        <time>2023-03-04T11:39:00Z</time>
      </trkpt>
      <trkpt lat="48.17211" lon="6.54824">
        <ele>438.1</ele>
        <time>2023-03-04T11:39:09Z</time>
      </trkpt>
      <trkpt lat="48.17217" lon="6.54834">
        <ele>438</ele>
        <time>2023-03-04T11:39:16Z</time>
      </trkpt>
      <trkpt lat="48.17222" lon="6.54846">
        <ele>438</ele>
        <time>2023-03-04T11:39:21Z</time>
      </trkpt>
      <trkpt lat="48.17228" lon="6.54858">
        <ele>437.9</ele>
        <time>2023-03-04T11:39:29Z</time>
      </trkpt>
      <trkpt lat="48.17236" lon="6.5487">
        <ele>437.8</ele>
        <time>2023-03-04T11:39:36Z</time>
      </trkpt>
      <trkpt lat="48.17242" lon="6.5488">
        <ele>437.7</ele>
        <time>2023-03-04T11:39:43Z</time>
      </trkpt>
      <trkpt lat="48.17248" lon="6.5489">
        <ele>437.6</ele>
        <time>2023-03-04T11:39:51Z</time>
      </trkpt>
      <trkpt lat="48.17254" lon="6.54899">
        <ele>437.5</ele>
        <time>2023-03-04T11:40:00Z</time>
      </trkpt>
      <trkpt lat="48.17262" lon="6.54907">
        <ele>437.3</ele>
        <time>2023-03-04T11:40:09Z</time>
      </trkpt>
      <trkpt lat="48.1727" lon="6.54916">
        <ele>437</ele>
        <time>2023-03-04T11:40:21Z</time>
      </trkpt>
      <trkpt lat="48.17279" lon="6.54922">
        <ele>436.8</ele>
        <time>2023-03-04T11:40:30Z</time>
      </trkpt>
      <trkpt lat="48.17287" lon="6.54932">
        <ele>436.5</ele>
        <time>2023-03-04T11:40:38Z</time>
      </trkpt>
      <trkpt lat="48.17295" lon="6.54941">
        <ele>436.3</ele>
        <time>2023-03-04T11:40:45Z</time>
      </trkpt>
      <trkpt lat="48.17304" lon="6.54948">
        <ele>436.1</ele>
        <time>2023-03-04T11:40:53Z</time>
      </trkpt>
      <trkpt lat="48.17313" lon="6.54955">
        <ele>435.9</ele>
        <time>2023-03-04T11:40:59Z</time>
      </trkpt>
      <trkpt lat="48.17322" lon="6.54961">
        <ele>435.7</ele>
        <time>2023-03-04T11:41:06Z</time>
      </trkpt>
      <trkpt lat="48.17329" lon="6.5497">
        <ele>435.6</ele>
        <time>2023-03-04T11:41:14Z</time>
      </trkpt>
      <trkpt lat="48.17339" lon="6.54975">
        <ele>435.5</ele>
        <time>2023-03-04T11:41:20Z</time>
      </trkpt>
      <trkpt lat="48.17348" lon="6.54979">
        <ele>435.3</ele>
        <time>2023-03-04T11:41:27Z</time>
      </trkpt>
      <trkpt lat="48.17356" lon="6.54987">
        <ele>435.1</ele>
        <time>2023-03-04T11:41:35Z</time>
      </trkpt>
      <trkpt lat="48.17365" lon="6.54994">
        <ele>434.9</ele>
        <time>2023-03-04T11:41:43Z</time>
      </trkpt>
      <trkpt lat="48.17374" lon="6.55">
        <ele>434.7</ele>
        <time>2023-03-04T11:41:53Z</time>
      </trkpt>
      <trkpt lat="48.17384" lon="6.55002">
        <ele>434.5</ele>
        <time>2023-03-04T11:42:00Z</time>
      </trkpt>
      <trkpt lat="48.17392" lon="6.55008">
        <ele>434.3</ele>
        <time>2023-03-04T11:42:07Z</time>
      </trkpt>
      <trkpt lat="48.17401" lon="6.55015">
        <ele>434.2</ele>
        <time>2023-03-04T11:42:13Z</time>
      </trkpt>
      <trkpt lat="48.1741" lon="6.55023">
        <ele>434.1</ele>
        <time>2023-03-04T11:42:21Z</time>
      </trkpt>
      <trkpt lat="48.17418" lon="6.55029">
        <ele>434</ele>
        <time>2023-03-04T11:42:32Z</time>
      </trkpt>
      <trkpt lat="48.17426" lon="6.55035">
        <ele>434</ele>
        <time>2023-03-04T11:42:41Z</time>
      </trkpt>
      <trkpt lat="48.17434" lon="6.5504">
        <ele>434</ele>
        <time>2023-03-04T11:42:48Z</time>
      </trkpt>
      <trkpt lat="48.17444" lon="6.55046">
        <ele>434.1</ele>
        <time>2023-03-04T11:42:54Z</time>
      </trkpt>
      <trkpt lat="48.17452" lon="6.55052">
        <ele>434.1</ele>
        <time>2023-03-04T11:43:03Z</time>
      </trkpt>
      <trkpt lat="48.1746" lon="6.55057">
        <ele>434.2</ele>
        <time>2023-03-04T11:43:15Z</time>
      </trkpt>
      <trkpt lat="48.1746" lon="6.55057">
        <ele>434.2</ele>
        <time>2023-03-04T11:43:22Z</time>
      </trkpt>
      <trkpt lat="48.17463" lon="6.55065">
        <ele>434.2</ele>
        <time>2023-03-04T11:43:30Z</time>
      </trkpt>
      <trkpt lat="48.17463" lon="6.55065">
        <ele>434.2</ele>
        <time>2023-03-04T11:43:34Z</time>
      </trkpt>
      <trkpt lat="48.17468" lon="6.55068">
        <ele>434.2</ele>
        <time>2023-03-04T11:43:43Z</time>
      </trkpt>
      <trkpt lat="48.17468" lon="6.55069">
        <ele>434.2</ele>
        <time>2023-03-04T11:43:45Z</time>
      </trkpt>
      <trkpt lat="48.17475" lon="6.55079">
        <ele>434.3</ele>
        <time>2023-03-04T11:43:54Z</time>
      </trkpt>
      <trkpt lat="48.17476" lon="6.55081">
        <ele>434.2</ele>
        <time>2023-03-04T11:44:00Z</time>
      </trkpt>
      <trkpt lat="48.17476" lon="6.55081">
        <ele>434.2</ele>
        <time>2023-03-04T11:44:08Z</time>
      </trkpt>
      <trkpt lat="48.17476" lon="6.55081">
        <ele>434.2</ele>
        <time>2023-03-04T11:44:09Z</time>
      </trkpt>
      <trkpt lat="48.17476" lon="6.55081">
        <ele>434.2</ele>
        <time>2023-03-04T11:44:10Z</time>
      </trkpt>
      <trkpt lat="48.17477" lon="6.55071">
        <ele>434.1</ele>
        <time>2023-03-04T11:44:21Z</time>
      </trkpt>
      <trkpt lat="48.17477" lon="6.55071">
        <ele>434.1</ele>
        <time>2023-03-04T11:44:22Z</time>
      </trkpt>
      <trkpt lat="48.17477" lon="6.55071">
        <ele>434.1</ele>
        <time>2023-03-04T11:44:23Z</time>
      </trkpt>
      <trkpt lat="48.17477" lon="6.55071">
        <ele>434.1</ele>
        <time>2023-03-04T11:44:26Z</time>
      </trkpt>
      <trkpt lat="48.17477" lon="6.55071">
        <ele>434.1</ele>
        <time>2023-03-04T11:44:27Z</time>
      </trkpt>
      <trkpt lat="48.17477" lon="6.5507">
        <ele>434.1</ele>
        <time>2023-03-04T11:44:33Z</time>
      </trkpt>
      <trkpt lat="48.17479" lon="6.55057">
        <ele>433.9</ele>
        <time>2023-03-04T11:44:41Z</time>
      </trkpt>
      <trkpt lat="48.17483" lon="6.55046">
        <ele>433.7</ele>
        <time>2023-03-04T11:44:55Z</time>
      </trkpt>
      <trkpt lat="48.17483" lon="6.55045">
        <ele>433.6</ele>
        <time>2023-03-04T11:44:58Z</time>
      </trkpt>
      <trkpt lat="48.17491" lon="6.55036">
        <ele>433.3</ele>
        <time>2023-03-04T11:45:07Z</time>
      </trkpt>
      <trkpt lat="48.17498" lon="6.55028">
        <ele>433</ele>
        <time>2023-03-04T11:45:14Z</time>
      </trkpt>
      <trkpt lat="48.17501" lon="6.55027">
        <ele>433</ele>
        <time>2023-03-04T11:45:20Z</time>
      </trkpt>
      <trkpt lat="48.17501" lon="6.55027">
        <ele>433</ele>
        <time>2023-03-04T11:45:24Z</time>
      </trkpt>
      <trkpt lat="48.17501" lon="6.55027">
        <ele>433</ele>
        <time>2023-03-04T11:45:25Z</time>
      </trkpt>
      <trkpt lat="48.17501" lon="6.55028">
        <ele>433</ele>
        <time>2023-03-04T11:45:26Z</time>
      </trkpt>
      <trkpt lat="48.17497" lon="6.55034">
        <ele>433.2</ele>
        <time>2023-03-04T11:45:35Z</time>
      </trkpt>
      <trkpt lat="48.17497" lon="6.55034">
        <ele>433.2</ele>
        <time>2023-03-04T11:45:36Z</time>
      </trkpt>
      <trkpt lat="48.17497" lon="6.55034">
        <ele>433.2</ele>
        <time>2023-03-04T11:45:37Z</time>
      </trkpt>
      <trkpt lat="48.17496" lon="6.55034">
        <ele>433.2</ele>
        <time>2023-03-04T11:45:39Z</time>
      </trkpt>
      <trkpt lat="48.17487" lon="6.55042">
        <ele>433.4</ele>
        <time>2023-03-04T11:45:47Z</time>
      </trkpt>
      <trkpt lat="48.17491" lon="6.55054">
        <ele>433.5</ele>
        <time>2023-03-04T11:45:57Z</time>
      </trkpt>
      <trkpt lat="48.17499" lon="6.55062">
        <ele>433.7</ele>
        <time>2023-03-04T11:46:05Z</time>
      </trkpt>
      <trkpt lat="48.17506" lon="6.55072">
        <ele>433.8</ele>
        <time>2023-03-04T11:46:13Z</time>
      </trkpt>
      <trkpt lat="48.1751" lon="6.55084">
        <ele>433.9</ele>
        <time>2023-03-04T11:46:21Z</time>
      </trkpt>
      <trkpt lat="48.17509" lon="6.55086">
        <ele>434</ele>
        <time>2023-03-04T11:46:25Z</time>
      </trkpt>
      <trkpt lat="48.17509" lon="6.55086">
        <ele>434</ele>
        <time>2023-03-04T11:46:50Z</time>
      </trkpt>
      <trkpt lat="48.17509" lon="6.55086">
        <ele>434</ele>
        <time>2023-03-04T11:46:52Z</time>
      </trkpt>
      <trkpt lat="48.17509" lon="6.55087">
        <ele>434</ele>
        <time>2023-03-04T11:47:01Z</time>
      </trkpt>
      <trkpt lat="48.17509" lon="6.55087">
        <ele>434</ele>
        <time>2023-03-04T11:47:02Z</time>
      </trkpt>
      <trkpt lat="48.17509" lon="6.55087">
        <ele>434</ele>
        <time>2023-03-04T11:47:23Z</time>
      </trkpt>
      <trkpt lat="48.17509" lon="6.55087">
        <ele>434</ele>
        <time>2023-03-04T11:47:24Z</time>
      </trkpt>
      <trkpt lat="48.17509" lon="6.55087">
        <ele>434</ele>
        <time>2023-03-04T11:47:57Z</time>
      </trkpt>
      <trkpt lat="48.17509" lon="6.55087">
        <ele>434</ele>
        <time>2023-03-04T11:47:58Z</time>
      </trkpt>
      <trkpt lat="48.17508" lon="6.55087">
        <ele>434</ele>
        <time>2023-03-04T11:48:47Z</time>
      </trkpt>
      <trkpt lat="48.17508" lon="6.55087">
        <ele>434</ele>
        <time>2023-03-04T11:48:48Z</time>
      </trkpt>
      <trkpt lat="48.17508" lon="6.55088">
        <ele>434</ele>
        <time>2023-03-04T11:49:26Z</time>
      </trkpt>
      <trkpt lat="48.17508" lon="6.55088">
        <ele>434</ele>
        <time>2023-03-04T11:49:27Z</time>
      </trkpt>
      <trkpt lat="48.17508" lon="6.55088">
        <ele>434</ele>
        <time>2023-03-04T11:49:29Z</time>
      </trkpt>
      <trkpt lat="48.17508" lon="6.55088">
        <ele>434</ele>
        <time>2023-03-04T11:49:30Z</time>
      </trkpt>
      <trkpt lat="48.17508" lon="6.55088">
        <ele>434</ele>
        <time>2023-03-04T11:49:48Z</time>
      </trkpt>
      <trkpt lat="48.17508" lon="6.55088">
        <ele>434</ele>
        <time>2023-03-04T11:49:49Z</time>
      </trkpt>
      <trkpt lat="48.17508" lon="6.55088">
        <ele>434</ele>
        <time>2023-03-04T11:49:55Z</time>
      </trkpt>
      <trkpt lat="48.17508" lon="6.55088">
        <ele>434</ele>
        <time>2023-03-04T11:49:56Z</time>
      </trkpt>
      <trkpt lat="48.17508" lon="6.55088">
        <ele>434</ele>
        <time>2023-03-04T11:50:05Z</time>
      </trkpt>
      <trkpt lat="48.17508" lon="6.55088">
        <ele>434</ele>
        <time>2023-03-04T11:50:06Z</time>
      </trkpt>
      <trkpt lat="48.17508" lon="6.55088">
        <ele>434</ele>
        <time>2023-03-04T11:50:09Z</time>
      </trkpt>
      <trkpt lat="48.17508" lon="6.55088">
        <ele>434</ele>
        <time>2023-03-04T11:50:10Z</time>
      </trkpt>
      <trkpt lat="48.17508" lon="6.55088">
        <ele>434</ele>
        <time>2023-03-04T11:50:11Z</time>
      </trkpt>
      <trkpt lat="48.17509" lon="6.55089">
        <ele>434</ele>
        <time>2023-03-04T11:50:17Z</time>
      </trkpt>
      <trkpt lat="48.17509" lon="6.55089">
        <ele>434</ele>
        <time>2023-03-04T11:50:18Z</time>
      </trkpt>
      <trkpt lat="48.17501" lon="6.55093">
        <ele>434.1</ele>
        <time>2023-03-04T11:50:31Z</time>
      </trkpt>
      <trkpt lat="48.17501" lon="6.55094">
        <ele>434.1</ele>
        <time>2023-03-04T11:50:32Z</time>
      </trkpt>
      <trkpt lat="48.17499" lon="6.55094">
        <ele>434.1</ele>
        <time>2023-03-04T11:50:36Z</time>
      </trkpt>
      <trkpt lat="48.175" lon="6.55094">
        <ele>434.1</ele>
        <time>2023-03-04T11:50:37Z</time>
      </trkpt>
      <trkpt lat="48.17492" lon="6.55104">
        <ele>434.2</ele>
        <time>2023-03-04T11:50:52Z</time>
      </trkpt>
      <trkpt lat="48.17483" lon="6.55101">
        <ele>434.3</ele>
        <time>2023-03-04T11:51:00Z</time>
      </trkpt>
      <trkpt lat="48.17481" lon="6.55102">
        <ele>434</ele>
        <time>2023-03-04T11:51:06Z</time>
      </trkpt>
      <trkpt lat="48.17481" lon="6.55103">
        <ele>434</ele>
        <time>2023-03-04T11:51:08Z</time>
      </trkpt>
      <trkpt lat="48.17479" lon="6.55116">
        <ele>433.6</ele>
        <time>2023-03-04T11:51:17Z</time>
      </trkpt>
      <trkpt lat="48.17481" lon="6.55131">
        <ele>433</ele>
        <time>2023-03-04T11:51:24Z</time>
      </trkpt>
      <trkpt lat="48.1748" lon="6.55145">
        <ele>432.3</ele>
        <time>2023-03-04T11:51:32Z</time>
      </trkpt>
      <trkpt lat="48.17483" lon="6.55158">
        <ele>431.6</ele>
        <time>2023-03-04T11:51:44Z</time>
      </trkpt>
      <trkpt lat="48.17484" lon="6.55172">
        <ele>430.9</ele>
        <time>2023-03-04T11:51:53Z</time>
      </trkpt>
      <trkpt lat="48.17489" lon="6.55182">
        <ele>430.3</ele>
        <time>2023-03-04T11:52:01Z</time>
      </trkpt>
      <trkpt lat="48.17492" lon="6.55195">
        <ele>429.7</ele>
        <time>2023-03-04T11:52:09Z</time>
      </trkpt>
      <trkpt lat="48.17495" lon="6.55209">
        <ele>429.2</ele>
        <time>2023-03-04T11:52:19Z</time>
      </trkpt>
      <trkpt lat="48.17499" lon="6.55223">
        <ele>428.7</ele>
        <time>2023-03-04T11:52:28Z</time>
      </trkpt>
      <trkpt lat="48.17504" lon="6.55235">
        <ele>428.3</ele>
        <time>2023-03-04T11:52:35Z</time>
      </trkpt>
      <trkpt lat="48.17503" lon="6.55249">
        <ele>427.9</ele>
        <time>2023-03-04T11:52:43Z</time>
      </trkpt>
      <trkpt lat="48.17506" lon="6.55264">
        <ele>427.5</ele>
        <time>2023-03-04T11:52:52Z</time>
      </trkpt>
      <trkpt lat="48.17508" lon="6.55278">
        <ele>427.1</ele>
        <time>2023-03-04T11:53:00Z</time>
      </trkpt>
      <trkpt lat="48.17515" lon="6.55288">
        <ele>426.8</ele>
        <time>2023-03-04T11:53:06Z</time>
      </trkpt>
      <trkpt lat="48.1752" lon="6.553">
        <ele>426.4</ele>
        <time>2023-03-04T11:53:12Z</time>
      </trkpt>
      <trkpt lat="48.17521" lon="6.55313">
        <ele>426.1</ele>
        <time>2023-03-04T11:53:21Z</time>
      </trkpt>
      <trkpt lat="48.17525" lon="6.55327">
        <ele>425.8</ele>
        <time>2023-03-04T11:53:31Z</time>
      </trkpt>
      <trkpt lat="48.17525" lon="6.55341">
        <ele>425.4</ele>
        <time>2023-03-04T11:53:41Z</time>
      </trkpt>
      <trkpt lat="48.1753" lon="6.55353">
        <ele>425.1</ele>
        <time>2023-03-04T11:53:45Z</time>
      </trkpt>
      <trkpt lat="48.17529" lon="6.55369">
        <ele>424.7</ele>
        <time>2023-03-04T11:53:50Z</time>
      </trkpt>
      <trkpt lat="48.17532" lon="6.55382">
        <ele>424.4</ele>
        <time>2023-03-04T11:53:56Z</time>
      </trkpt>
      <trkpt lat="48.17536" lon="6.55396">
        <ele>424</ele>
        <time>2023-03-04T11:54:05Z</time>
      </trkpt>
      <trkpt lat="48.17544" lon="6.55407">
        <ele>423.6</ele>
        <time>2023-03-04T11:54:10Z</time>
      </trkpt>
      <trkpt lat="48.17547" lon="6.55421">
        <ele>423.3</ele>
        <time>2023-03-04T11:54:18Z</time>
      </trkpt>
      <trkpt lat="48.17544" lon="6.55434">
        <ele>422.9</ele>
        <time>2023-03-04T11:54:26Z</time>
      </trkpt>
      <trkpt lat="48.17544" lon="6.55449">
        <ele>422.5</ele>
        <time>2023-03-04T11:54:33Z</time>
      </trkpt>
      <trkpt lat="48.17544" lon="6.55465">
        <ele>422.2</ele>
        <time>2023-03-04T11:54:40Z</time>
      </trkpt>
      <trkpt lat="48.17542" lon="6.55479">
        <ele>422</ele>
        <time>2023-03-04T11:54:47Z</time>
      </trkpt>
      <trkpt lat="48.1754" lon="6.55492">
        <ele>421.8</ele>
        <time>2023-03-04T11:54:54Z</time>
      </trkpt>
      <trkpt lat="48.1754" lon="6.55506">
        <ele>421.7</ele>
        <time>2023-03-04T11:55:01Z</time>
      </trkpt>
      <trkpt lat="48.17539" lon="6.5552">
        <ele>421.6</ele>
        <time>2023-03-04T11:55:10Z</time>
      </trkpt>
      <trkpt lat="48.17542" lon="6.55534">
        <ele>421.5</ele>
        <time>2023-03-04T11:55:18Z</time>
      </trkpt>
      <trkpt lat="48.17542" lon="6.55549">
        <ele>421.5</ele>
        <time>2023-03-04T11:55:26Z</time>
      </trkpt>
      <trkpt lat="48.17537" lon="6.55562">
        <ele>421.5</ele>
        <time>2023-03-04T11:55:33Z</time>
      </trkpt>
      <trkpt lat="48.17537" lon="6.55576">
        <ele>421.6</ele>
        <time>2023-03-04T11:55:39Z</time>
      </trkpt>
      <trkpt lat="48.17536" lon="6.5559">
        <ele>421.7</ele>
        <time>2023-03-04T11:55:49Z</time>
      </trkpt>
      <trkpt lat="48.17534" lon="6.55605">
        <ele>421.8</ele>
        <time>2023-03-04T11:55:59Z</time>
      </trkpt>
      <trkpt lat="48.17533" lon="6.55619">
        <ele>422</ele>
        <time>2023-03-04T11:56:06Z</time>
      </trkpt>
      <trkpt lat="48.17531" lon="6.55634">
        <ele>422.2</ele>
        <time>2023-03-04T11:56:14Z</time>
      </trkpt>
      <trkpt lat="48.17528" lon="6.55648">
        <ele>422.4</ele>
        <time>2023-03-04T11:56:23Z</time>
      </trkpt>
      <trkpt lat="48.17529" lon="6.55663">
        <ele>422.6</ele>
        <time>2023-03-04T11:56:32Z</time>
      </trkpt>
      <trkpt lat="48.17528" lon="6.55677">
        <ele>422.6</ele>
        <time>2023-03-04T11:56:41Z</time>
      </trkpt>
      <trkpt lat="48.17523" lon="6.5569">
        <ele>422.6</ele>
        <time>2023-03-04T11:56:49Z</time>
      </trkpt>
      <trkpt lat="48.17524" lon="6.55705">
        <ele>422.5</ele>
        <time>2023-03-04T11:57:00Z</time>
      </trkpt>
      <trkpt lat="48.17526" lon="6.55719">
        <ele>422.5</ele>
        <time>2023-03-04T11:57:07Z</time>
      </trkpt>
      <trkpt lat="48.17527" lon="6.55733">
        <ele>422.5</ele>
        <time>2023-03-04T11:57:12Z</time>
      </trkpt>
      <trkpt lat="48.17524" lon="6.55748">
        <ele>422.5</ele>
        <time>2023-03-04T11:57:20Z</time>
      </trkpt>
      <trkpt lat="48.17523" lon="6.55763">
        <ele>422.5</ele>
        <time>2023-03-04T11:57:28Z</time>
      </trkpt>
      <trkpt lat="48.17526" lon="6.5578">
        <ele>422.6</ele>
        <time>2023-03-04T11:57:34Z</time>
      </trkpt>
      <trkpt lat="48.17526" lon="6.55793">
        <ele>422.6</ele>
        <time>2023-03-04T11:57:41Z</time>
      </trkpt>
      <trkpt lat="48.17526" lon="6.55809">
        <ele>422.5</ele>
        <time>2023-03-04T11:57:49Z</time>
      </trkpt>
      <trkpt lat="48.17526" lon="6.55822">
        <ele>422.4</ele>
        <time>2023-03-04T11:57:58Z</time>
      </trkpt>
      <trkpt lat="48.17526" lon="6.55837">
        <ele>422.2</ele>
        <time>2023-03-04T11:58:05Z</time>
      </trkpt>
      <trkpt lat="48.17527" lon="6.55851">
        <ele>422</ele>
        <time>2023-03-04T11:58:15Z</time>
      </trkpt>
      <trkpt lat="48.17529" lon="6.55866">
        <ele>421.7</ele>
        <time>2023-03-04T11:58:26Z</time>
      </trkpt>
      <trkpt lat="48.17527" lon="6.55881">
        <ele>421.4</ele>
        <time>2023-03-04T11:58:33Z</time>
      </trkpt>
      <trkpt lat="48.17526" lon="6.55896">
        <ele>421.2</ele>
        <time>2023-03-04T11:58:39Z</time>
      </trkpt>
      <trkpt lat="48.17531" lon="6.55909">
        <ele>421</ele>
        <time>2023-03-04T11:58:46Z</time>
      </trkpt>
      <trkpt lat="48.17527" lon="6.55925">
        <ele>420.7</ele>
        <time>2023-03-04T11:58:50Z</time>
      </trkpt>
      <trkpt lat="48.17526" lon="6.55939">
        <ele>420.5</ele>
        <time>2023-03-04T11:58:56Z</time>
      </trkpt>
      <trkpt lat="48.17522" lon="6.55953">
        <ele>420.3</ele>
        <time>2023-03-04T11:59:00Z</time>
      </trkpt>
      <trkpt lat="48.17525" lon="6.55965">
        <ele>420.1</ele>
        <time>2023-03-04T11:59:06Z</time>
      </trkpt>
      <trkpt lat="48.1753" lon="6.55979">
        <ele>419.9</ele>
        <time>2023-03-04T11:59:13Z</time>
      </trkpt>
      <trkpt lat="48.17532" lon="6.55993">
        <ele>419.9</ele>
        <time>2023-03-04T11:59:19Z</time>
      </trkpt>
      <trkpt lat="48.17532" lon="6.56006">
        <ele>419.8</ele>
        <time>2023-03-04T11:59:26Z</time>
      </trkpt>
      <trkpt lat="48.17531" lon="6.56019">
        <ele>419.8</ele>
        <time>2023-03-04T11:59:37Z</time>
      </trkpt>
      <trkpt lat="48.17532" lon="6.56019">
        <ele>419.8</ele>
        <time>2023-03-04T11:59:38Z</time>
      </trkpt>
      <trkpt lat="48.17532" lon="6.56019">
        <ele>419.8</ele>
        <time>2023-03-04T11:59:39Z</time>
      </trkpt>
      <trkpt lat="48.17532" lon="6.5602">
        <ele>419.8</ele>
        <time>2023-03-04T11:59:40Z</time>
      </trkpt>
      <trkpt lat="48.17531" lon="6.56033">
        <ele>419.8</ele>
        <time>2023-03-04T11:59:50Z</time>
      </trkpt>
      <trkpt lat="48.17521" lon="6.56039">
        <ele>420</ele>
        <time>2023-03-04T11:59:56Z</time>
      </trkpt>
      <trkpt lat="48.17511" lon="6.56045">
        <ele>420.1</ele>
        <time>2023-03-04T12:00:05Z</time>
      </trkpt>
      <trkpt lat="48.17502" lon="6.56048">
        <ele>420.4</ele>
        <time>2023-03-04T12:00:11Z</time>
      </trkpt>
      <trkpt lat="48.17493" lon="6.56055">
        <ele>420.7</ele>
        <time>2023-03-04T12:00:18Z</time>
      </trkpt>
      <trkpt lat="48.17484" lon="6.5606">
        <ele>421</ele>
        <time>2023-03-04T12:00:23Z</time>
      </trkpt>
      <trkpt lat="48.17476" lon="6.56067">
        <ele>421.4</ele>
        <time>2023-03-04T12:00:34Z</time>
      </trkpt>
      <trkpt lat="48.1747" lon="6.56079">
        <ele>421.8</ele>
        <time>2023-03-04T12:00:42Z</time>
      </trkpt>
      <trkpt lat="48.17464" lon="6.56093">
        <ele>422.5</ele>
        <time>2023-03-04T12:00:48Z</time>
      </trkpt>
      <trkpt lat="48.17461" lon="6.56106">
        <ele>423.1</ele>
        <time>2023-03-04T12:00:57Z</time>
      </trkpt>
      <trkpt lat="48.17454" lon="6.56117">
        <ele>423.7</ele>
        <time>2023-03-04T12:01:07Z</time>
      </trkpt>
      <trkpt lat="48.17452" lon="6.56124">
        <ele>424</ele>
        <time>2023-03-04T12:01:16Z</time>
      </trkpt>
      <trkpt lat="48.17452" lon="6.56124">
        <ele>424</ele>
        <time>2023-03-04T12:01:17Z</time>
      </trkpt>
      <trkpt lat="48.17449" lon="6.56138">
        <ele>424.5</ele>
        <time>2023-03-04T12:01:25Z</time>
      </trkpt>
      <trkpt lat="48.17442" lon="6.56149">
        <ele>425.1</ele>
        <time>2023-03-04T12:01:56Z</time>
      </trkpt>
      <trkpt lat="48.17439" lon="6.56162">
        <ele>425.9</ele>
        <time>2023-03-04T12:02:05Z</time>
      </trkpt>
      <trkpt lat="48.17436" lon="6.56175">
        <ele>426.2</ele>
        <time>2023-03-04T12:02:14Z</time>
      </trkpt>
      <trkpt lat="48.17434" lon="6.56189">
        <ele>426.4</ele>
        <time>2023-03-04T12:02:24Z</time>
      </trkpt>
      <trkpt lat="48.17427" lon="6.56199">
        <ele>426.6</ele>
        <time>2023-03-04T12:02:32Z</time>
      </trkpt>
      <trkpt lat="48.17424" lon="6.56212">
        <ele>426.6</ele>
        <time>2023-03-04T12:02:43Z</time>
      </trkpt>
      <trkpt lat="48.17421" lon="6.56225">
        <ele>426.5</ele>
        <time>2023-03-04T12:02:55Z</time>
      </trkpt>
      <trkpt lat="48.17418" lon="6.56239">
        <ele>426.2</ele>
        <time>2023-03-04T12:03:04Z</time>
      </trkpt>
      <trkpt lat="48.17415" lon="6.56253">
        <ele>425.8</ele>
        <time>2023-03-04T12:03:13Z</time>
      </trkpt>
      <trkpt lat="48.17411" lon="6.56265">
        <ele>425.5</ele>
        <time>2023-03-04T12:03:21Z</time>
      </trkpt>
      <trkpt lat="48.17404" lon="6.56275">
        <ele>425.1</ele>
        <time>2023-03-04T12:03:30Z</time>
      </trkpt>
      <trkpt lat="48.17396" lon="6.56286">
        <ele>424.8</ele>
        <time>2023-03-04T12:03:39Z</time>
      </trkpt>
      <trkpt lat="48.17392" lon="6.56299">
        <ele>424.6</ele>
        <time>2023-03-04T12:03:46Z</time>
      </trkpt>
      <trkpt lat="48.1739" lon="6.56313">
        <ele>424.4</ele>
        <time>2023-03-04T12:03:54Z</time>
      </trkpt>
      <trkpt lat="48.17393" lon="6.56327">
        <ele>424.3</ele>
        <time>2023-03-04T12:04:01Z</time>
      </trkpt>
      <trkpt lat="48.17398" lon="6.56341">
        <ele>424</ele>
        <time>2023-03-04T12:04:05Z</time>
      </trkpt>
      <trkpt lat="48.17407" lon="6.5635">
        <ele>423.9</ele>
        <time>2023-03-04T12:04:10Z</time>
      </trkpt>
      <trkpt lat="48.17411" lon="6.56362">
        <ele>423.8</ele>
        <time>2023-03-04T12:04:17Z</time>
      </trkpt>
      <trkpt lat="48.17416" lon="6.56376">
        <ele>423.6</ele>
        <time>2023-03-04T12:04:23Z</time>
      </trkpt>
      <trkpt lat="48.1742" lon="6.56388">
        <ele>423.4</ele>
        <time>2023-03-04T12:04:30Z</time>
      </trkpt>
      <trkpt lat="48.17422" lon="6.56402">
        <ele>423.2</ele>
        <time>2023-03-04T12:04:40Z</time>
      </trkpt>
      <trkpt lat="48.17428" lon="6.56413">
        <ele>422.9</ele>
        <time>2023-03-04T12:04:50Z</time>
      </trkpt>
      <trkpt lat="48.17435" lon="6.56422">
        <ele>422.6</ele>
        <time>2023-03-04T12:04:59Z</time>
      </trkpt>
      <trkpt lat="48.17443" lon="6.56431">
        <ele>422.2</ele>
        <time>2023-03-04T12:05:08Z</time>
      </trkpt>
      <trkpt lat="48.17452" lon="6.56438">
        <ele>421.8</ele>
        <time>2023-03-04T12:05:14Z</time>
      </trkpt>
      <trkpt lat="48.17461" lon="6.56444">
        <ele>421.4</ele>
        <time>2023-03-04T12:05:19Z</time>
      </trkpt>
      <trkpt lat="48.1747" lon="6.56451">
        <ele>420.9</ele>
        <time>2023-03-04T12:05:24Z</time>
      </trkpt>
      <trkpt lat="48.17478" lon="6.56458">
        <ele>420.5</ele>
        <time>2023-03-04T12:05:30Z</time>
      </trkpt>
      <trkpt lat="48.17487" lon="6.56466">
        <ele>420.3</ele>
        <time>2023-03-04T12:05:36Z</time>
      </trkpt>
      <trkpt lat="48.17496" lon="6.56474">
        <ele>420.1</ele>
        <time>2023-03-04T12:05:45Z</time>
      </trkpt>
      <trkpt lat="48.17504" lon="6.56481">
        <ele>419.9</ele>
        <time>2023-03-04T12:05:51Z</time>
      </trkpt>
      <trkpt lat="48.1751" lon="6.56491">
        <ele>419.9</ele>
        <time>2023-03-04T12:06:04Z</time>
      </trkpt>
      <trkpt lat="48.17517" lon="6.565">
        <ele>419.8</ele>
        <time>2023-03-04T12:06:11Z</time>
      </trkpt>
      <trkpt lat="48.17525" lon="6.56508">
        <ele>419.8</ele>
        <time>2023-03-04T12:06:16Z</time>
      </trkpt>
      <trkpt lat="48.17533" lon="6.56516">
        <ele>419.8</ele>
        <time>2023-03-04T12:06:24Z</time>
      </trkpt>
      <trkpt lat="48.17541" lon="6.56524">
        <ele>419.8</ele>
        <time>2023-03-04T12:06:33Z</time>
      </trkpt>
      <trkpt lat="48.1755" lon="6.56532">
        <ele>419.7</ele>
        <time>2023-03-04T12:06:39Z</time>
      </trkpt>
      <trkpt lat="48.17558" lon="6.56538">
        <ele>419.5</ele>
        <time>2023-03-04T12:06:45Z</time>
      </trkpt>
      <trkpt lat="48.17567" lon="6.56543">
        <ele>419.3</ele>
        <time>2023-03-04T12:06:50Z</time>
      </trkpt>
      <trkpt lat="48.17576" lon="6.56549">
        <ele>419.1</ele>
        <time>2023-03-04T12:06:57Z</time>
      </trkpt>
      <trkpt lat="48.17584" lon="6.56556">
        <ele>418.8</ele>
        <time>2023-03-04T12:07:03Z</time>
      </trkpt>
      <trkpt lat="48.17592" lon="6.56564">
        <ele>418.5</ele>
        <time>2023-03-04T12:07:12Z</time>
      </trkpt>
      <trkpt lat="48.176" lon="6.56574">
        <ele>418.3</ele>
        <time>2023-03-04T12:07:22Z</time>
      </trkpt>
      <trkpt lat="48.17607" lon="6.56582">
        <ele>418.1</ele>
        <time>2023-03-04T12:07:33Z</time>
      </trkpt>
      <trkpt lat="48.17615" lon="6.5659">
        <ele>417.9</ele>
        <time>2023-03-04T12:07:43Z</time>
      </trkpt>
      <trkpt lat="48.17623" lon="6.566">
        <ele>417.8</ele>
        <time>2023-03-04T12:07:55Z</time>
      </trkpt>
      <trkpt lat="48.17631" lon="6.56609">
        <ele>417.9</ele>
        <time>2023-03-04T12:08:03Z</time>
      </trkpt>
      <trkpt lat="48.1764" lon="6.56618">
        <ele>417.9</ele>
        <time>2023-03-04T12:08:10Z</time>
      </trkpt>
      <trkpt lat="48.17648" lon="6.56623">
        <ele>417.9</ele>
        <time>2023-03-04T12:08:17Z</time>
      </trkpt>
      <trkpt lat="48.17653" lon="6.56636">
        <ele>417.9</ele>
        <time>2023-03-04T12:08:26Z</time>
      </trkpt>
      <trkpt lat="48.17655" lon="6.5665">
        <ele>417.7</ele>
        <time>2023-03-04T12:08:31Z</time>
      </trkpt>
      <trkpt lat="48.17662" lon="6.56661">
        <ele>417.6</ele>
        <time>2023-03-04T12:08:37Z</time>
      </trkpt>
      <trkpt lat="48.17669" lon="6.5667">
        <ele>417.3</ele>
        <time>2023-03-04T12:08:42Z</time>
      </trkpt>
      <trkpt lat="48.17675" lon="6.56681">
        <ele>417.1</ele>
        <time>2023-03-04T12:08:49Z</time>
      </trkpt>
      <trkpt lat="48.17683" lon="6.56693">
        <ele>416.8</ele>
        <time>2023-03-04T12:09:02Z</time>
      </trkpt>
      <trkpt lat="48.17693" lon="6.56699">
        <ele>416.6</ele>
        <time>2023-03-04T12:09:07Z</time>
      </trkpt>
      <trkpt lat="48.17703" lon="6.56706">
        <ele>416.5</ele>
        <time>2023-03-04T12:09:15Z</time>
      </trkpt>
      <trkpt lat="48.17712" lon="6.56711">
        <ele>416.5</ele>
        <time>2023-03-04T12:09:21Z</time>
      </trkpt>
      <trkpt lat="48.17719" lon="6.56718">
        <ele>416.6</ele>
        <time>2023-03-04T12:09:34Z</time>
      </trkpt>
      <trkpt lat="48.17729" lon="6.56725">
        <ele>416.7</ele>
        <time>2023-03-04T12:09:43Z</time>
      </trkpt>
      <trkpt lat="48.17739" lon="6.56727">
        <ele>416.9</ele>
        <time>2023-03-04T12:09:48Z</time>
      </trkpt>
      <trkpt lat="48.17749" lon="6.56728">
        <ele>417.1</ele>
        <time>2023-03-04T12:09:55Z</time>
      </trkpt>
      <trkpt lat="48.17759" lon="6.56727">
        <ele>417.4</ele>
        <time>2023-03-04T12:10:02Z</time>
      </trkpt>
      <trkpt lat="48.17768" lon="6.56721">
        <ele>417.6</ele>
        <time>2023-03-04T12:10:07Z</time>
      </trkpt>
      <trkpt lat="48.17776" lon="6.56713">
        <ele>417.9</ele>
        <time>2023-03-04T12:10:15Z</time>
      </trkpt>
      <trkpt lat="48.17783" lon="6.56704">
        <ele>418.1</ele>
        <time>2023-03-04T12:10:24Z</time>
      </trkpt>
      <trkpt lat="48.17792" lon="6.56698">
        <ele>418.3</ele>
        <time>2023-03-04T12:10:31Z</time>
      </trkpt>
      <trkpt lat="48.17797" lon="6.56686">
        <ele>418.3</ele>
        <time>2023-03-04T12:10:39Z</time>
      </trkpt>
      <trkpt lat="48.17801" lon="6.56672">
        <ele>418.3</ele>
        <time>2023-03-04T12:11:01Z</time>
      </trkpt>
      <trkpt lat="48.17794" lon="6.56662">
        <ele>418.1</ele>
        <time>2023-03-04T12:11:12Z</time>
      </trkpt>
      <trkpt lat="48.17785" lon="6.56658">
        <ele>417.7</ele>
        <time>2023-03-04T12:11:18Z</time>
      </trkpt>
      <trkpt lat="48.17777" lon="6.56652">
        <ele>417.3</ele>
        <time>2023-03-04T12:11:27Z</time>
      </trkpt>
      <trkpt lat="48.17769" lon="6.56644">
        <ele>416.7</ele>
        <time>2023-03-04T12:11:38Z</time>
      </trkpt>
      <trkpt lat="48.17761" lon="6.56637">
        <ele>416</ele>
        <time>2023-03-04T12:11:44Z</time>
      </trkpt>
      <trkpt lat="48.17768" lon="6.56647">
        <ele>415.3</ele>
        <time>2023-03-04T12:12:09Z</time>
      </trkpt>
      <trkpt lat="48.17776" lon="6.56653">
        <ele>414.5</ele>
        <time>2023-03-04T12:12:22Z</time>
      </trkpt>
      <trkpt lat="48.17784" lon="6.56664">
        <ele>413.7</ele>
        <time>2023-03-04T12:12:31Z</time>
      </trkpt>
      <trkpt lat="48.17794" lon="6.56663">
        <ele>413</ele>
        <time>2023-03-04T12:12:40Z</time>
      </trkpt>
      <trkpt lat="48.17803" lon="6.56663">
        <ele>411.9</ele>
        <time>2023-03-04T12:12:46Z</time>
      </trkpt>
      <trkpt lat="48.17813" lon="6.56669">
        <ele>410.9</ele>
        <time>2023-03-04T12:12:54Z</time>
      </trkpt>
      <trkpt lat="48.17821" lon="6.56678">
        <ele>410</ele>
        <time>2023-03-04T12:13:00Z</time>
      </trkpt>
      <trkpt lat="48.17824" lon="6.56692">
        <ele>409.2</ele>
        <time>2023-03-04T12:13:07Z</time>
      </trkpt>
      <trkpt lat="48.17824" lon="6.56706">
        <ele>408.7</ele>
        <time>2023-03-04T12:13:17Z</time>
      </trkpt>
      <trkpt lat="48.17822" lon="6.5672">
        <ele>408.2</ele>
        <time>2023-03-04T12:13:26Z</time>
      </trkpt>
      <trkpt lat="48.17825" lon="6.56736">
        <ele>407.8</ele>
        <time>2023-03-04T12:13:34Z</time>
      </trkpt>
      <trkpt lat="48.17831" lon="6.56749">
        <ele>407.5</ele>
        <time>2023-03-04T12:13:40Z</time>
      </trkpt>
      <trkpt lat="48.17834" lon="6.56761">
        <ele>407.3</ele>
        <time>2023-03-04T12:13:46Z</time>
      </trkpt>
      <trkpt lat="48.17837" lon="6.56776">
        <ele>407.1</ele>
        <time>2023-03-04T12:13:54Z</time>
      </trkpt>
      <trkpt lat="48.17837" lon="6.5679">
        <ele>407</ele>
        <time>2023-03-04T12:14:03Z</time>
      </trkpt>
      <trkpt lat="48.17832" lon="6.56804">
        <ele>407</ele>
        <time>2023-03-04T12:14:10Z</time>
      </trkpt>
      <trkpt lat="48.17827" lon="6.56816">
        <ele>407</ele>
        <time>2023-03-04T12:14:22Z</time>
      </trkpt>
      <trkpt lat="48.17826" lon="6.5683">
        <ele>407</ele>
        <time>2023-03-04T12:14:28Z</time>
      </trkpt>
      <trkpt lat="48.17825" lon="6.56843">
        <ele>407</ele>
        <time>2023-03-04T12:14:37Z</time>
      </trkpt>
      <trkpt lat="48.1782" lon="6.56855">
        <ele>406.9</ele>
        <time>2023-03-04T12:14:44Z</time>
      </trkpt>
      <trkpt lat="48.17816" lon="6.56867">
        <ele>406.8</ele>
        <time>2023-03-04T12:14:54Z</time>
      </trkpt>
      <trkpt lat="48.17818" lon="6.56881">
        <ele>406.8</ele>
        <time>2023-03-04T12:15:05Z</time>
      </trkpt>
      <trkpt lat="48.17818" lon="6.56896">
        <ele>406.9</ele>
        <time>2023-03-04T12:15:11Z</time>
      </trkpt>
      <trkpt lat="48.17816" lon="6.56909">
        <ele>406.9</ele>
        <time>2023-03-04T12:15:19Z</time>
      </trkpt>
      <trkpt lat="48.17817" lon="6.56924">
        <ele>406.9</ele>
        <time>2023-03-04T12:15:32Z</time>
      </trkpt>
      <trkpt lat="48.17813" lon="6.56937">
        <ele>407</ele>
        <time>2023-03-04T12:15:39Z</time>
      </trkpt>
      <trkpt lat="48.17812" lon="6.5695">
        <ele>406.9</ele>
        <time>2023-03-04T12:15:45Z</time>
      </trkpt>
      <trkpt lat="48.17809" lon="6.56963">
        <ele>406.8</ele>
        <time>2023-03-04T12:15:54Z</time>
      </trkpt>
      <trkpt lat="48.17811" lon="6.56977">
        <ele>406.7</ele>
        <time>2023-03-04T12:16:01Z</time>
      </trkpt>
      <trkpt lat="48.17814" lon="6.5699">
        <ele>406.6</ele>
        <time>2023-03-04T12:16:08Z</time>
      </trkpt>
      <trkpt lat="48.17816" lon="6.57004">
        <ele>406.4</ele>
        <time>2023-03-04T12:16:18Z</time>
      </trkpt>
      <trkpt lat="48.17814" lon="6.57019">
        <ele>406.1</ele>
        <time>2023-03-04T12:16:28Z</time>
      </trkpt>
      <trkpt lat="48.17816" lon="6.57033">
        <ele>405.5</ele>
        <time>2023-03-04T12:16:40Z</time>
      </trkpt>
      <trkpt lat="48.1782" lon="6.57046">
        <ele>404.8</ele>
        <time>2023-03-04T12:16:47Z</time>
      </trkpt>
      <trkpt lat="48.17819" lon="6.5706">
        <ele>403.9</ele>
        <time>2023-03-04T12:16:55Z</time>
      </trkpt>
      <trkpt lat="48.17818" lon="6.57074">
        <ele>402.8</ele>
        <time>2023-03-04T12:17:02Z</time>
      </trkpt>
      <trkpt lat="48.17812" lon="6.57085">
        <ele>401.8</ele>
        <time>2023-03-04T12:17:07Z</time>
      </trkpt>
      <trkpt lat="48.17807" lon="6.57097">
        <ele>401</ele>
        <time>2023-03-04T12:17:15Z</time>
      </trkpt>
      <trkpt lat="48.17799" lon="6.57107">
        <ele>400.1</ele>
        <time>2023-03-04T12:17:21Z</time>
      </trkpt>
      <trkpt lat="48.17796" lon="6.57122">
        <ele>399.2</ele>
        <time>2023-03-04T12:17:30Z</time>
      </trkpt>
      <trkpt lat="48.17802" lon="6.57133">
        <ele>398.4</ele>
        <time>2023-03-04T12:17:38Z</time>
      </trkpt>
      <trkpt lat="48.17805" lon="6.57146">
        <ele>397.4</ele>
        <time>2023-03-04T12:17:47Z</time>
      </trkpt>
      <trkpt lat="48.17797" lon="6.57154">
        <ele>396.3</ele>
        <time>2023-03-04T12:17:55Z</time>
      </trkpt>
      <trkpt lat="48.17793" lon="6.57166">
        <ele>395.2</ele>
        <time>2023-03-04T12:18:09Z</time>
      </trkpt>
      <trkpt lat="48.17791" lon="6.57181">
        <ele>394.2</ele>
        <time>2023-03-04T12:18:23Z</time>
      </trkpt>
      <trkpt lat="48.17792" lon="6.57194">
        <ele>393.6</ele>
        <time>2023-03-04T12:18:38Z</time>
      </trkpt>
      <trkpt lat="48.17788" lon="6.57207">
        <ele>393.1</ele>
        <time>2023-03-04T12:18:47Z</time>
      </trkpt>
      <trkpt lat="48.17788" lon="6.5721">
        <ele>393</ele>
        <time>2023-03-04T12:18:50Z</time>
      </trkpt>
      <trkpt lat="48.17788" lon="6.5721">
        <ele>393</ele>
        <time>2023-03-04T12:18:51Z</time>
      </trkpt>
      <trkpt lat="48.17779" lon="6.57213">
        <ele>392.3</ele>
        <time>2023-03-04T12:19:03Z</time>
      </trkpt>
      <trkpt lat="48.17778" lon="6.57213">
        <ele>392.4</ele>
        <time>2023-03-04T12:19:06Z</time>
      </trkpt>
      <trkpt lat="48.17777" lon="6.57212">
        <ele>392.4</ele>
        <time>2023-03-04T12:19:07Z</time>
      </trkpt>
      <trkpt lat="48.17767" lon="6.57212">
        <ele>393</ele>
        <time>2023-03-04T12:19:21Z</time>
      </trkpt>
      <trkpt lat="48.17756" lon="6.57209">
        <ele>394</ele>
        <time>2023-03-04T12:19:31Z</time>
      </trkpt>
      <trkpt lat="48.17749" lon="6.57206">
        <ele>394.8</ele>
        <time>2023-03-04T12:19:44Z</time>
      </trkpt>
      <trkpt lat="48.17749" lon="6.57206">
        <ele>394.8</ele>
        <time>2023-03-04T12:19:45Z</time>
      </trkpt>
      <trkpt lat="48.17741" lon="6.57198">
        <ele>396.4</ele>
        <time>2023-03-04T12:20:11Z</time>
      </trkpt>
      <trkpt lat="48.1774" lon="6.57198">
        <ele>396.6</ele>
        <time>2023-03-04T12:20:14Z</time>
      </trkpt>
      <trkpt lat="48.17739" lon="6.57198">
        <ele>396.6</ele>
        <time>2023-03-04T12:20:15Z</time>
      </trkpt>
      <trkpt lat="48.17741" lon="6.57198">
        <ele>396.9</ele>
        <time>2023-03-04T12:20:19Z</time>
      </trkpt>
      <trkpt lat="48.17741" lon="6.57198">
        <ele>396.9</ele>
        <time>2023-03-04T12:20:21Z</time>
      </trkpt>
      <trkpt lat="48.17741" lon="6.57198">
        <ele>396.9</ele>
        <time>2023-03-04T12:20:22Z</time>
      </trkpt>
      <trkpt lat="48.17742" lon="6.57198">
        <ele>397.1</ele>
        <time>2023-03-04T12:20:23Z</time>
      </trkpt>
      <trkpt lat="48.17732" lon="6.57198">
        <ele>398.8</ele>
        <time>2023-03-04T12:20:46Z</time>
      </trkpt>
      <trkpt lat="48.17723" lon="6.57191">
        <ele>400.6</ele>
        <time>2023-03-04T12:20:58Z</time>
      </trkpt>
      <trkpt lat="48.17716" lon="6.57181">
        <ele>402.2</ele>
        <time>2023-03-04T12:21:07Z</time>
      </trkpt>
      <trkpt lat="48.17709" lon="6.5717">
        <ele>403.6</ele>
        <time>2023-03-04T12:21:16Z</time>
      </trkpt>
      <trkpt lat="48.17705" lon="6.57158">
        <ele>404.6</ele>
        <time>2023-03-04T12:21:29Z</time>
      </trkpt>
      <trkpt lat="48.17697" lon="6.5715">
        <ele>405.3</ele>
        <time>2023-03-04T12:21:43Z</time>
      </trkpt>
      <trkpt lat="48.17696" lon="6.57149">
        <ele>405.3</ele>
        <time>2023-03-04T12:21:45Z</time>
      </trkpt>
      <trkpt lat="48.17695" lon="6.5715">
        <ele>405.4</ele>
        <time>2023-03-04T12:21:46Z</time>
      </trkpt>
      <trkpt lat="48.17686" lon="6.57152">
        <ele>405.8</ele>
        <time>2023-03-04T12:22:02Z</time>
      </trkpt>
      <trkpt lat="48.17677" lon="6.57152">
        <ele>406.4</ele>
        <time>2023-03-04T12:22:22Z</time>
      </trkpt>
      <trkpt lat="48.17674" lon="6.57151">
        <ele>406.8</ele>
        <time>2023-03-04T12:22:32Z</time>
      </trkpt>
      <trkpt lat="48.17674" lon="6.57151">
        <ele>406.8</ele>
        <time>2023-03-04T12:22:33Z</time>
      </trkpt>
      <trkpt lat="48.17674" lon="6.57147">
        <ele>407.1</ele>
        <time>2023-03-04T12:22:44Z</time>
      </trkpt>
      <trkpt lat="48.17675" lon="6.57147">
        <ele>407.2</ele>
        <time>2023-03-04T12:22:45Z</time>
      </trkpt>
      <trkpt lat="48.1768" lon="6.57148">
        <ele>408</ele>
        <time>2023-03-04T12:23:05Z</time>
      </trkpt>
      <trkpt lat="48.1768" lon="6.57148">
        <ele>408.1</ele>
        <time>2023-03-04T12:23:09Z</time>
      </trkpt>
      <trkpt lat="48.17684" lon="6.57161">
        <ele>409.8</ele>
        <time>2023-03-04T12:23:23Z</time>
      </trkpt>
      <trkpt lat="48.17691" lon="6.57169">
        <ele>411.7</ele>
        <time>2023-03-04T12:23:31Z</time>
      </trkpt>
      <trkpt lat="48.17685" lon="6.57179">
        <ele>413.4</ele>
        <time>2023-03-04T12:23:40Z</time>
      </trkpt>
      <trkpt lat="48.1768" lon="6.57191">
        <ele>414.8</ele>
        <time>2023-03-04T12:23:49Z</time>
      </trkpt>
      <trkpt lat="48.17675" lon="6.57203">
        <ele>416.1</ele>
        <time>2023-03-04T12:23:58Z</time>
      </trkpt>
      <trkpt lat="48.17674" lon="6.57217">
        <ele>417.3</ele>
        <time>2023-03-04T12:24:11Z</time>
      </trkpt>
      <trkpt lat="48.17674" lon="6.5723">
        <ele>418.4</ele>
        <time>2023-03-04T12:24:19Z</time>
      </trkpt>
      <trkpt lat="48.17673" lon="6.57244">
        <ele>419.3</ele>
        <time>2023-03-04T12:24:26Z</time>
      </trkpt>
      <trkpt lat="48.17672" lon="6.57257">
        <ele>420.1</ele>
        <time>2023-03-04T12:24:33Z</time>
      </trkpt>
      <trkpt lat="48.17674" lon="6.57272">
        <ele>420.8</ele>
        <time>2023-03-04T12:24:41Z</time>
      </trkpt>
      <trkpt lat="48.17673" lon="6.57285">
        <ele>421.3</ele>
        <time>2023-03-04T12:24:48Z</time>
      </trkpt>
      <trkpt lat="48.17668" lon="6.57298">
        <ele>421.8</ele>
        <time>2023-03-04T12:24:57Z</time>
      </trkpt>
      <trkpt lat="48.17666" lon="6.57311">
        <ele>422.1</ele>
        <time>2023-03-04T12:25:05Z</time>
      </trkpt>
      <trkpt lat="48.17663" lon="6.57325">
        <ele>422.4</ele>
        <time>2023-03-04T12:25:13Z</time>
      </trkpt>
      <trkpt lat="48.17662" lon="6.57339">
        <ele>422.5</ele>
        <time>2023-03-04T12:25:22Z</time>
      </trkpt>
      <trkpt lat="48.17665" lon="6.57352">
        <ele>422.4</ele>
        <time>2023-03-04T12:25:30Z</time>
      </trkpt>
      <trkpt lat="48.17661" lon="6.57365">
        <ele>422.2</ele>
        <time>2023-03-04T12:25:39Z</time>
      </trkpt>
      <trkpt lat="48.17654" lon="6.57374">
        <ele>422</ele>
        <time>2023-03-04T12:25:50Z</time>
      </trkpt>
      <trkpt lat="48.17648" lon="6.57386">
        <ele>421.9</ele>
        <time>2023-03-04T12:26:00Z</time>
      </trkpt>
      <trkpt lat="48.17642" lon="6.57399">
        <ele>421.9</ele>
        <time>2023-03-04T12:26:12Z</time>
      </trkpt>
      <trkpt lat="48.17635" lon="6.57409">
        <ele>421.9</ele>
        <time>2023-03-04T12:26:18Z</time>
      </trkpt>
      <trkpt lat="48.17628" lon="6.57418">
        <ele>421.8</ele>
        <time>2023-03-04T12:26:24Z</time>
      </trkpt>
      <trkpt lat="48.17622" lon="6.57429">
        <ele>421.1</ele>
        <time>2023-03-04T12:26:30Z</time>
      </trkpt>
      <trkpt lat="48.1762" lon="6.57442">
        <ele>420.4</ele>
        <time>2023-03-04T12:26:38Z</time>
      </trkpt>
      <trkpt lat="48.17628" lon="6.57451">
        <ele>419.6</ele>
        <time>2023-03-04T12:26:44Z</time>
      </trkpt>
      <trkpt lat="48.17633" lon="6.57463">
        <ele>418.7</ele>
        <time>2023-03-04T12:26:53Z</time>
      </trkpt>
      <trkpt lat="48.17639" lon="6.57472">
        <ele>417.9</ele>
        <time>2023-03-04T12:26:59Z</time>
      </trkpt>
      <trkpt lat="48.17644" lon="6.57484">
        <ele>417.2</ele>
        <time>2023-03-04T12:27:07Z</time>
      </trkpt>
      <trkpt lat="48.17646" lon="6.57498">
        <ele>416.5</ele>
        <time>2023-03-04T12:27:19Z</time>
      </trkpt>
      <trkpt lat="48.17654" lon="6.57507">
        <ele>415.7</ele>
        <time>2023-03-04T12:27:26Z</time>
      </trkpt>
      <trkpt lat="48.17661" lon="6.57515">
        <ele>415</ele>
        <time>2023-03-04T12:27:31Z</time>
      </trkpt>
      <trkpt lat="48.17669" lon="6.57525">
        <ele>414.1</ele>
        <time>2023-03-04T12:27:40Z</time>
      </trkpt>
      <trkpt lat="48.1767" lon="6.57528">
        <ele>413.9</ele>
        <time>2023-03-04T12:27:46Z</time>
      </trkpt>
      <trkpt lat="48.1767" lon="6.57528">
        <ele>413.8</ele>
        <time>2023-03-04T12:27:51Z</time>
      </trkpt>
      <trkpt lat="48.1767" lon="6.57528">
        <ele>413.8</ele>
        <time>2023-03-04T12:27:52Z</time>
      </trkpt>
      <trkpt lat="48.1767" lon="6.57529">
        <ele>413.8</ele>
        <time>2023-03-04T12:28:06Z</time>
      </trkpt>
      <trkpt lat="48.1767" lon="6.57529">
        <ele>413.8</ele>
        <time>2023-03-04T12:28:07Z</time>
      </trkpt>
      <trkpt lat="48.17671" lon="6.57529">
        <ele>413.8</ele>
        <time>2023-03-04T12:28:21Z</time>
      </trkpt>
      <trkpt lat="48.17672" lon="6.5753">
        <ele>413.6</ele>
        <time>2023-03-04T12:28:26Z</time>
      </trkpt>
      <trkpt lat="48.17673" lon="6.5753">
        <ele>413.6</ele>
        <time>2023-03-04T12:28:32Z</time>
      </trkpt>
      <trkpt lat="48.17678" lon="6.57541">
        <ele>412.7</ele>
        <time>2023-03-04T12:28:44Z</time>
      </trkpt>
      <trkpt lat="48.17686" lon="6.5755">
        <ele>411.6</ele>
        <time>2023-03-04T12:28:53Z</time>
      </trkpt>
      <trkpt lat="48.17691" lon="6.57563">
        <ele>410.3</ele>
        <time>2023-03-04T12:29:02Z</time>
      </trkpt>
      <trkpt lat="48.17698" lon="6.57572">
        <ele>408.8</ele>
        <time>2023-03-04T12:29:11Z</time>
      </trkpt>
      <trkpt lat="48.17706" lon="6.57577">
        <ele>406.9</ele>
        <time>2023-03-04T12:29:19Z</time>
      </trkpt>
      <trkpt lat="48.17713" lon="6.57587">
        <ele>404.6</ele>
        <time>2023-03-04T12:29:28Z</time>
      </trkpt>
      <trkpt lat="48.17721" lon="6.57594">
        <ele>402.6</ele>
        <time>2023-03-04T12:29:40Z</time>
      </trkpt>
      <trkpt lat="48.17721" lon="6.57596">
        <ele>402.4</ele>
        <time>2023-03-04T12:29:42Z</time>
      </trkpt>
      <trkpt lat="48.17721" lon="6.57595">
        <ele>402.3</ele>
        <time>2023-03-04T12:29:43Z</time>
      </trkpt>
      <trkpt lat="48.17721" lon="6.57595">
        <ele>402.3</ele>
        <time>2023-03-04T12:29:44Z</time>
      </trkpt>
      <trkpt lat="48.17721" lon="6.57596">
        <ele>402.3</ele>
        <time>2023-03-04T12:29:45Z</time>
      </trkpt>
      <trkpt lat="48.17719" lon="6.57602">
        <ele>401.3</ele>
        <time>2023-03-04T12:29:55Z</time>
      </trkpt>
      <trkpt lat="48.17718" lon="6.57602">
        <ele>401.2</ele>
        <time>2023-03-04T12:30:01Z</time>
      </trkpt>
      <trkpt lat="48.17718" lon="6.57603">
        <ele>401.1</ele>
        <time>2023-03-04T12:30:04Z</time>
      </trkpt>
      <trkpt lat="48.17717" lon="6.57603">
        <ele>401</ele>
        <time>2023-03-04T12:30:11Z</time>
      </trkpt>
      <trkpt lat="48.17722" lon="6.57615">
        <ele>399.3</ele>
        <time>2023-03-04T12:30:23Z</time>
      </trkpt>
      <trkpt lat="48.17727" lon="6.57627">
        <ele>397.6</ele>
        <time>2023-03-04T12:30:29Z</time>
      </trkpt>
      <trkpt lat="48.17734" lon="6.57637">
        <ele>396</ele>
        <time>2023-03-04T12:30:37Z</time>
      </trkpt>
      <trkpt lat="48.17739" lon="6.57647">
        <ele>394.6</ele>
        <time>2023-03-04T12:30:45Z</time>
      </trkpt>
      <trkpt lat="48.17747" lon="6.57656">
        <ele>393.1</ele>
        <time>2023-03-04T12:30:53Z</time>
      </trkpt>
      <trkpt lat="48.17753" lon="6.57666">
        <ele>391.9</ele>
        <time>2023-03-04T12:31:05Z</time>
      </trkpt>
      <trkpt lat="48.17759" lon="6.57677">
        <ele>391.2</ele>
        <time>2023-03-04T12:31:14Z</time>
      </trkpt>
      <trkpt lat="48.17761" lon="6.57683">
        <ele>392.5</ele>
        <time>2023-03-04T12:31:22Z</time>
      </trkpt>
      <trkpt lat="48.17762" lon="6.57683">
        <ele>392.7</ele>
        <time>2023-03-04T12:31:24Z</time>
      </trkpt>
      <trkpt lat="48.17762" lon="6.57683">
        <ele>392.7</ele>
        <time>2023-03-04T12:31:25Z</time>
      </trkpt>
      <trkpt lat="48.17762" lon="6.57683">
        <ele>392.8</ele>
        <time>2023-03-04T12:31:26Z</time>
      </trkpt>
      <trkpt lat="48.1776" lon="6.57687">
        <ele>393.6</ele>
        <time>2023-03-04T12:31:39Z</time>
      </trkpt>
      <trkpt lat="48.1776" lon="6.57687">
        <ele>393.8</ele>
        <time>2023-03-04T12:31:40Z</time>
      </trkpt>
      <trkpt lat="48.17756" lon="6.57688">
        <ele>394.7</ele>
        <time>2023-03-04T12:31:48Z</time>
      </trkpt>
      <trkpt lat="48.17757" lon="6.57688">
        <ele>394.8</ele>
        <time>2023-03-04T12:31:54Z</time>
      </trkpt>
      <trkpt lat="48.17759" lon="6.57689">
        <ele>395.4</ele>
        <time>2023-03-04T12:32:10Z</time>
      </trkpt>
      <trkpt lat="48.17759" lon="6.57689">
        <ele>395.4</ele>
        <time>2023-03-04T12:32:13Z</time>
      </trkpt>
      <trkpt lat="48.17757" lon="6.5769">
        <ele>396</ele>
        <time>2023-03-04T12:32:25Z</time>
      </trkpt>
      <trkpt lat="48.17757" lon="6.5769">
        <ele>396.1</ele>
        <time>2023-03-04T12:32:30Z</time>
      </trkpt>
      <trkpt lat="48.17758" lon="6.57691">
        <ele>396.2</ele>
        <time>2023-03-04T12:32:32Z</time>
      </trkpt>
      <trkpt lat="48.17758" lon="6.57691">
        <ele>396.3</ele>
        <time>2023-03-04T12:32:43Z</time>
      </trkpt>
      <trkpt lat="48.17758" lon="6.57691">
        <ele>396.3</ele>
        <time>2023-03-04T12:32:44Z</time>
      </trkpt>
      <trkpt lat="48.17758" lon="6.57691">
        <ele>396.4</ele>
        <time>2023-03-04T12:32:50Z</time>
      </trkpt>
      <trkpt lat="48.17758" lon="6.57691">
        <ele>396.4</ele>
        <time>2023-03-04T12:32:51Z</time>
      </trkpt>
      <trkpt lat="48.17758" lon="6.57691">
        <ele>396.4</ele>
        <time>2023-03-04T12:33:31Z</time>
      </trkpt>
      <trkpt lat="48.17758" lon="6.57691">
        <ele>396.4</ele>
        <time>2023-03-04T12:33:32Z</time>
      </trkpt>
      <trkpt lat="48.17758" lon="6.57691">
        <ele>396.5</ele>
        <time>2023-03-04T12:33:33Z</time>
      </trkpt>
      <trkpt lat="48.17762" lon="6.57695">
        <ele>397.8</ele>
        <time>2023-03-04T12:33:42Z</time>
      </trkpt>
      <trkpt lat="48.17762" lon="6.57696">
        <ele>397.9</ele>
        <time>2023-03-04T12:33:43Z</time>
      </trkpt>
      <trkpt lat="48.17768" lon="6.57704">
        <ele>399.7</ele>
        <time>2023-03-04T12:33:59Z</time>
      </trkpt>
      <trkpt lat="48.17768" lon="6.57704">
        <ele>399.7</ele>
        <time>2023-03-04T12:34:03Z</time>
      </trkpt>
      <trkpt lat="48.17773" lon="6.57715">
        <ele>401.7</ele>
        <time>2023-03-04T12:34:19Z</time>
      </trkpt>
      <trkpt lat="48.1778" lon="6.57725">
        <ele>403.3</ele>
        <time>2023-03-04T12:34:29Z</time>
      </trkpt>
      <trkpt lat="48.17785" lon="6.57736">
        <ele>404.6</ele>
        <time>2023-03-04T12:34:38Z</time>
      </trkpt>
      <trkpt lat="48.17791" lon="6.57748">
        <ele>405.9</ele>
        <time>2023-03-04T12:34:49Z</time>
      </trkpt>
      <trkpt lat="48.17792" lon="6.57753">
        <ele>406.2</ele>
        <time>2023-03-04T12:34:55Z</time>
      </trkpt>
      <trkpt lat="48.17792" lon="6.57754">
        <ele>406.3</ele>
        <time>2023-03-04T12:34:56Z</time>
      </trkpt>
      <trkpt lat="48.17797" lon="6.57766">
        <ele>407.3</ele>
        <time>2023-03-04T12:35:05Z</time>
      </trkpt>
      <trkpt lat="48.17803" lon="6.57777">
        <ele>408.3</ele>
        <time>2023-03-04T12:35:13Z</time>
      </trkpt>
      <trkpt lat="48.17809" lon="6.57788">
        <ele>409.3</ele>
        <time>2023-03-04T12:35:21Z</time>
      </trkpt>
      <trkpt lat="48.17816" lon="6.57799">
        <ele>410.4</ele>
        <time>2023-03-04T12:35:29Z</time>
      </trkpt>
      <trkpt lat="48.17823" lon="6.57809">
        <ele>411.4</ele>
        <time>2023-03-04T12:35:38Z</time>
      </trkpt>
      <trkpt lat="48.17827" lon="6.57822">
        <ele>412.4</ele>
        <time>2023-03-04T12:35:47Z</time>
      </trkpt>
      <trkpt lat="48.17832" lon="6.57835">
        <ele>413.4</ele>
        <time>2023-03-04T12:35:57Z</time>
      </trkpt>
      <trkpt lat="48.17838" lon="6.57848">
        <ele>414.3</ele>
        <time>2023-03-04T12:36:05Z</time>
      </trkpt>
      <trkpt lat="48.17844" lon="6.57859">
        <ele>415.2</ele>
        <time>2023-03-04T12:36:13Z</time>
      </trkpt>
      <trkpt lat="48.1785" lon="6.57871">
        <ele>415.9</ele>
        <time>2023-03-04T12:36:21Z</time>
      </trkpt>
      <trkpt lat="48.17855" lon="6.57882">
        <ele>416.6</ele>
        <time>2023-03-04T12:36:30Z</time>
      </trkpt>
      <trkpt lat="48.17861" lon="6.57894">
        <ele>417.1</ele>
        <time>2023-03-04T12:36:38Z</time>
      </trkpt>
      <trkpt lat="48.17867" lon="6.57906">
        <ele>417.6</ele>
        <time>2023-03-04T12:36:47Z</time>
      </trkpt>
      <trkpt lat="48.17872" lon="6.57917">
        <ele>417.9</ele>
        <time>2023-03-04T12:36:55Z</time>
      </trkpt>
      <trkpt lat="48.17877" lon="6.5793">
        <ele>418.3</ele>
        <time>2023-03-04T12:37:05Z</time>
      </trkpt>
      <trkpt lat="48.17885" lon="6.57939">
        <ele>418.7</ele>
        <time>2023-03-04T12:37:13Z</time>
      </trkpt>
      <trkpt lat="48.17887" lon="6.5794">
        <ele>418.8</ele>
        <time>2023-03-04T12:37:20Z</time>
      </trkpt>
      <trkpt lat="48.17887" lon="6.57941">
        <ele>418.8</ele>
        <time>2023-03-04T12:37:23Z</time>
      </trkpt>
      <trkpt lat="48.1789" lon="6.57942">
        <ele>418.8</ele>
        <time>2023-03-04T12:37:29Z</time>
      </trkpt>
      <trkpt lat="48.1789" lon="6.57942">
        <ele>418.8</ele>
        <time>2023-03-04T12:37:31Z</time>
      </trkpt>
      <trkpt lat="48.17899" lon="6.57944">
        <ele>418.9</ele>
        <time>2023-03-04T12:37:41Z</time>
      </trkpt>
      <trkpt lat="48.17909" lon="6.57945">
        <ele>419.1</ele>
        <time>2023-03-04T12:37:49Z</time>
      </trkpt>
      <trkpt lat="48.17919" lon="6.57941">
        <ele>419.2</ele>
        <time>2023-03-04T12:37:58Z</time>
      </trkpt>
      <trkpt lat="48.17923" lon="6.57941">
        <ele>419.3</ele>
        <time>2023-03-04T12:38:05Z</time>
      </trkpt>
      <trkpt lat="48.17924" lon="6.57941">
        <ele>419.3</ele>
        <time>2023-03-04T12:38:07Z</time>
      </trkpt>
      <trkpt lat="48.17924" lon="6.57941">
        <ele>419.3</ele>
        <time>2023-03-04T12:38:08Z</time>
      </trkpt>
      <trkpt lat="48.17924" lon="6.57941">
        <ele>419.3</ele>
        <time>2023-03-04T12:38:10Z</time>
      </trkpt>
      <trkpt lat="48.17933" lon="6.57939">
        <ele>419.4</ele>
        <time>2023-03-04T12:38:20Z</time>
      </trkpt>
      <trkpt lat="48.17943" lon="6.57938">
        <ele>419.5</ele>
        <time>2023-03-04T12:38:28Z</time>
      </trkpt>
      <trkpt lat="48.17952" lon="6.57938">
        <ele>419.4</ele>
        <time>2023-03-04T12:38:37Z</time>
      </trkpt>
      <trkpt lat="48.17962" lon="6.57937">
        <ele>419.3</ele>
        <time>2023-03-04T12:38:47Z</time>
      </trkpt>
      <trkpt lat="48.17971" lon="6.57934">
        <ele>419</ele>
        <time>2023-03-04T12:38:56Z</time>
      </trkpt>
      <trkpt lat="48.17981" lon="6.57933">
        <ele>418.8</ele>
        <time>2023-03-04T12:39:05Z</time>
      </trkpt>
      <trkpt lat="48.17991" lon="6.5793">
        <ele>418.5</ele>
        <time>2023-03-04T12:39:16Z</time>
      </trkpt>
      <trkpt lat="48.18001" lon="6.57929">
        <ele>418.1</ele>
        <time>2023-03-04T12:39:24Z</time>
      </trkpt>
      <trkpt lat="48.18011" lon="6.57928">
        <ele>417.8</ele>
        <time>2023-03-04T12:39:35Z</time>
      </trkpt>
      <trkpt lat="48.1802" lon="6.57927">
        <ele>417.4</ele>
        <time>2023-03-04T12:39:44Z</time>
      </trkpt>
      <trkpt lat="48.1803" lon="6.57927">
        <ele>417.1</ele>
        <time>2023-03-04T12:39:52Z</time>
      </trkpt>
      <trkpt lat="48.1804" lon="6.57926">
        <ele>416.8</ele>
        <time>2023-03-04T12:39:59Z</time>
      </trkpt>
      <trkpt lat="48.18049" lon="6.57925">
        <ele>416.4</ele>
        <time>2023-03-04T12:40:08Z</time>
      </trkpt>
      <trkpt lat="48.18058" lon="6.57926">
        <ele>416.1</ele>
        <time>2023-03-04T12:40:15Z</time>
      </trkpt>
      <trkpt lat="48.18068" lon="6.57926">
        <ele>415.8</ele>
        <time>2023-03-04T12:40:23Z</time>
      </trkpt>
      <trkpt lat="48.18077" lon="6.57926">
        <ele>415.7</ele>
        <time>2023-03-04T12:40:31Z</time>
      </trkpt>
      <trkpt lat="48.18078" lon="6.57926">
        <ele>415.7</ele>
        <time>2023-03-04T12:40:36Z</time>
      </trkpt>
      <trkpt lat="48.18079" lon="6.57926">
        <ele>415.7</ele>
        <time>2023-03-04T12:40:37Z</time>
      </trkpt>
      <trkpt lat="48.18088" lon="6.57923">
        <ele>415.7</ele>
        <time>2023-03-04T12:40:47Z</time>
      </trkpt>
      <trkpt lat="48.18098" lon="6.57923">
        <ele>415.9</ele>
        <time>2023-03-04T12:40:55Z</time>
      </trkpt>
      <trkpt lat="48.18103" lon="6.57923">
        <ele>415.9</ele>
        <time>2023-03-04T12:41:01Z</time>
      </trkpt>
      <trkpt lat="48.18103" lon="6.57923">
        <ele>415.9</ele>
        <time>2023-03-04T12:41:02Z</time>
      </trkpt>
      <trkpt lat="48.18112" lon="6.57923">
        <ele>416.2</ele>
        <time>2023-03-04T12:41:11Z</time>
      </trkpt>
      <trkpt lat="48.18121" lon="6.57922">
        <ele>416.4</ele>
        <time>2023-03-04T12:41:18Z</time>
      </trkpt>
      <trkpt lat="48.18131" lon="6.5792">
        <ele>416.7</ele>
        <time>2023-03-04T12:41:26Z</time>
      </trkpt>
      <trkpt lat="48.1814" lon="6.57919">
        <ele>416.9</ele>
        <time>2023-03-04T12:41:34Z</time>
      </trkpt>
      <trkpt lat="48.1814" lon="6.57934">
        <ele>417</ele>
        <time>2023-03-04T12:41:46Z</time>
      </trkpt>
      <trkpt lat="48.18135" lon="6.57946">
        <ele>417.1</ele>
        <time>2023-03-04T12:41:57Z</time>
      </trkpt>
      <trkpt lat="48.18136" lon="6.5796">
        <ele>417.2</ele>
        <time>2023-03-04T12:42:08Z</time>
      </trkpt>
      <trkpt lat="48.18133" lon="6.57974">
        <ele>417.3</ele>
        <time>2023-03-04T12:42:17Z</time>
      </trkpt>
      <trkpt lat="48.18136" lon="6.57988">
        <ele>417.4</ele>
        <time>2023-03-04T12:42:30Z</time>
      </trkpt>
      <trkpt lat="48.18137" lon="6.57989">
        <ele>417.4</ele>
        <time>2023-03-04T12:42:36Z</time>
      </trkpt>
      <trkpt lat="48.18137" lon="6.5799">
        <ele>417.4</ele>
        <time>2023-03-04T12:42:38Z</time>
      </trkpt>
      <trkpt lat="48.18139" lon="6.58003">
        <ele>417.5</ele>
        <time>2023-03-04T12:42:51Z</time>
      </trkpt>
      <trkpt lat="48.18145" lon="6.58014">
        <ele>417.5</ele>
        <time>2023-03-04T12:43:04Z</time>
      </trkpt>
      <trkpt lat="48.18154" lon="6.58018">
        <ele>417.4</ele>
        <time>2023-03-04T12:43:23Z</time>
      </trkpt>
      <trkpt lat="48.18155" lon="6.58018">
        <ele>417.4</ele>
        <time>2023-03-04T12:43:27Z</time>
      </trkpt>
      <trkpt lat="48.18155" lon="6.58018">
        <ele>417.4</ele>
        <time>2023-03-04T12:43:28Z</time>
      </trkpt>
      <trkpt lat="48.18155" lon="6.58017">
        <ele>417.4</ele>
        <time>2023-03-04T12:43:31Z</time>
      </trkpt>
      <trkpt lat="48.18155" lon="6.58017">
        <ele>417.4</ele>
        <time>2023-03-04T12:43:33Z</time>
      </trkpt>
      <trkpt lat="48.18155" lon="6.58017">
        <ele>417.4</ele>
        <time>2023-03-04T12:43:37Z</time>
      </trkpt>
      <trkpt lat="48.18154" lon="6.58017">
        <ele>417.4</ele>
        <time>2023-03-04T12:43:39Z</time>
      </trkpt>
      <trkpt lat="48.18154" lon="6.58017">
        <ele>417.4</ele>
        <time>2023-03-04T12:43:41Z</time>
      </trkpt>
      <trkpt lat="48.18154" lon="6.58016">
        <ele>417.4</ele>
        <time>2023-03-04T12:43:44Z</time>
      </trkpt>
      <trkpt lat="48.18155" lon="6.58016">
        <ele>417.4</ele>
        <time>2023-03-04T12:43:46Z</time>
      </trkpt>
      <trkpt lat="48.18154" lon="6.58016">
        <ele>417.4</ele>
        <time>2023-03-04T12:43:52Z</time>
      </trkpt>
      <trkpt lat="48.18155" lon="6.58016">
        <ele>417.4</ele>
        <time>2023-03-04T12:43:54Z</time>
      </trkpt>
      <trkpt lat="48.18155" lon="6.58016">
        <ele>417.4</ele>
        <time>2023-03-04T12:43:56Z</time>
      </trkpt>
      <trkpt lat="48.18164" lon="6.58022">
        <ele>417.3</ele>
        <time>2023-03-04T12:44:07Z</time>
      </trkpt>
      <trkpt lat="48.18164" lon="6.58022">
        <ele>417.2</ele>
        <time>2023-03-04T12:44:09Z</time>
      </trkpt>
      <trkpt lat="48.18164" lon="6.58022">
        <ele>417.2</ele>
        <time>2023-03-04T12:44:10Z</time>
      </trkpt>
      <trkpt lat="48.18164" lon="6.58021">
        <ele>417.2</ele>
        <time>2023-03-04T12:44:13Z</time>
      </trkpt>
      <trkpt lat="48.18164" lon="6.58021">
        <ele>417.2</ele>
        <time>2023-03-04T12:44:15Z</time>
      </trkpt>
      <trkpt lat="48.18166" lon="6.58023">
        <ele>417.2</ele>
        <time>2023-03-04T12:44:26Z</time>
      </trkpt>
      <trkpt lat="48.18166" lon="6.58023">
        <ele>417.2</ele>
        <time>2023-03-04T12:44:28Z</time>
      </trkpt>
      <trkpt lat="48.18166" lon="6.58023">
        <ele>417.2</ele>
        <time>2023-03-04T12:44:29Z</time>
      </trkpt>
      <trkpt lat="48.18166" lon="6.58022">
        <ele>417.2</ele>
        <time>2023-03-04T12:45:01Z</time>
      </trkpt>
      <trkpt lat="48.18167" lon="6.58021">
        <ele>417.2</ele>
        <time>2023-03-04T12:45:04Z</time>
      </trkpt>
      <trkpt lat="48.18167" lon="6.58021">
        <ele>417.2</ele>
        <time>2023-03-04T12:45:15Z</time>
      </trkpt>
      <trkpt lat="48.18171" lon="6.58021">
        <ele>417.1</ele>
        <time>2023-03-04T12:45:22Z</time>
      </trkpt>
      <trkpt lat="48.1817" lon="6.5802">
        <ele>417.1</ele>
        <time>2023-03-04T12:45:23Z</time>
      </trkpt>
      <trkpt lat="48.18168" lon="6.58019">
        <ele>417.1</ele>
        <time>2023-03-04T12:45:27Z</time>
      </trkpt>
      <trkpt lat="48.18168" lon="6.58019">
        <ele>417.1</ele>
        <time>2023-03-04T12:45:28Z</time>
      </trkpt>
      <trkpt lat="48.18168" lon="6.58019">
        <ele>417.1</ele>
        <time>2023-03-04T12:45:29Z</time>
      </trkpt>
      <trkpt lat="48.18168" lon="6.58019">
        <ele>417.1</ele>
        <time>2023-03-04T12:45:31Z</time>
      </trkpt>
      <trkpt lat="48.18168" lon="6.58019">
        <ele>417.1</ele>
        <time>2023-03-04T12:45:34Z</time>
      </trkpt>
      <trkpt lat="48.18168" lon="6.58019">
        <ele>417.1</ele>
        <time>2023-03-04T12:45:36Z</time>
      </trkpt>
      <trkpt lat="48.18177" lon="6.58015">
        <ele>416.9</ele>
        <time>2023-03-04T12:45:49Z</time>
      </trkpt>
      <trkpt lat="48.18179" lon="6.58012">
        <ele>416.8</ele>
        <time>2023-03-04T12:45:55Z</time>
      </trkpt>
      <trkpt lat="48.18179" lon="6.58013">
        <ele>416.8</ele>
        <time>2023-03-04T12:45:56Z</time>
      </trkpt>
      <trkpt lat="48.18179" lon="6.58013">
        <ele>416.8</ele>
        <time>2023-03-04T12:45:57Z</time>
      </trkpt>
      <trkpt lat="48.18179" lon="6.58013">
        <ele>416.8</ele>
        <time>2023-03-04T12:45:58Z</time>
      </trkpt>
      <trkpt lat="48.18179" lon="6.58013">
        <ele>416.8</ele>
        <time>2023-03-04T12:45:59Z</time>
      </trkpt>
      <trkpt lat="48.18179" lon="6.58013">
        <ele>416.8</ele>
        <time>2023-03-04T12:46:00Z</time>
      </trkpt>
      <trkpt lat="48.18178" lon="6.58014">
        <ele>416.8</ele>
        <time>2023-03-04T12:46:03Z</time>
      </trkpt>
      <trkpt lat="48.18178" lon="6.58014">
        <ele>416.8</ele>
        <time>2023-03-04T12:46:05Z</time>
      </trkpt>
      <trkpt lat="48.18178" lon="6.58015">
        <ele>416.8</ele>
        <time>2023-03-04T12:46:07Z</time>
      </trkpt>
      <trkpt lat="48.18179" lon="6.58015">
        <ele>416.8</ele>
        <time>2023-03-04T12:46:16Z</time>
      </trkpt>
      <trkpt lat="48.18183" lon="6.58013">
        <ele>416.7</ele>
        <time>2023-03-04T12:46:29Z</time>
      </trkpt>
      <trkpt lat="48.18183" lon="6.58013">
        <ele>416.7</ele>
        <time>2023-03-04T12:46:31Z</time>
      </trkpt>
      <trkpt lat="48.18187" lon="6.58009">
        <ele>416.6</ele>
        <time>2023-03-04T12:46:41Z</time>
      </trkpt>
      <trkpt lat="48.18187" lon="6.58009">
        <ele>416.6</ele>
        <time>2023-03-04T12:46:44Z</time>
      </trkpt>
      <trkpt lat="48.18187" lon="6.58009">
        <ele>416.6</ele>
        <time>2023-03-04T12:46:45Z</time>
      </trkpt>
      <trkpt lat="48.18187" lon="6.58008">
        <ele>416.6</ele>
        <time>2023-03-04T12:46:47Z</time>
      </trkpt>
      <trkpt lat="48.18187" lon="6.58008">
        <ele>416.6</ele>
        <time>2023-03-04T12:46:48Z</time>
      </trkpt>
      <trkpt lat="48.18187" lon="6.58008">
        <ele>416.6</ele>
        <time>2023-03-04T12:46:52Z</time>
      </trkpt>
      <trkpt lat="48.18182" lon="6.57996">
        <ele>416.4</ele>
        <time>2023-03-04T12:47:09Z</time>
      </trkpt>
      <trkpt lat="48.18183" lon="6.57999">
        <ele>416.4</ele>
        <time>2023-03-04T12:47:35Z</time>
      </trkpt>
      <trkpt lat="48.18182" lon="6.57999">
        <ele>416.3</ele>
        <time>2023-03-04T12:47:37Z</time>
      </trkpt>
      <trkpt lat="48.1819" lon="6.58007">
        <ele>416.2</ele>
        <time>2023-03-04T12:47:53Z</time>
      </trkpt>
      <trkpt lat="48.18198" lon="6.58003">
        <ele>416.1</ele>
        <time>2023-03-04T12:48:00Z</time>
      </trkpt>
      <trkpt lat="48.18204" lon="6.57993">
        <ele>416</ele>
        <time>2023-03-04T12:48:13Z</time>
      </trkpt>
      <trkpt lat="48.18206" lon="6.57986">
        <ele>416</ele>
        <time>2023-03-04T12:48:23Z</time>
      </trkpt>
      <trkpt lat="48.18206" lon="6.57985">
        <ele>416</ele>
        <time>2023-03-04T12:48:36Z</time>
      </trkpt>
      <trkpt lat="48.18206" lon="6.57985">
        <ele>416</ele>
        <time>2023-03-04T12:48:37Z</time>
      </trkpt>
      <trkpt lat="48.18206" lon="6.57985">
        <ele>416</ele>
        <time>2023-03-04T12:48:38Z</time>
      </trkpt>
      <trkpt lat="48.18209" lon="6.57985">
        <ele>416</ele>
        <time>2023-03-04T12:48:45Z</time>
      </trkpt>
      <trkpt lat="48.18209" lon="6.57985">
        <ele>416</ele>
        <time>2023-03-04T12:49:19Z</time>
      </trkpt>
      <trkpt lat="48.18209" lon="6.57985">
        <ele>416</ele>
        <time>2023-03-04T12:49:20Z</time>
      </trkpt>
      <trkpt lat="48.18209" lon="6.57985">
        <ele>415.9</ele>
        <time>2023-03-04T12:49:42Z</time>
      </trkpt>
      <trkpt lat="48.18209" lon="6.57985">
        <ele>415.9</ele>
        <time>2023-03-04T12:49:43Z</time>
      </trkpt>
      <trkpt lat="48.18209" lon="6.57985">
        <ele>415.9</ele>
        <time>2023-03-04T12:49:55Z</time>
      </trkpt>
      <trkpt lat="48.18209" lon="6.57985">
        <ele>415.9</ele>
        <time>2023-03-04T12:49:56Z</time>
      </trkpt>
      <trkpt lat="48.18209" lon="6.57983">
        <ele>415.9</ele>
        <time>2023-03-04T12:50:20Z</time>
      </trkpt>
      <trkpt lat="48.18211" lon="6.5797">
        <ele>415.8</ele>
        <time>2023-03-04T12:50:30Z</time>
      </trkpt>
      <trkpt lat="48.18212" lon="6.57956">
        <ele>415.5</ele>
        <time>2023-03-04T12:50:45Z</time>
      </trkpt>
      <trkpt lat="48.18222" lon="6.57957">
        <ele>414.9</ele>
        <time>2023-03-04T12:50:58Z</time>
      </trkpt>
      <trkpt lat="48.18223" lon="6.57958">
        <ele>414.9</ele>
        <time>2023-03-04T12:51:02Z</time>
      </trkpt>
      <trkpt lat="48.18223" lon="6.57959">
        <ele>414.8</ele>
        <time>2023-03-04T12:51:05Z</time>
      </trkpt>
      <trkpt lat="48.18229" lon="6.57946">
        <ele>414</ele>
        <time>2023-03-04T12:51:18Z</time>
      </trkpt>
      <trkpt lat="48.1823" lon="6.57933">
        <ele>413.4</ele>
        <time>2023-03-04T12:51:28Z</time>
      </trkpt>
      <trkpt lat="48.18235" lon="6.57921">
        <ele>413</ele>
        <time>2023-03-04T12:51:37Z</time>
      </trkpt>
      <trkpt lat="48.18236" lon="6.57919">
        <ele>413</ele>
        <time>2023-03-04T12:51:43Z</time>
      </trkpt>
      <trkpt lat="48.18237" lon="6.57919">
        <ele>413</ele>
        <time>2023-03-04T12:51:45Z</time>
      </trkpt>
      <trkpt lat="48.18246" lon="6.57918">
        <ele>413.1</ele>
        <time>2023-03-04T12:51:56Z</time>
      </trkpt>
      <trkpt lat="48.18255" lon="6.57916">
        <ele>413.6</ele>
        <time>2023-03-04T12:52:06Z</time>
      </trkpt>
      <trkpt lat="48.18264" lon="6.57913">
        <ele>414.4</ele>
        <time>2023-03-04T12:52:16Z</time>
      </trkpt>
      <trkpt lat="48.18272" lon="6.57909">
        <ele>415.3</ele>
        <time>2023-03-04T12:52:22Z</time>
      </trkpt>
      <trkpt lat="48.18282" lon="6.57911">
        <ele>416.3</ele>
        <time>2023-03-04T12:52:27Z</time>
      </trkpt>
      <trkpt lat="48.18292" lon="6.57915">
        <ele>417.1</ele>
        <time>2023-03-04T12:52:35Z</time>
      </trkpt>
      <trkpt lat="48.183" lon="6.57924">
        <ele>417.8</ele>
        <time>2023-03-04T12:52:42Z</time>
      </trkpt>
      <trkpt lat="48.18309" lon="6.57929">
        <ele>418.2</ele>
        <time>2023-03-04T12:52:51Z</time>
      </trkpt>
      <trkpt lat="48.18311" lon="6.57931">
        <ele>418.3</ele>
        <time>2023-03-04T12:52:57Z</time>
      </trkpt>
      <trkpt lat="48.18311" lon="6.57931">
        <ele>418.3</ele>
        <time>2023-03-04T12:53:00Z</time>
      </trkpt>
      <trkpt lat="48.18311" lon="6.57931">
        <ele>418.3</ele>
        <time>2023-03-04T12:53:02Z</time>
      </trkpt>
      <trkpt lat="48.18312" lon="6.57931">
        <ele>418.3</ele>
        <time>2023-03-04T12:53:03Z</time>
      </trkpt>
      <trkpt lat="48.18313" lon="6.57932">
        <ele>418.4</ele>
        <time>2023-03-04T12:53:07Z</time>
      </trkpt>
      <trkpt lat="48.18313" lon="6.57932">
        <ele>418.4</ele>
        <time>2023-03-04T12:53:21Z</time>
      </trkpt>
      <trkpt lat="48.18322" lon="6.57938">
        <ele>418.6</ele>
        <time>2023-03-04T12:53:34Z</time>
      </trkpt>
      <trkpt lat="48.18329" lon="6.57945">
        <ele>418.8</ele>
        <time>2023-03-04T12:53:46Z</time>
      </trkpt>
      <trkpt lat="48.18339" lon="6.5795">
        <ele>419.1</ele>
        <time>2023-03-04T12:53:55Z</time>
      </trkpt>
      <trkpt lat="48.18341" lon="6.57951">
        <ele>419.1</ele>
        <time>2023-03-04T12:53:59Z</time>
      </trkpt>
      <trkpt lat="48.18341" lon="6.57951">
        <ele>419.1</ele>
        <time>2023-03-04T12:54:00Z</time>
      </trkpt>
      <trkpt lat="48.1835" lon="6.57953">
        <ele>419.5</ele>
        <time>2023-03-04T12:54:09Z</time>
      </trkpt>
      <trkpt lat="48.1836" lon="6.57956">
        <ele>420</ele>
        <time>2023-03-04T12:54:20Z</time>
      </trkpt>
      <trkpt lat="48.18369" lon="6.57962">
        <ele>420.6</ele>
        <time>2023-03-04T12:54:29Z</time>
      </trkpt>
      <trkpt lat="48.18378" lon="6.57967">
        <ele>421.2</ele>
        <time>2023-03-04T12:54:37Z</time>
      </trkpt>
      <trkpt lat="48.18387" lon="6.57967">
        <ele>421.9</ele>
        <time>2023-03-04T12:54:45Z</time>
      </trkpt>
      <trkpt lat="48.18396" lon="6.57973">
        <ele>422.6</ele>
        <time>2023-03-04T12:54:54Z</time>
      </trkpt>
      <trkpt lat="48.18405" lon="6.57968">
        <ele>423.1</ele>
        <time>2023-03-04T12:55:01Z</time>
      </trkpt>
      <trkpt lat="48.18414" lon="6.57963">
        <ele>423.6</ele>
        <time>2023-03-04T12:55:08Z</time>
      </trkpt>
      <trkpt lat="48.18423" lon="6.57957">
        <ele>424</ele>
        <time>2023-03-04T12:55:15Z</time>
      </trkpt>
      <trkpt lat="48.18431" lon="6.5795">
        <ele>424.4</ele>
        <time>2023-03-04T12:55:25Z</time>
      </trkpt>
      <trkpt lat="48.1844" lon="6.57944">
        <ele>424.8</ele>
        <time>2023-03-04T12:55:37Z</time>
      </trkpt>
      <trkpt lat="48.1844" lon="6.57943">
        <ele>424.8</ele>
        <time>2023-03-04T12:55:39Z</time>
      </trkpt>
      <trkpt lat="48.1844" lon="6.57943">
        <ele>424.8</ele>
        <time>2023-03-04T12:55:40Z</time>
      </trkpt>
      <trkpt lat="48.18449" lon="6.5794">
        <ele>425.1</ele>
        <time>2023-03-04T12:55:54Z</time>
      </trkpt>
      <trkpt lat="48.18461" lon="6.57938">
        <ele>425.5</ele>
        <time>2023-03-04T12:56:04Z</time>
      </trkpt>
      <trkpt lat="48.1847" lon="6.57935">
        <ele>425.8</ele>
        <time>2023-03-04T12:56:15Z</time>
      </trkpt>
      <trkpt lat="48.18479" lon="6.57934">
        <ele>426.1</ele>
        <time>2023-03-04T12:56:25Z</time>
      </trkpt>
      <trkpt lat="48.18487" lon="6.57927">
        <ele>426.4</ele>
        <time>2023-03-04T12:56:36Z</time>
      </trkpt>
      <trkpt lat="48.18496" lon="6.57922">
        <ele>426.8</ele>
        <time>2023-03-04T12:56:46Z</time>
      </trkpt>
      <trkpt lat="48.18504" lon="6.57915">
        <ele>427.2</ele>
        <time>2023-03-04T12:56:55Z</time>
      </trkpt>
      <trkpt lat="48.18514" lon="6.5791">
        <ele>427.6</ele>
        <time>2023-03-04T12:57:05Z</time>
      </trkpt>
      <trkpt lat="48.18522" lon="6.57902">
        <ele>428.1</ele>
        <time>2023-03-04T12:57:18Z</time>
      </trkpt>
      <trkpt lat="48.18531" lon="6.57896">
        <ele>428.6</ele>
        <time>2023-03-04T12:57:28Z</time>
      </trkpt>
      <trkpt lat="48.1854" lon="6.57893">
        <ele>429.1</ele>
        <time>2023-03-04T12:57:35Z</time>
      </trkpt>
      <trkpt lat="48.18549" lon="6.5789">
        <ele>429.6</ele>
        <time>2023-03-04T12:57:42Z</time>
      </trkpt>
      <trkpt lat="48.18558" lon="6.57889">
        <ele>430</ele>
        <time>2023-03-04T12:57:50Z</time>
      </trkpt>
      <trkpt lat="48.18567" lon="6.57881">
        <ele>430.5</ele>
        <time>2023-03-04T12:57:58Z</time>
      </trkpt>
      <trkpt lat="48.18575" lon="6.57877">
        <ele>430.9</ele>
        <time>2023-03-04T12:58:06Z</time>
      </trkpt>
      <trkpt lat="48.18585" lon="6.57874">
        <ele>431.4</ele>
        <time>2023-03-04T12:58:11Z</time>
      </trkpt>
      <trkpt lat="48.18595" lon="6.57871">
        <ele>432</ele>
        <time>2023-03-04T12:58:19Z</time>
      </trkpt>
      <trkpt lat="48.18604" lon="6.57867">
        <ele>432.7</ele>
        <time>2023-03-04T12:58:28Z</time>
      </trkpt>
      <trkpt lat="48.18613" lon="6.57861">
        <ele>433.3</ele>
        <time>2023-03-04T12:58:34Z</time>
      </trkpt>
      <trkpt lat="48.1862" lon="6.57853">
        <ele>434</ele>
        <time>2023-03-04T12:58:44Z</time>
      </trkpt>
      <trkpt lat="48.18628" lon="6.57846">
        <ele>434.7</ele>
        <time>2023-03-04T12:58:56Z</time>
      </trkpt>
      <trkpt lat="48.18636" lon="6.57838">
        <ele>435.3</ele>
        <time>2023-03-04T12:59:03Z</time>
      </trkpt>
      <trkpt lat="48.18646" lon="6.57834">
        <ele>436</ele>
        <time>2023-03-04T12:59:08Z</time>
      </trkpt>
      <trkpt lat="48.18654" lon="6.57827">
        <ele>436.5</ele>
        <time>2023-03-04T12:59:15Z</time>
      </trkpt>
      <trkpt lat="48.18664" lon="6.57832">
        <ele>437</ele>
        <time>2023-03-04T12:59:23Z</time>
      </trkpt>
      <trkpt lat="48.18673" lon="6.57835">
        <ele>437.4</ele>
        <time>2023-03-04T12:59:31Z</time>
      </trkpt>
      <trkpt lat="48.18682" lon="6.57835">
        <ele>437.8</ele>
        <time>2023-03-04T12:59:41Z</time>
      </trkpt>
      <trkpt lat="48.18692" lon="6.57835">
        <ele>438.3</ele>
        <time>2023-03-04T12:59:48Z</time>
      </trkpt>
      <trkpt lat="48.18701" lon="6.57834">
        <ele>438.8</ele>
        <time>2023-03-04T12:59:54Z</time>
      </trkpt>
      <trkpt lat="48.18711" lon="6.57836">
        <ele>439.4</ele>
        <time>2023-03-04T13:00:00Z</time>
      </trkpt>
      <trkpt lat="48.1872" lon="6.57834">
        <ele>439.9</ele>
        <time>2023-03-04T13:00:10Z</time>
      </trkpt>
      <trkpt lat="48.18729" lon="6.57829">
        <ele>440.4</ele>
        <time>2023-03-04T13:00:24Z</time>
      </trkpt>
      <trkpt lat="48.18739" lon="6.57828">
        <ele>440.8</ele>
        <time>2023-03-04T13:00:34Z</time>
      </trkpt>
      <trkpt lat="48.18748" lon="6.57833">
        <ele>441.2</ele>
        <time>2023-03-04T13:00:44Z</time>
      </trkpt>
      <trkpt lat="48.18758" lon="6.57836">
        <ele>441.5</ele>
        <time>2023-03-04T13:00:53Z</time>
      </trkpt>
      <trkpt lat="48.18768" lon="6.5784">
        <ele>441.9</ele>
        <time>2023-03-04T13:01:02Z</time>
      </trkpt>
      <trkpt lat="48.18777" lon="6.57841">
        <ele>442.2</ele>
        <time>2023-03-04T13:01:10Z</time>
      </trkpt>
      <trkpt lat="48.18786" lon="6.57836">
        <ele>442.6</ele>
        <time>2023-03-04T13:01:23Z</time>
      </trkpt>
      <trkpt lat="48.18795" lon="6.57835">
        <ele>442.9</ele>
        <time>2023-03-04T13:01:31Z</time>
      </trkpt>
      <trkpt lat="48.18805" lon="6.57837">
        <ele>443.3</ele>
        <time>2023-03-04T13:01:42Z</time>
      </trkpt>
      <trkpt lat="48.18815" lon="6.57835">
        <ele>443.6</ele>
        <time>2023-03-04T13:01:48Z</time>
      </trkpt>
      <trkpt lat="48.18825" lon="6.57831">
        <ele>444</ele>
        <time>2023-03-04T13:01:54Z</time>
      </trkpt>
      <trkpt lat="48.18834" lon="6.57825">
        <ele>444.4</ele>
        <time>2023-03-04T13:02:01Z</time>
      </trkpt>
      <trkpt lat="48.18845" lon="6.57822">
        <ele>444.9</ele>
        <time>2023-03-04T13:02:08Z</time>
      </trkpt>
      <trkpt lat="48.18853" lon="6.57814">
        <ele>445.3</ele>
        <time>2023-03-04T13:02:16Z</time>
      </trkpt>
      <trkpt lat="48.1886" lon="6.57805">
        <ele>445.8</ele>
        <time>2023-03-04T13:02:25Z</time>
      </trkpt>
      <trkpt lat="48.18862" lon="6.57804">
        <ele>445.8</ele>
        <time>2023-03-04T13:02:31Z</time>
      </trkpt>
      <trkpt lat="48.18862" lon="6.57804">
        <ele>445.8</ele>
        <time>2023-03-04T13:02:33Z</time>
      </trkpt>
      <trkpt lat="48.18862" lon="6.57804">
        <ele>445.8</ele>
        <time>2023-03-04T13:02:35Z</time>
      </trkpt>
      <trkpt lat="48.18862" lon="6.57804">
        <ele>445.8</ele>
        <time>2023-03-04T13:02:41Z</time>
      </trkpt>
      <trkpt lat="48.18863" lon="6.57803">
        <ele>445.8</ele>
        <time>2023-03-04T13:02:48Z</time>
      </trkpt>
      <trkpt lat="48.18863" lon="6.57802">
        <ele>445.8</ele>
        <time>2023-03-04T13:02:50Z</time>
      </trkpt>
      <trkpt lat="48.18868" lon="6.57792">
        <ele>445.9</ele>
        <time>2023-03-04T13:03:07Z</time>
      </trkpt>
      <trkpt lat="48.18868" lon="6.57792">
        <ele>445.9</ele>
        <time>2023-03-04T13:03:09Z</time>
      </trkpt>
      <trkpt lat="48.18868" lon="6.57792">
        <ele>445.9</ele>
        <time>2023-03-04T13:03:10Z</time>
      </trkpt>
      <trkpt lat="48.18868" lon="6.57792">
        <ele>445.9</ele>
        <time>2023-03-04T13:03:14Z</time>
      </trkpt>
      <trkpt lat="48.18868" lon="6.57791">
        <ele>445.9</ele>
        <time>2023-03-04T13:03:17Z</time>
      </trkpt>
      <trkpt lat="48.18868" lon="6.57791">
        <ele>445.9</ele>
        <time>2023-03-04T13:03:20Z</time>
      </trkpt>
      <trkpt lat="48.18868" lon="6.57791">
        <ele>445.9</ele>
        <time>2023-03-04T13:03:21Z</time>
      </trkpt>
      <trkpt lat="48.18867" lon="6.57791">
        <ele>445.9</ele>
        <time>2023-03-04T13:03:22Z</time>
      </trkpt>
      <trkpt lat="48.18867" lon="6.5779">
        <ele>445.9</ele>
        <time>2023-03-04T13:03:24Z</time>
      </trkpt>
      <trkpt lat="48.18867" lon="6.5779">
        <ele>445.9</ele>
        <time>2023-03-04T13:03:25Z</time>
      </trkpt>
      <trkpt lat="48.18864" lon="6.57786">
        <ele>445.9</ele>
        <time>2023-03-04T13:03:35Z</time>
      </trkpt>
      <trkpt lat="48.18864" lon="6.57785">
        <ele>445.9</ele>
        <time>2023-03-04T13:03:44Z</time>
      </trkpt>
      <trkpt lat="48.18864" lon="6.57785">
        <ele>445.9</ele>
        <time>2023-03-04T13:03:45Z</time>
      </trkpt>
      <trkpt lat="48.18864" lon="6.57785">
        <ele>445.9</ele>
        <time>2023-03-04T13:03:53Z</time>
      </trkpt>
      <trkpt lat="48.18864" lon="6.57785">
        <ele>445.9</ele>
        <time>2023-03-04T13:03:54Z</time>
      </trkpt>
      <trkpt lat="48.18864" lon="6.57784">
        <ele>445.9</ele>
        <time>2023-03-04T13:03:56Z</time>
      </trkpt>
      <trkpt lat="48.18864" lon="6.57784">
        <ele>445.9</ele>
        <time>2023-03-04T13:03:57Z</time>
      </trkpt>
      <trkpt lat="48.18864" lon="6.57784">
        <ele>445.9</ele>
        <time>2023-03-04T13:04:10Z</time>
      </trkpt>
      <trkpt lat="48.18864" lon="6.57784">
        <ele>445.9</ele>
        <time>2023-03-04T13:04:11Z</time>
      </trkpt>
      <trkpt lat="48.18864" lon="6.57783">
        <ele>445.9</ele>
        <time>2023-03-04T13:04:12Z</time>
      </trkpt>
      <trkpt lat="48.18864" lon="6.57783">
        <ele>445.9</ele>
        <time>2023-03-04T13:04:13Z</time>
      </trkpt>
      <trkpt lat="48.18865" lon="6.57783">
        <ele>445.9</ele>
        <time>2023-03-04T13:04:14Z</time>
      </trkpt>
      <trkpt lat="48.18865" lon="6.57783">
        <ele>445.9</ele>
        <time>2023-03-04T13:04:15Z</time>
      </trkpt>
      <trkpt lat="48.18864" lon="6.57783">
        <ele>445.9</ele>
        <time>2023-03-04T13:04:17Z</time>
      </trkpt>
      <trkpt lat="48.18864" lon="6.57783">
        <ele>445.9</ele>
        <time>2023-03-04T13:04:18Z</time>
      </trkpt>
      <trkpt lat="48.18864" lon="6.57782">
        <ele>445.9</ele>
        <time>2023-03-04T13:04:22Z</time>
      </trkpt>
      <trkpt lat="48.18866" lon="6.57782">
        <ele>445.9</ele>
        <time>2023-03-04T13:04:28Z</time>
      </trkpt>
      <trkpt lat="48.18867" lon="6.57782">
        <ele>445.9</ele>
        <time>2023-03-04T13:04:30Z</time>
      </trkpt>
      <trkpt lat="48.18867" lon="6.57782">
        <ele>445.9</ele>
        <time>2023-03-04T13:04:31Z</time>
      </trkpt>
      <trkpt lat="48.18867" lon="6.57783">
        <ele>445.9</ele>
        <time>2023-03-04T13:04:39Z</time>
      </trkpt>
      <trkpt lat="48.18867" lon="6.57783">
        <ele>445.9</ele>
        <time>2023-03-04T13:04:40Z</time>
      </trkpt>
      <trkpt lat="48.18867" lon="6.57783">
        <ele>445.9</ele>
        <time>2023-03-04T13:04:47Z</time>
      </trkpt>
      <trkpt lat="48.18867" lon="6.57783">
        <ele>445.9</ele>
        <time>2023-03-04T13:04:48Z</time>
      </trkpt>
      <trkpt lat="48.18867" lon="6.57783">
        <ele>445.9</ele>
        <time>2023-03-04T13:05:08Z</time>
      </trkpt>
      <trkpt lat="48.18867" lon="6.57783">
        <ele>445.9</ele>
        <time>2023-03-04T13:05:09Z</time>
      </trkpt>
      <trkpt lat="48.18867" lon="6.57784">
        <ele>445.9</ele>
        <time>2023-03-04T13:05:37Z</time>
      </trkpt>
      <trkpt lat="48.18867" lon="6.57784">
        <ele>445.9</ele>
        <time>2023-03-04T13:05:38Z</time>
      </trkpt>
      <trkpt lat="48.18867" lon="6.57784">
        <ele>445.9</ele>
        <time>2023-03-04T13:05:40Z</time>
      </trkpt>
      <trkpt lat="48.18867" lon="6.57784">
        <ele>445.9</ele>
        <time>2023-03-04T13:05:41Z</time>
      </trkpt>
      <trkpt lat="48.18867" lon="6.57784">
        <ele>445.9</ele>
        <time>2023-03-04T13:05:42Z</time>
      </trkpt>
      <trkpt lat="48.18876" lon="6.57779">
        <ele>445.8</ele>
        <time>2023-03-04T13:05:55Z</time>
      </trkpt>
      <trkpt lat="48.18885" lon="6.57772">
        <ele>445.7</ele>
        <time>2023-03-04T13:06:05Z</time>
      </trkpt>
      <trkpt lat="48.18891" lon="6.57762">
        <ele>445.6</ele>
        <time>2023-03-04T13:06:14Z</time>
      </trkpt>
      <trkpt lat="48.18897" lon="6.57752">
        <ele>445.3</ele>
        <time>2023-03-04T13:06:24Z</time>
      </trkpt>
      <trkpt lat="48.18906" lon="6.57746">
        <ele>444.8</ele>
        <time>2023-03-04T13:06:34Z</time>
      </trkpt>
      <trkpt lat="48.18915" lon="6.57742">
        <ele>444.3</ele>
        <time>2023-03-04T13:06:42Z</time>
      </trkpt>
      <trkpt lat="48.18924" lon="6.57739">
        <ele>443.7</ele>
        <time>2023-03-04T13:06:52Z</time>
      </trkpt>
      <trkpt lat="48.18934" lon="6.57737">
        <ele>442.9</ele>
        <time>2023-03-04T13:07:00Z</time>
      </trkpt>
      <trkpt lat="48.18943" lon="6.57733">
        <ele>442</ele>
        <time>2023-03-04T13:07:09Z</time>
      </trkpt>
      <trkpt lat="48.18952" lon="6.57731">
        <ele>441.1</ele>
        <time>2023-03-04T13:07:17Z</time>
      </trkpt>
      <trkpt lat="48.18961" lon="6.57726">
        <ele>440.2</ele>
        <time>2023-03-04T13:07:27Z</time>
      </trkpt>
      <trkpt lat="48.1897" lon="6.57719">
        <ele>439.3</ele>
        <time>2023-03-04T13:07:35Z</time>
      </trkpt>
      <trkpt lat="48.18972" lon="6.57718">
        <ele>439.2</ele>
        <time>2023-03-04T13:07:42Z</time>
      </trkpt>
      <trkpt lat="48.18971" lon="6.57718">
        <ele>439.2</ele>
        <time>2023-03-04T13:07:48Z</time>
      </trkpt>
      <trkpt lat="48.18972" lon="6.57705">
        <ele>438.5</ele>
        <time>2023-03-04T13:08:00Z</time>
      </trkpt>
      <trkpt lat="48.18974" lon="6.5769">
        <ele>437.8</ele>
        <time>2023-03-04T13:08:10Z</time>
      </trkpt>
      <trkpt lat="48.18977" lon="6.57676">
        <ele>437.1</ele>
        <time>2023-03-04T13:08:19Z</time>
      </trkpt>
      <trkpt lat="48.18978" lon="6.57662">
        <ele>436.4</ele>
        <time>2023-03-04T13:08:28Z</time>
      </trkpt>
      <trkpt lat="48.1898" lon="6.57648">
        <ele>435.8</ele>
        <time>2023-03-04T13:08:36Z</time>
      </trkpt>
      <trkpt lat="48.18982" lon="6.57635">
        <ele>435.2</ele>
        <time>2023-03-04T13:08:44Z</time>
      </trkpt>
      <trkpt lat="48.18986" lon="6.57621">
        <ele>434.8</ele>
        <time>2023-03-04T13:08:53Z</time>
      </trkpt>
      <trkpt lat="48.1899" lon="6.57607">
        <ele>434.3</ele>
        <time>2023-03-04T13:09:02Z</time>
      </trkpt>
      <trkpt lat="48.1899" lon="6.57593">
        <ele>433.9</ele>
        <time>2023-03-04T13:09:10Z</time>
      </trkpt>
      <trkpt lat="48.18993" lon="6.57579">
        <ele>433.5</ele>
        <time>2023-03-04T13:09:19Z</time>
      </trkpt>
      <trkpt lat="48.18998" lon="6.57567">
        <ele>433.1</ele>
        <time>2023-03-04T13:09:28Z</time>
      </trkpt>
      <trkpt lat="48.19003" lon="6.57555">
        <ele>432.6</ele>
        <time>2023-03-04T13:09:37Z</time>
      </trkpt>
      <trkpt lat="48.19005" lon="6.57542">
        <ele>432.1</ele>
        <time>2023-03-04T13:09:45Z</time>
      </trkpt>
      <trkpt lat="48.19008" lon="6.57528">
        <ele>431.6</ele>
        <time>2023-03-04T13:09:53Z</time>
      </trkpt>
      <trkpt lat="48.19011" lon="6.57515">
        <ele>431.1</ele>
        <time>2023-03-04T13:10:00Z</time>
      </trkpt>
      <trkpt lat="48.19013" lon="6.57501">
        <ele>430.5</ele>
        <time>2023-03-04T13:10:08Z</time>
      </trkpt>
      <trkpt lat="48.19016" lon="6.57487">
        <ele>430.1</ele>
        <time>2023-03-04T13:10:16Z</time>
      </trkpt>
      <trkpt lat="48.19017" lon="6.57473">
        <ele>429.6</ele>
        <time>2023-03-04T13:10:24Z</time>
      </trkpt>
      <trkpt lat="48.19016" lon="6.57458">
        <ele>429</ele>
        <time>2023-03-04T13:10:32Z</time>
      </trkpt>
      <trkpt lat="48.19015" lon="6.57443">
        <ele>428.3</ele>
        <time>2023-03-04T13:10:39Z</time>
      </trkpt>
      <trkpt lat="48.19019" lon="6.57429">
        <ele>427.4</ele>
        <time>2023-03-04T13:10:47Z</time>
      </trkpt>
      <trkpt lat="48.19022" lon="6.57416">
        <ele>426.5</ele>
        <time>2023-03-04T13:10:56Z</time>
      </trkpt>
      <trkpt lat="48.1903" lon="6.57405">
        <ele>425.5</ele>
        <time>2023-03-04T13:11:04Z</time>
      </trkpt>
      <trkpt lat="48.19038" lon="6.57396">
        <ele>424.7</ele>
        <time>2023-03-04T13:11:12Z</time>
      </trkpt>
      <trkpt lat="48.1904" lon="6.57382">
        <ele>423.9</ele>
        <time>2023-03-04T13:11:20Z</time>
      </trkpt>
      <trkpt lat="48.19042" lon="6.57369">
        <ele>423.3</ele>
        <time>2023-03-04T13:11:28Z</time>
      </trkpt>
      <trkpt lat="48.19046" lon="6.57356">
        <ele>422.7</ele>
        <time>2023-03-04T13:11:37Z</time>
      </trkpt>
      <trkpt lat="48.19051" lon="6.57345">
        <ele>422.2</ele>
        <time>2023-03-04T13:11:44Z</time>
      </trkpt>
      <trkpt lat="48.19054" lon="6.57332">
        <ele>421.7</ele>
        <time>2023-03-04T13:11:52Z</time>
      </trkpt>
      <trkpt lat="48.19056" lon="6.57317">
        <ele>421.3</ele>
        <time>2023-03-04T13:12:01Z</time>
      </trkpt>
      <trkpt lat="48.19058" lon="6.57302">
        <ele>420.9</ele>
        <time>2023-03-04T13:12:09Z</time>
      </trkpt>
      <trkpt lat="48.19059" lon="6.57289">
        <ele>420.6</ele>
        <time>2023-03-04T13:12:16Z</time>
      </trkpt>
      <trkpt lat="48.19058" lon="6.57275">
        <ele>420.3</ele>
        <time>2023-03-04T13:12:28Z</time>
      </trkpt>
      <trkpt lat="48.19061" lon="6.57261">
        <ele>420</ele>
        <time>2023-03-04T13:12:35Z</time>
      </trkpt>
      <trkpt lat="48.19065" lon="6.57246">
        <ele>419.7</ele>
        <time>2023-03-04T13:12:43Z</time>
      </trkpt>
      <trkpt lat="48.19068" lon="6.57233">
        <ele>419.4</ele>
        <time>2023-03-04T13:12:50Z</time>
      </trkpt>
      <trkpt lat="48.19072" lon="6.5722">
        <ele>419.3</ele>
        <time>2023-03-04T13:12:58Z</time>
      </trkpt>
      <trkpt lat="48.19076" lon="6.57207">
        <ele>419.1</ele>
        <time>2023-03-04T13:13:06Z</time>
      </trkpt>
      <trkpt lat="48.19079" lon="6.57193">
        <ele>418.9</ele>
        <time>2023-03-04T13:13:14Z</time>
      </trkpt>
      <trkpt lat="48.19087" lon="6.57184">
        <ele>418.8</ele>
        <time>2023-03-04T13:13:21Z</time>
      </trkpt>
      <trkpt lat="48.1909" lon="6.57169">
        <ele>418.6</ele>
        <time>2023-03-04T13:13:29Z</time>
      </trkpt>
      <trkpt lat="48.19096" lon="6.57157">
        <ele>418.5</ele>
        <time>2023-03-04T13:13:38Z</time>
      </trkpt>
      <trkpt lat="48.19102" lon="6.57146">
        <ele>418.2</ele>
        <time>2023-03-04T13:13:47Z</time>
      </trkpt>
      <trkpt lat="48.19108" lon="6.57134">
        <ele>417.6</ele>
        <time>2023-03-04T13:13:56Z</time>
      </trkpt>
      <trkpt lat="48.19116" lon="6.57126">
        <ele>417</ele>
        <time>2023-03-04T13:14:02Z</time>
      </trkpt>
      <trkpt lat="48.19124" lon="6.57119">
        <ele>416.1</ele>
        <time>2023-03-04T13:14:09Z</time>
      </trkpt>
      <trkpt lat="48.1913" lon="6.57107">
        <ele>415.2</ele>
        <time>2023-03-04T13:14:17Z</time>
      </trkpt>
      <trkpt lat="48.19137" lon="6.57098">
        <ele>414.4</ele>
        <time>2023-03-04T13:14:26Z</time>
      </trkpt>
      <trkpt lat="48.19146" lon="6.5709">
        <ele>413.4</ele>
        <time>2023-03-04T13:14:34Z</time>
      </trkpt>
      <trkpt lat="48.19154" lon="6.57083">
        <ele>412.6</ele>
        <time>2023-03-04T13:14:41Z</time>
      </trkpt>
      <trkpt lat="48.19163" lon="6.57078">
        <ele>411.8</ele>
        <time>2023-03-04T13:14:49Z</time>
      </trkpt>
      <trkpt lat="48.19172" lon="6.57071">
        <ele>411.1</ele>
        <time>2023-03-04T13:14:57Z</time>
      </trkpt>
      <trkpt lat="48.1918" lon="6.57064">
        <ele>410.4</ele>
        <time>2023-03-04T13:15:06Z</time>
      </trkpt>
      <trkpt lat="48.19189" lon="6.5706">
        <ele>409.7</ele>
        <time>2023-03-04T13:15:13Z</time>
      </trkpt>
      <trkpt lat="48.19197" lon="6.57053">
        <ele>409.1</ele>
        <time>2023-03-04T13:15:20Z</time>
      </trkpt>
      <trkpt lat="48.19205" lon="6.57048">
        <ele>408.5</ele>
        <time>2023-03-04T13:15:28Z</time>
      </trkpt>
      <trkpt lat="48.19213" lon="6.57041">
        <ele>408</ele>
        <time>2023-03-04T13:15:36Z</time>
      </trkpt>
      <trkpt lat="48.19223" lon="6.57038">
        <ele>407.5</ele>
        <time>2023-03-04T13:15:46Z</time>
      </trkpt>
      <trkpt lat="48.19231" lon="6.57035">
        <ele>407.1</ele>
        <time>2023-03-04T13:15:52Z</time>
      </trkpt>
      <trkpt lat="48.1924" lon="6.57032">
        <ele>406.8</ele>
        <time>2023-03-04T13:16:04Z</time>
      </trkpt>
      <trkpt lat="48.1925" lon="6.57028">
        <ele>406.6</ele>
        <time>2023-03-04T13:16:09Z</time>
      </trkpt>
      <trkpt lat="48.19258" lon="6.57022">
        <ele>406.3</ele>
        <time>2023-03-04T13:16:13Z</time>
      </trkpt>
      <trkpt lat="48.19266" lon="6.57014">
        <ele>406.1</ele>
        <time>2023-03-04T13:16:21Z</time>
      </trkpt>
      <trkpt lat="48.19275" lon="6.57007">
        <ele>406</ele>
        <time>2023-03-04T13:16:29Z</time>
      </trkpt>
      <trkpt lat="48.1928" lon="6.57004">
        <ele>405.9</ele>
        <time>2023-03-04T13:16:38Z</time>
      </trkpt>
      <trkpt lat="48.1928" lon="6.57004">
        <ele>405.9</ele>
        <time>2023-03-04T13:16:39Z</time>
      </trkpt>
      <trkpt lat="48.19288" lon="6.56995">
        <ele>405.8</ele>
        <time>2023-03-04T13:16:47Z</time>
      </trkpt>
      <trkpt lat="48.19298" lon="6.5699">
        <ele>405.8</ele>
        <time>2023-03-04T13:16:54Z</time>
      </trkpt>
      <trkpt lat="48.193" lon="6.56983">
        <ele>405.8</ele>
        <time>2023-03-04T13:17:00Z</time>
      </trkpt>
      <trkpt lat="48.193" lon="6.56983">
        <ele>405.8</ele>
        <time>2023-03-04T13:17:01Z</time>
      </trkpt>
      <trkpt lat="48.19306" lon="6.56972">
        <ele>405.7</ele>
        <time>2023-03-04T13:17:27Z</time>
      </trkpt>
      <trkpt lat="48.19319" lon="6.56969">
        <ele>405.5</ele>
        <time>2023-03-04T13:17:33Z</time>
      </trkpt>
      <trkpt lat="48.19328" lon="6.56962">
        <ele>405.4</ele>
        <time>2023-03-04T13:17:41Z</time>
      </trkpt>
      <trkpt lat="48.19334" lon="6.56952">
        <ele>405.2</ele>
        <time>2023-03-04T13:17:52Z</time>
      </trkpt>
      <trkpt lat="48.19343" lon="6.56942">
        <ele>404.9</ele>
        <time>2023-03-04T13:18:01Z</time>
      </trkpt>
      <trkpt lat="48.19349" lon="6.56932">
        <ele>404.6</ele>
        <time>2023-03-04T13:18:10Z</time>
      </trkpt>
      <trkpt lat="48.19355" lon="6.56921">
        <ele>404.1</ele>
        <time>2023-03-04T13:18:21Z</time>
      </trkpt>
      <trkpt lat="48.19361" lon="6.5691">
        <ele>403.6</ele>
        <time>2023-03-04T13:18:30Z</time>
      </trkpt>
      <trkpt lat="48.19368" lon="6.56902">
        <ele>403.1</ele>
        <time>2023-03-04T13:18:36Z</time>
      </trkpt>
      <trkpt lat="48.19374" lon="6.56891">
        <ele>402.7</ele>
        <time>2023-03-04T13:18:45Z</time>
      </trkpt>
      <trkpt lat="48.19381" lon="6.56881">
        <ele>402.4</ele>
        <time>2023-03-04T13:18:52Z</time>
      </trkpt>
      <trkpt lat="48.19391" lon="6.56871">
        <ele>402</ele>
        <time>2023-03-04T13:18:57Z</time>
      </trkpt>
      <trkpt lat="48.19399" lon="6.56863">
        <ele>401.8</ele>
        <time>2023-03-04T13:19:06Z</time>
      </trkpt>
      <trkpt lat="48.19406" lon="6.56854">
        <ele>401.5</ele>
        <time>2023-03-04T13:19:14Z</time>
      </trkpt>
      <trkpt lat="48.19414" lon="6.56845">
        <ele>401.1</ele>
        <time>2023-03-04T13:19:21Z</time>
      </trkpt>
      <trkpt lat="48.19423" lon="6.56839">
        <ele>400.7</ele>
        <time>2023-03-04T13:19:30Z</time>
      </trkpt>
      <trkpt lat="48.19428" lon="6.56827">
        <ele>400.1</ele>
        <time>2023-03-04T13:19:38Z</time>
      </trkpt>
      <trkpt lat="48.19435" lon="6.56818">
        <ele>399.5</ele>
        <time>2023-03-04T13:19:47Z</time>
      </trkpt>
      <trkpt lat="48.19444" lon="6.56813">
        <ele>398.8</ele>
        <time>2023-03-04T13:19:54Z</time>
      </trkpt>
      <trkpt lat="48.19447" lon="6.56799">
        <ele>398.2</ele>
        <time>2023-03-04T13:20:01Z</time>
      </trkpt>
      <trkpt lat="48.19452" lon="6.56787">
        <ele>397.6</ele>
        <time>2023-03-04T13:20:10Z</time>
      </trkpt>
      <trkpt lat="48.1946" lon="6.56779">
        <ele>396.9</ele>
        <time>2023-03-04T13:20:18Z</time>
      </trkpt>
      <trkpt lat="48.19467" lon="6.56771">
        <ele>396.2</ele>
        <time>2023-03-04T13:20:34Z</time>
      </trkpt>
      <trkpt lat="48.19474" lon="6.56761">
        <ele>395.3</ele>
        <time>2023-03-04T13:20:46Z</time>
      </trkpt>
      <trkpt lat="48.19477" lon="6.56761">
        <ele>395</ele>
        <time>2023-03-04T13:20:50Z</time>
      </trkpt>
      <trkpt lat="48.19477" lon="6.56761">
        <ele>394.9</ele>
        <time>2023-03-04T13:20:51Z</time>
      </trkpt>
      <trkpt lat="48.19483" lon="6.56749">
        <ele>394</ele>
        <time>2023-03-04T13:21:05Z</time>
      </trkpt>
      <trkpt lat="48.19492" lon="6.56746">
        <ele>393.1</ele>
        <time>2023-03-04T13:21:15Z</time>
      </trkpt>
      <trkpt lat="48.19497" lon="6.56735">
        <ele>392.3</ele>
        <time>2023-03-04T13:21:23Z</time>
      </trkpt>
      <trkpt lat="48.19497" lon="6.56721">
        <ele>391.6</ele>
        <time>2023-03-04T13:21:32Z</time>
      </trkpt>
      <trkpt lat="48.19501" lon="6.56707">
        <ele>391</ele>
        <time>2023-03-04T13:21:42Z</time>
      </trkpt>
      <trkpt lat="48.19503" lon="6.56692">
        <ele>390.8</ele>
        <time>2023-03-04T13:21:51Z</time>
      </trkpt>
      <trkpt lat="48.1951" lon="6.56682">
        <ele>390.7</ele>
        <time>2023-03-04T13:22:03Z</time>
      </trkpt>
      <trkpt lat="48.19516" lon="6.56672">
        <ele>390.8</ele>
        <time>2023-03-04T13:22:11Z</time>
      </trkpt>
      <trkpt lat="48.19523" lon="6.56662">
        <ele>391</ele>
        <time>2023-03-04T13:22:21Z</time>
      </trkpt>
      <trkpt lat="48.19532" lon="6.56655">
        <ele>391.2</ele>
        <time>2023-03-04T13:22:31Z</time>
      </trkpt>
      <trkpt lat="48.1954" lon="6.56649">
        <ele>391.5</ele>
        <time>2023-03-04T13:22:38Z</time>
      </trkpt>
      <trkpt lat="48.1955" lon="6.5664">
        <ele>392</ele>
        <time>2023-03-04T13:22:42Z</time>
      </trkpt>
      <trkpt lat="48.1955" lon="6.56639">
        <ele>392.1</ele>
        <time>2023-03-04T13:22:45Z</time>
      </trkpt>
      <trkpt lat="48.1955" lon="6.56639">
        <ele>392.1</ele>
        <time>2023-03-04T13:22:49Z</time>
      </trkpt>
      <trkpt lat="48.1955" lon="6.56639">
        <ele>392.1</ele>
        <time>2023-03-04T13:22:50Z</time>
      </trkpt>
      <trkpt lat="48.19551" lon="6.56639">
        <ele>392.1</ele>
        <time>2023-03-04T13:22:52Z</time>
      </trkpt>
      <trkpt lat="48.1956" lon="6.56633">
        <ele>392.8</ele>
        <time>2023-03-04T13:23:00Z</time>
      </trkpt>
      <trkpt lat="48.19565" lon="6.5662">
        <ele>393.5</ele>
        <time>2023-03-04T13:23:08Z</time>
      </trkpt>
      <trkpt lat="48.19564" lon="6.56606">
        <ele>394.2</ele>
        <time>2023-03-04T13:23:15Z</time>
      </trkpt>
      <trkpt lat="48.19566" lon="6.56593">
        <ele>394.7</ele>
        <time>2023-03-04T13:23:28Z</time>
      </trkpt>
      <trkpt lat="48.19576" lon="6.56587">
        <ele>395.1</ele>
        <time>2023-03-04T13:23:33Z</time>
      </trkpt>
      <trkpt lat="48.19582" lon="6.56575">
        <ele>395.3</ele>
        <time>2023-03-04T13:23:43Z</time>
      </trkpt>
      <trkpt lat="48.19585" lon="6.56562">
        <ele>395.2</ele>
        <time>2023-03-04T13:23:55Z</time>
      </trkpt>
      <trkpt lat="48.19591" lon="6.56551">
        <ele>395</ele>
        <time>2023-03-04T13:24:06Z</time>
      </trkpt>
      <trkpt lat="48.19595" lon="6.56538">
        <ele>394.6</ele>
        <time>2023-03-04T13:24:14Z</time>
      </trkpt>
      <trkpt lat="48.196" lon="6.56527">
        <ele>394.1</ele>
        <time>2023-03-04T13:24:22Z</time>
      </trkpt>
      <trkpt lat="48.19606" lon="6.56515">
        <ele>393.6</ele>
        <time>2023-03-04T13:24:30Z</time>
      </trkpt>
      <trkpt lat="48.19613" lon="6.56505">
        <ele>393.1</ele>
        <time>2023-03-04T13:24:37Z</time>
      </trkpt>
      <trkpt lat="48.19617" lon="6.56493">
        <ele>392.7</ele>
        <time>2023-03-04T13:24:43Z</time>
      </trkpt>
      <trkpt lat="48.19618" lon="6.56478">
        <ele>392.2</ele>
        <time>2023-03-04T13:24:49Z</time>
      </trkpt>
      <trkpt lat="48.19615" lon="6.56464">
        <ele>391.8</ele>
        <time>2023-03-04T13:24:54Z</time>
      </trkpt>
      <trkpt lat="48.19613" lon="6.5645">
        <ele>391.5</ele>
        <time>2023-03-04T13:25:01Z</time>
      </trkpt>
      <trkpt lat="48.19614" lon="6.56436">
        <ele>391.1</ele>
        <time>2023-03-04T13:25:09Z</time>
      </trkpt>
      <trkpt lat="48.19611" lon="6.56423">
        <ele>390.8</ele>
        <time>2023-03-04T13:25:21Z</time>
      </trkpt>
      <trkpt lat="48.19612" lon="6.56408">
        <ele>390.5</ele>
        <time>2023-03-04T13:25:34Z</time>
      </trkpt>
      <trkpt lat="48.19614" lon="6.56395">
        <ele>390.1</ele>
        <time>2023-03-04T13:25:44Z</time>
      </trkpt>
      <trkpt lat="48.19623" lon="6.56388">
        <ele>389.8</ele>
        <time>2023-03-04T13:25:51Z</time>
      </trkpt>
      <trkpt lat="48.19633" lon="6.56384">
        <ele>389.5</ele>
        <time>2023-03-04T13:25:59Z</time>
      </trkpt>
      <trkpt lat="48.19642" lon="6.56381">
        <ele>389.2</ele>
        <time>2023-03-04T13:26:07Z</time>
      </trkpt>
      <trkpt lat="48.1965" lon="6.56373">
        <ele>388.9</ele>
        <time>2023-03-04T13:26:13Z</time>
      </trkpt>
      <trkpt lat="48.19657" lon="6.56364">
        <ele>388.5</ele>
        <time>2023-03-04T13:26:20Z</time>
      </trkpt>
      <trkpt lat="48.19666" lon="6.56358">
        <ele>388.1</ele>
        <time>2023-03-04T13:26:29Z</time>
      </trkpt>
      <trkpt lat="48.19671" lon="6.56346">
        <ele>387.6</ele>
        <time>2023-03-04T13:26:38Z</time>
      </trkpt>
      <trkpt lat="48.19679" lon="6.56338">
        <ele>387</ele>
        <time>2023-03-04T13:26:46Z</time>
      </trkpt>
      <trkpt lat="48.19688" lon="6.56331">
        <ele>386.5</ele>
        <time>2023-03-04T13:26:53Z</time>
      </trkpt>
      <trkpt lat="48.19697" lon="6.56325">
        <ele>386</ele>
        <time>2023-03-04T13:27:01Z</time>
      </trkpt>
      <trkpt lat="48.19706" lon="6.56323">
        <ele>385.4</ele>
        <time>2023-03-04T13:27:07Z</time>
      </trkpt>
      <trkpt lat="48.19716" lon="6.56322">
        <ele>384.6</ele>
        <time>2023-03-04T13:27:13Z</time>
      </trkpt>
      <trkpt lat="48.19725" lon="6.56319">
        <ele>383.8</ele>
        <time>2023-03-04T13:27:20Z</time>
      </trkpt>
      <trkpt lat="48.19735" lon="6.56318">
        <ele>382.9</ele>
        <time>2023-03-04T13:27:28Z</time>
      </trkpt>
      <trkpt lat="48.19744" lon="6.56316">
        <ele>381.8</ele>
        <time>2023-03-04T13:27:35Z</time>
      </trkpt>
      <trkpt lat="48.19754" lon="6.56311">
        <ele>380.8</ele>
        <time>2023-03-04T13:27:42Z</time>
      </trkpt>
      <trkpt lat="48.19761" lon="6.56304">
        <ele>379.9</ele>
        <time>2023-03-04T13:27:50Z</time>
      </trkpt>
      <trkpt lat="48.19769" lon="6.56295">
        <ele>379.1</ele>
        <time>2023-03-04T13:28:00Z</time>
      </trkpt>
      <trkpt lat="48.19769" lon="6.5629">
        <ele>378.8</ele>
        <time>2023-03-04T13:28:07Z</time>
      </trkpt>
      <trkpt lat="48.19772" lon="6.56289">
        <ele>378.6</ele>
        <time>2023-03-04T13:28:08Z</time>
      </trkpt>
      <trkpt lat="48.19779" lon="6.56281">
        <ele>377.9</ele>
        <time>2023-03-04T13:28:23Z</time>
      </trkpt>
      <trkpt lat="48.19788" lon="6.56271">
        <ele>377.1</ele>
        <time>2023-03-04T13:28:33Z</time>
      </trkpt>
      <trkpt lat="48.19797" lon="6.56264">
        <ele>376.2</ele>
        <time>2023-03-04T13:28:38Z</time>
      </trkpt>
      <trkpt lat="48.19806" lon="6.56251">
        <ele>375</ele>
        <time>2023-03-04T13:28:44Z</time>
      </trkpt>
      <trkpt lat="48.19814" lon="6.56242">
        <ele>374.1</ele>
        <time>2023-03-04T13:28:48Z</time>
      </trkpt>
      <trkpt lat="48.19823" lon="6.56235">
        <ele>373.3</ele>
        <time>2023-03-04T13:29:03Z</time>
      </trkpt>
      <trkpt lat="48.1982" lon="6.5623">
        <ele>372.9</ele>
        <time>2023-03-04T13:29:11Z</time>
      </trkpt>
      <trkpt lat="48.1982" lon="6.5623">
        <ele>372.9</ele>
        <time>2023-03-04T13:29:12Z</time>
      </trkpt>
      <trkpt lat="48.1982" lon="6.5623">
        <ele>372.9</ele>
        <time>2023-03-04T13:29:13Z</time>
      </trkpt>
      <trkpt lat="48.1982" lon="6.56231">
        <ele>372.8</ele>
        <time>2023-03-04T13:29:14Z</time>
      </trkpt>
      <trkpt lat="48.19828" lon="6.56226">
        <ele>372.2</ele>
        <time>2023-03-04T13:29:37Z</time>
      </trkpt>
      <trkpt lat="48.19828" lon="6.56226">
        <ele>372.1</ele>
        <time>2023-03-04T13:29:38Z</time>
      </trkpt>
      <trkpt lat="48.19829" lon="6.56211">
        <ele>373.1</ele>
        <time>2023-03-04T13:29:45Z</time>
      </trkpt>
      <trkpt lat="48.19836" lon="6.56201">
        <ele>373.6</ele>
        <time>2023-03-04T13:29:52Z</time>
      </trkpt>
      <trkpt lat="48.19836" lon="6.56187">
        <ele>374.1</ele>
        <time>2023-03-04T13:29:59Z</time>
      </trkpt>
      <trkpt lat="48.19836" lon="6.56173">
        <ele>374.4</ele>
        <time>2023-03-04T13:30:08Z</time>
      </trkpt>
      <trkpt lat="48.19837" lon="6.56159">
        <ele>374.6</ele>
        <time>2023-03-04T13:30:17Z</time>
      </trkpt>
      <trkpt lat="48.19842" lon="6.56146">
        <ele>374.4</ele>
        <time>2023-03-04T13:30:29Z</time>
      </trkpt>
      <trkpt lat="48.19847" lon="6.56136">
        <ele>374.2</ele>
        <time>2023-03-04T13:30:40Z</time>
      </trkpt>
      <trkpt lat="48.19848" lon="6.56122">
        <ele>373.8</ele>
        <time>2023-03-04T13:30:51Z</time>
      </trkpt>
      <trkpt lat="48.19852" lon="6.56109">
        <ele>373.5</ele>
        <time>2023-03-04T13:30:57Z</time>
      </trkpt>
      <trkpt lat="48.19856" lon="6.56097">
        <ele>373</ele>
        <time>2023-03-04T13:31:05Z</time>
      </trkpt>
      <trkpt lat="48.19863" lon="6.56087">
        <ele>372.5</ele>
        <time>2023-03-04T13:31:18Z</time>
      </trkpt>
      <trkpt lat="48.19868" lon="6.56074">
        <ele>371.6</ele>
        <time>2023-03-04T13:31:27Z</time>
      </trkpt>
      <trkpt lat="48.19873" lon="6.56061">
        <ele>370.7</ele>
        <time>2023-03-04T13:31:35Z</time>
      </trkpt>
      <trkpt lat="48.1988" lon="6.56051">
        <ele>369.7</ele>
        <time>2023-03-04T13:31:45Z</time>
      </trkpt>
      <trkpt lat="48.19887" lon="6.56041">
        <ele>368.7</ele>
        <time>2023-03-04T13:31:50Z</time>
      </trkpt>
      <trkpt lat="48.19893" lon="6.56027">
        <ele>368</ele>
        <time>2023-03-04T13:31:58Z</time>
      </trkpt>
      <trkpt lat="48.19893" lon="6.56013">
        <ele>368</ele>
        <time>2023-03-04T13:32:09Z</time>
      </trkpt>
      <trkpt lat="48.19898" lon="6.56002">
        <ele>368.4</ele>
        <time>2023-03-04T13:32:19Z</time>
      </trkpt>
      <trkpt lat="48.19904" lon="6.5599">
        <ele>368.8</ele>
        <time>2023-03-04T13:32:31Z</time>
      </trkpt>
      <trkpt lat="48.19915" lon="6.55989">
        <ele>368.9</ele>
        <time>2023-03-04T13:32:35Z</time>
      </trkpt>
      <trkpt lat="48.19925" lon="6.55987">
        <ele>368.7</ele>
        <time>2023-03-04T13:32:39Z</time>
      </trkpt>
      <trkpt lat="48.19936" lon="6.55983">
        <ele>368.2</ele>
        <time>2023-03-04T13:32:44Z</time>
      </trkpt>
      <trkpt lat="48.19948" lon="6.5598">
        <ele>367.7</ele>
        <time>2023-03-04T13:32:47Z</time>
      </trkpt>
      <trkpt lat="48.19959" lon="6.55976">
        <ele>367.2</ele>
        <time>2023-03-04T13:32:50Z</time>
      </trkpt>
      <trkpt lat="48.19968" lon="6.55975">
        <ele>366.9</ele>
        <time>2023-03-04T13:32:56Z</time>
      </trkpt>
      <trkpt lat="48.19977" lon="6.55976">
        <ele>366.5</ele>
        <time>2023-03-04T13:33:02Z</time>
      </trkpt>
      <trkpt lat="48.19987" lon="6.55973">
        <ele>366.2</ele>
        <time>2023-03-04T13:33:13Z</time>
      </trkpt>
      <trkpt lat="48.19994" lon="6.55965">
        <ele>366.2</ele>
        <time>2023-03-04T13:33:19Z</time>
      </trkpt>
      <trkpt lat="48.19998" lon="6.55951">
        <ele>366.5</ele>
        <time>2023-03-04T13:33:25Z</time>
      </trkpt>
      <trkpt lat="48.19998" lon="6.55938">
        <ele>366.8</ele>
        <time>2023-03-04T13:33:36Z</time>
      </trkpt>
      <trkpt lat="48.19996" lon="6.55924">
        <ele>367.2</ele>
        <time>2023-03-04T13:33:48Z</time>
      </trkpt>
      <trkpt lat="48.19998" lon="6.5591">
        <ele>367.5</ele>
        <time>2023-03-04T13:34:02Z</time>
      </trkpt>
      <trkpt lat="48.19995" lon="6.55895">
        <ele>367.6</ele>
        <time>2023-03-04T13:34:13Z</time>
      </trkpt>
      <trkpt lat="48.1999" lon="6.55885">
        <ele>367.7</ele>
        <time>2023-03-04T13:34:21Z</time>
      </trkpt>
      <trkpt lat="48.19984" lon="6.55874">
        <ele>367.8</ele>
        <time>2023-03-04T13:34:30Z</time>
      </trkpt>
      <trkpt lat="48.19977" lon="6.55866">
        <ele>367.8</ele>
        <time>2023-03-04T13:34:34Z</time>
      </trkpt>
      <trkpt lat="48.1997" lon="6.55853">
        <ele>368</ele>
        <time>2023-03-04T13:34:40Z</time>
      </trkpt>
      <trkpt lat="48.19965" lon="6.5584">
        <ele>368.1</ele>
        <time>2023-03-04T13:34:46Z</time>
      </trkpt>
      <trkpt lat="48.19959" lon="6.55827">
        <ele>368.4</ele>
        <time>2023-03-04T13:34:53Z</time>
      </trkpt>
      <trkpt lat="48.19952" lon="6.55817">
        <ele>368.6</ele>
        <time>2023-03-04T13:34:56Z</time>
      </trkpt>
      <trkpt lat="48.19946" lon="6.55806">
        <ele>368.9</ele>
        <time>2023-03-04T13:35:03Z</time>
      </trkpt>
      <trkpt lat="48.19951" lon="6.55793">
        <ele>368.9</ele>
        <time>2023-03-04T13:35:12Z</time>
      </trkpt>
      <trkpt lat="48.19959" lon="6.55787">
        <ele>368.7</ele>
        <time>2023-03-04T13:35:18Z</time>
      </trkpt>
      <trkpt lat="48.19965" lon="6.55773">
        <ele>368.4</ele>
        <time>2023-03-04T13:35:24Z</time>
      </trkpt>
      <trkpt lat="48.19975" lon="6.55766">
        <ele>368.2</ele>
        <time>2023-03-04T13:35:30Z</time>
      </trkpt>
      <trkpt lat="48.19981" lon="6.55756">
        <ele>368.1</ele>
        <time>2023-03-04T13:35:40Z</time>
      </trkpt>
      <trkpt lat="48.19982" lon="6.55741">
        <ele>368</ele>
        <time>2023-03-04T13:35:49Z</time>
      </trkpt>
      <trkpt lat="48.19986" lon="6.55728">
        <ele>367.9</ele>
        <time>2023-03-04T13:35:59Z</time>
      </trkpt>
      <trkpt lat="48.19983" lon="6.55715">
        <ele>367.9</ele>
        <time>2023-03-04T13:36:09Z</time>
      </trkpt>
      <trkpt lat="48.19981" lon="6.55701">
        <ele>368.3</ele>
        <time>2023-03-04T13:36:16Z</time>
      </trkpt>
      <trkpt lat="48.19979" lon="6.55688">
        <ele>368.7</ele>
        <time>2023-03-04T13:36:21Z</time>
      </trkpt>
      <trkpt lat="48.19977" lon="6.55674">
        <ele>369.1</ele>
        <time>2023-03-04T13:36:27Z</time>
      </trkpt>
      <trkpt lat="48.19971" lon="6.55662">
        <ele>369.5</ele>
        <time>2023-03-04T13:36:33Z</time>
      </trkpt>
      <trkpt lat="48.19967" lon="6.5565">
        <ele>369.9</ele>
        <time>2023-03-04T13:36:42Z</time>
      </trkpt>
      <trkpt lat="48.19964" lon="6.55636">
        <ele>370.4</ele>
        <time>2023-03-04T13:36:56Z</time>
      </trkpt>
      <trkpt lat="48.19964" lon="6.55622">
        <ele>370.8</ele>
        <time>2023-03-04T13:37:03Z</time>
      </trkpt>
      <trkpt lat="48.1996" lon="6.5561">
        <ele>371.2</ele>
        <time>2023-03-04T13:37:10Z</time>
      </trkpt>
      <trkpt lat="48.19958" lon="6.55595">
        <ele>371.5</ele>
        <time>2023-03-04T13:37:18Z</time>
      </trkpt>
      <trkpt lat="48.19952" lon="6.55584">
        <ele>371.8</ele>
        <time>2023-03-04T13:37:24Z</time>
      </trkpt>
      <trkpt lat="48.19945" lon="6.55575">
        <ele>372</ele>
        <time>2023-03-04T13:37:32Z</time>
      </trkpt>
      <trkpt lat="48.19941" lon="6.55562">
        <ele>372.2</ele>
        <time>2023-03-04T13:37:41Z</time>
      </trkpt>
      <trkpt lat="48.19936" lon="6.5555">
        <ele>372.4</ele>
        <time>2023-03-04T13:37:50Z</time>
      </trkpt>
      <trkpt lat="48.19929" lon="6.55537">
        <ele>372.7</ele>
        <time>2023-03-04T13:37:58Z</time>
      </trkpt>
      <trkpt lat="48.19923" lon="6.55528">
        <ele>372.9</ele>
        <time>2023-03-04T13:38:06Z</time>
      </trkpt>
      <trkpt lat="48.1992" lon="6.55514">
        <ele>373.1</ele>
        <time>2023-03-04T13:38:13Z</time>
      </trkpt>
      <trkpt lat="48.19914" lon="6.55504">
        <ele>373.2</ele>
        <time>2023-03-04T13:38:18Z</time>
      </trkpt>
      <trkpt lat="48.19908" lon="6.55492">
        <ele>373.3</ele>
        <time>2023-03-04T13:38:23Z</time>
      </trkpt>
      <trkpt lat="48.199" lon="6.55481">
        <ele>373.3</ele>
        <time>2023-03-04T13:38:28Z</time>
      </trkpt>
      <trkpt lat="48.19894" lon="6.55472">
        <ele>373.3</ele>
        <time>2023-03-04T13:38:34Z</time>
      </trkpt>
      <trkpt lat="48.19886" lon="6.55464">
        <ele>373.3</ele>
        <time>2023-03-04T13:38:37Z</time>
      </trkpt>
      <trkpt lat="48.19878" lon="6.55455">
        <ele>373.2</ele>
        <time>2023-03-04T13:38:47Z</time>
      </trkpt>
      <trkpt lat="48.19867" lon="6.55455">
        <ele>373.2</ele>
        <time>2023-03-04T13:38:51Z</time>
      </trkpt>
      <trkpt lat="48.19859" lon="6.55447">
        <ele>373.1</ele>
        <time>2023-03-04T13:38:59Z</time>
      </trkpt>
      <trkpt lat="48.19853" lon="6.55436">
        <ele>372.9</ele>
        <time>2023-03-04T13:39:13Z</time>
      </trkpt>
      <trkpt lat="48.19849" lon="6.55424">
        <ele>372.7</ele>
        <time>2023-03-04T13:39:22Z</time>
      </trkpt>
      <trkpt lat="48.1984" lon="6.55418">
        <ele>372.4</ele>
        <time>2023-03-04T13:39:27Z</time>
      </trkpt>
      <trkpt lat="48.19831" lon="6.55412">
        <ele>372</ele>
        <time>2023-03-04T13:39:32Z</time>
      </trkpt>
      <trkpt lat="48.19822" lon="6.55408">
        <ele>371.6</ele>
        <time>2023-03-04T13:39:39Z</time>
      </trkpt>
      <trkpt lat="48.19816" lon="6.55394">
        <ele>371.2</ele>
        <time>2023-03-04T13:39:45Z</time>
      </trkpt>
      <trkpt lat="48.19811" lon="6.55381">
        <ele>370.7</ele>
        <time>2023-03-04T13:39:50Z</time>
      </trkpt>
      <trkpt lat="48.19803" lon="6.55376">
        <ele>370.3</ele>
        <time>2023-03-04T13:39:57Z</time>
      </trkpt>
      <trkpt lat="48.19795" lon="6.55366">
        <ele>369.9</ele>
        <time>2023-03-04T13:40:01Z</time>
      </trkpt>
      <trkpt lat="48.19795" lon="6.55351">
        <ele>369.5</ele>
        <time>2023-03-04T13:40:09Z</time>
      </trkpt>
      <trkpt lat="48.19789" lon="6.5534">
        <ele>369.2</ele>
        <time>2023-03-04T13:40:20Z</time>
      </trkpt>
      <trkpt lat="48.19786" lon="6.55339">
        <ele>369.1</ele>
        <time>2023-03-04T13:40:25Z</time>
      </trkpt>
      <trkpt lat="48.19786" lon="6.55338">
        <ele>369</ele>
        <time>2023-03-04T13:40:26Z</time>
      </trkpt>
      <trkpt lat="48.19782" lon="6.55324">
        <ele>368.8</ele>
        <time>2023-03-04T13:40:37Z</time>
      </trkpt>
      <trkpt lat="48.19776" lon="6.55312">
        <ele>368.6</ele>
        <time>2023-03-04T13:40:47Z</time>
      </trkpt>
      <trkpt lat="48.19769" lon="6.55299">
        <ele>368.4</ele>
        <time>2023-03-04T13:40:53Z</time>
      </trkpt>
      <trkpt lat="48.19763" lon="6.55288">
        <ele>368.3</ele>
        <time>2023-03-04T13:41:03Z</time>
      </trkpt>
      <trkpt lat="48.19757" lon="6.55277">
        <ele>368.1</ele>
        <time>2023-03-04T13:41:10Z</time>
      </trkpt>
      <trkpt lat="48.19754" lon="6.55263">
        <ele>368</ele>
        <time>2023-03-04T13:41:21Z</time>
      </trkpt>
      <trkpt lat="48.19746" lon="6.55256">
        <ele>367.9</ele>
        <time>2023-03-04T13:41:30Z</time>
      </trkpt>
      <trkpt lat="48.19738" lon="6.55245">
        <ele>367.8</ele>
        <time>2023-03-04T13:41:39Z</time>
      </trkpt>
      <trkpt lat="48.19732" lon="6.55235">
        <ele>367.7</ele>
        <time>2023-03-04T13:41:44Z</time>
      </trkpt>
      <trkpt lat="48.19724" lon="6.55228">
        <ele>367.7</ele>
        <time>2023-03-04T13:41:49Z</time>
      </trkpt>
      <trkpt lat="48.19714" lon="6.55225">
        <ele>367.8</ele>
        <time>2023-03-04T13:41:59Z</time>
      </trkpt>
      <trkpt lat="48.19705" lon="6.55221">
        <ele>367.9</ele>
        <time>2023-03-04T13:42:04Z</time>
      </trkpt>
      <trkpt lat="48.19696" lon="6.55213">
        <ele>368.1</ele>
        <time>2023-03-04T13:42:09Z</time>
      </trkpt>
      <trkpt lat="48.19687" lon="6.55212">
        <ele>368.4</ele>
        <time>2023-03-04T13:42:16Z</time>
      </trkpt>
      <trkpt lat="48.19678" lon="6.55205">
        <ele>368.5</ele>
        <time>2023-03-04T13:42:24Z</time>
      </trkpt>
      <trkpt lat="48.19669" lon="6.552">
        <ele>368.6</ele>
        <time>2023-03-04T13:42:29Z</time>
      </trkpt>
      <trkpt lat="48.19661" lon="6.55193">
        <ele>368.7</ele>
        <time>2023-03-04T13:42:38Z</time>
      </trkpt>
      <trkpt lat="48.19653" lon="6.55186">
        <ele>368.7</ele>
        <time>2023-03-04T13:42:50Z</time>
      </trkpt>
      <trkpt lat="48.19644" lon="6.55182">
        <ele>368.8</ele>
        <time>2023-03-04T13:42:58Z</time>
      </trkpt>
      <trkpt lat="48.19634" lon="6.55179">
        <ele>368.9</ele>
        <time>2023-03-04T13:43:04Z</time>
      </trkpt>
      <trkpt lat="48.19624" lon="6.55174">
        <ele>369.1</ele>
        <time>2023-03-04T13:43:11Z</time>
      </trkpt>
      <trkpt lat="48.19615" lon="6.55166">
        <ele>369.2</ele>
        <time>2023-03-04T13:43:22Z</time>
      </trkpt>
      <trkpt lat="48.19607" lon="6.55156">
        <ele>369.2</ele>
        <time>2023-03-04T13:43:30Z</time>
      </trkpt>
      <trkpt lat="48.196" lon="6.55145">
        <ele>369.2</ele>
        <time>2023-03-04T13:43:40Z</time>
      </trkpt>
      <trkpt lat="48.19591" lon="6.55143">
        <ele>369</ele>
        <time>2023-03-04T13:43:52Z</time>
      </trkpt>
      <trkpt lat="48.19583" lon="6.55133">
        <ele>368.7</ele>
        <time>2023-03-04T13:44:02Z</time>
      </trkpt>
      <trkpt lat="48.19582" lon="6.5512">
        <ele>368.4</ele>
        <time>2023-03-04T13:44:17Z</time>
      </trkpt>
      <trkpt lat="48.19574" lon="6.55111">
        <ele>368.1</ele>
        <time>2023-03-04T13:44:26Z</time>
      </trkpt>
      <trkpt lat="48.19565" lon="6.55105">
        <ele>367.8</ele>
        <time>2023-03-04T13:44:36Z</time>
      </trkpt>
      <trkpt lat="48.19556" lon="6.551">
        <ele>367.5</ele>
        <time>2023-03-04T13:44:47Z</time>
      </trkpt>
      <trkpt lat="48.1955" lon="6.55089">
        <ele>367.2</ele>
        <time>2023-03-04T13:44:55Z</time>
      </trkpt>
      <trkpt lat="48.19543" lon="6.55077">
        <ele>367</ele>
        <time>2023-03-04T13:45:01Z</time>
      </trkpt>
      <trkpt lat="48.1954" lon="6.55065">
        <ele>366.8</ele>
        <time>2023-03-04T13:45:14Z</time>
      </trkpt>
      <trkpt lat="48.19532" lon="6.55056">
        <ele>366.6</ele>
        <time>2023-03-04T13:45:33Z</time>
      </trkpt>
      <trkpt lat="48.19529" lon="6.55043">
        <ele>366.4</ele>
        <time>2023-03-04T13:45:45Z</time>
      </trkpt>
      <trkpt lat="48.19524" lon="6.55032">
        <ele>366.2</ele>
        <time>2023-03-04T13:45:54Z</time>
      </trkpt>
      <trkpt lat="48.19518" lon="6.55018">
        <ele>365.9</ele>
        <time>2023-03-04T13:45:59Z</time>
      </trkpt>
      <trkpt lat="48.19512" lon="6.55006">
        <ele>365.6</ele>
        <time>2023-03-04T13:46:07Z</time>
      </trkpt>
      <trkpt lat="48.19504" lon="6.54998">
        <ele>365.2</ele>
        <time>2023-03-04T13:46:15Z</time>
      </trkpt>
      <trkpt lat="48.19499" lon="6.54988">
        <ele>364.8</ele>
        <time>2023-03-04T13:46:27Z</time>
      </trkpt>
      <trkpt lat="48.19494" lon="6.54984">
        <ele>364.6</ele>
        <time>2023-03-04T13:46:38Z</time>
      </trkpt>
      <trkpt lat="48.19494" lon="6.54984">
        <ele>364.5</ele>
        <time>2023-03-04T13:46:39Z</time>
      </trkpt>
      <trkpt lat="48.19484" lon="6.54977">
        <ele>364</ele>
        <time>2023-03-04T13:46:44Z</time>
      </trkpt>
      <trkpt lat="48.19475" lon="6.54971">
        <ele>363.7</ele>
        <time>2023-03-04T13:46:50Z</time>
      </trkpt>
      <trkpt lat="48.19466" lon="6.54966">
        <ele>363.4</ele>
        <time>2023-03-04T13:46:56Z</time>
      </trkpt>
      <trkpt lat="48.1946" lon="6.54956">
        <ele>363.2</ele>
        <time>2023-03-04T13:47:03Z</time>
      </trkpt>
      <trkpt lat="48.19461" lon="6.54957">
        <ele>363.2</ele>
        <time>2023-03-04T13:47:04Z</time>
      </trkpt>
      <trkpt lat="48.19454" lon="6.54947">
        <ele>362.9</ele>
        <time>2023-03-04T13:47:13Z</time>
      </trkpt>
      <trkpt lat="48.19448" lon="6.54936">
        <ele>362.7</ele>
        <time>2023-03-04T13:47:20Z</time>
      </trkpt>
      <trkpt lat="48.1944" lon="6.54928">
        <ele>362.3</ele>
        <time>2023-03-04T13:47:33Z</time>
      </trkpt>
      <trkpt lat="48.19432" lon="6.5492">
        <ele>361.9</ele>
        <time>2023-03-04T13:47:43Z</time>
      </trkpt>
      <trkpt lat="48.19423" lon="6.54915">
        <ele>361.4</ele>
        <time>2023-03-04T13:47:49Z</time>
      </trkpt>
      <trkpt lat="48.19414" lon="6.54908">
        <ele>360.7</ele>
        <time>2023-03-04T13:47:58Z</time>
      </trkpt>
      <trkpt lat="48.19406" lon="6.549">
        <ele>359.9</ele>
        <time>2023-03-04T13:48:06Z</time>
      </trkpt>
      <trkpt lat="48.19399" lon="6.54891">
        <ele>359.2</ele>
        <time>2023-03-04T13:48:17Z</time>
      </trkpt>
      <trkpt lat="48.19391" lon="6.54883">
        <ele>358.3</ele>
        <time>2023-03-04T13:48:27Z</time>
      </trkpt>
      <trkpt lat="48.19382" lon="6.54876">
        <ele>357.5</ele>
        <time>2023-03-04T13:48:33Z</time>
      </trkpt>
      <trkpt lat="48.19373" lon="6.54874">
        <ele>356.7</ele>
        <time>2023-03-04T13:48:41Z</time>
      </trkpt>
      <trkpt lat="48.19364" lon="6.54867">
        <ele>356</ele>
        <time>2023-03-04T13:48:50Z</time>
      </trkpt>
      <trkpt lat="48.19357" lon="6.54858">
        <ele>355.4</ele>
        <time>2023-03-04T13:48:58Z</time>
      </trkpt>
      <trkpt lat="48.19351" lon="6.54851">
        <ele>354.9</ele>
        <time>2023-03-04T13:49:10Z</time>
      </trkpt>
      <trkpt lat="48.19351" lon="6.54851">
        <ele>354.9</ele>
        <time>2023-03-04T13:49:11Z</time>
      </trkpt>
      <trkpt lat="48.1935" lon="6.54836">
        <ele>354.3</ele>
        <time>2023-03-04T13:49:23Z</time>
      </trkpt>
      <trkpt lat="48.19344" lon="6.54824">
        <ele>353.8</ele>
        <time>2023-03-04T13:49:34Z</time>
      </trkpt>
      <trkpt lat="48.19344" lon="6.54826">
        <ele>353.7</ele>
        <time>2023-03-04T13:49:45Z</time>
      </trkpt>
      <trkpt lat="48.19345" lon="6.54826">
        <ele>353.7</ele>
        <time>2023-03-04T13:49:49Z</time>
      </trkpt>
      <trkpt lat="48.19345" lon="6.54828">
        <ele>353.7</ele>
        <time>2023-03-04T13:49:53Z</time>
      </trkpt>
      <trkpt lat="48.19346" lon="6.54829">
        <ele>353.7</ele>
        <time>2023-03-04T13:49:54Z</time>
      </trkpt>
      <trkpt lat="48.19347" lon="6.54829">
        <ele>353.6</ele>
        <time>2023-03-04T13:49:58Z</time>
      </trkpt>
      <trkpt lat="48.19346" lon="6.54829">
        <ele>353.6</ele>
        <time>2023-03-04T13:49:59Z</time>
      </trkpt>
      <trkpt lat="48.1935" lon="6.54823">
        <ele>353.4</ele>
        <time>2023-03-04T13:50:16Z</time>
      </trkpt>
      <trkpt lat="48.19351" lon="6.54823">
        <ele>353.4</ele>
        <time>2023-03-04T13:50:17Z</time>
      </trkpt>
      <trkpt lat="48.19354" lon="6.5481">
        <ele>353.1</ele>
        <time>2023-03-04T13:50:29Z</time>
      </trkpt>
      <trkpt lat="48.19355" lon="6.54795">
        <ele>352.9</ele>
        <time>2023-03-04T13:50:39Z</time>
      </trkpt>
      <trkpt lat="48.19362" lon="6.54783">
        <ele>352.6</ele>
        <time>2023-03-04T13:50:46Z</time>
      </trkpt>
      <trkpt lat="48.19367" lon="6.54772">
        <ele>352.5</ele>
        <time>2023-03-04T13:50:53Z</time>
      </trkpt>
      <trkpt lat="48.19371" lon="6.5476">
        <ele>352.4</ele>
        <time>2023-03-04T13:51:02Z</time>
      </trkpt>
      <trkpt lat="48.19375" lon="6.54748">
        <ele>352.2</ele>
        <time>2023-03-04T13:51:10Z</time>
      </trkpt>
      <trkpt lat="48.19377" lon="6.54734">
        <ele>351.9</ele>
        <time>2023-03-04T13:51:18Z</time>
      </trkpt>
      <trkpt lat="48.19376" lon="6.54719">
        <ele>351.7</ele>
        <time>2023-03-04T13:51:27Z</time>
      </trkpt>
      <trkpt lat="48.19371" lon="6.54707">
        <ele>351.4</ele>
        <time>2023-03-04T13:51:35Z</time>
      </trkpt>
      <trkpt lat="48.19366" lon="6.54694">
        <ele>351.2</ele>
        <time>2023-03-04T13:51:43Z</time>
      </trkpt>
      <trkpt lat="48.1936" lon="6.54684">
        <ele>351.1</ele>
        <time>2023-03-04T13:51:52Z</time>
      </trkpt>
      <trkpt lat="48.19353" lon="6.54673">
        <ele>351</ele>
        <time>2023-03-04T13:52:01Z</time>
      </trkpt>
      <trkpt lat="48.19348" lon="6.54662">
        <ele>351.1</ele>
        <time>2023-03-04T13:52:09Z</time>
      </trkpt>
      <trkpt lat="48.19343" lon="6.54649">
        <ele>351.2</ele>
        <time>2023-03-04T13:52:18Z</time>
      </trkpt>
      <trkpt lat="48.19336" lon="6.54638">
        <ele>351.4</ele>
        <time>2023-03-04T13:52:27Z</time>
      </trkpt>
      <trkpt lat="48.19328" lon="6.54633">
        <ele>351.5</ele>
        <time>2023-03-04T13:52:46Z</time>
      </trkpt>
      <trkpt lat="48.19318" lon="6.54629">
        <ele>351.7</ele>
        <time>2023-03-04T13:52:58Z</time>
      </trkpt>
      <trkpt lat="48.19309" lon="6.54626">
        <ele>352</ele>
        <time>2023-03-04T13:53:08Z</time>
      </trkpt>
      <trkpt lat="48.19299" lon="6.54622">
        <ele>352.3</ele>
        <time>2023-03-04T13:53:20Z</time>
      </trkpt>
      <trkpt lat="48.1929" lon="6.5462">
        <ele>352.7</ele>
        <time>2023-03-04T13:53:31Z</time>
      </trkpt>
      <trkpt lat="48.19291" lon="6.54621">
        <ele>352.7</ele>
        <time>2023-03-04T13:53:34Z</time>
      </trkpt>
      <trkpt lat="48.19291" lon="6.5462">
        <ele>352.7</ele>
        <time>2023-03-04T13:53:35Z</time>
      </trkpt>
      <trkpt lat="48.19285" lon="6.54618">
        <ele>353</ele>
        <time>2023-03-04T13:53:46Z</time>
      </trkpt>
      <trkpt lat="48.19285" lon="6.54618">
        <ele>353.1</ele>
        <time>2023-03-04T13:53:47Z</time>
      </trkpt>
      <trkpt lat="48.19275" lon="6.54618">
        <ele>353.5</ele>
        <time>2023-03-04T13:53:58Z</time>
      </trkpt>
      <trkpt lat="48.19265" lon="6.5461">
        <ele>354.1</ele>
        <time>2023-03-04T13:54:04Z</time>
      </trkpt>
      <trkpt lat="48.19258" lon="6.54602">
        <ele>354.6</ele>
        <time>2023-03-04T13:54:10Z</time>
      </trkpt>
      <trkpt lat="48.19251" lon="6.54592">
        <ele>355.2</ele>
        <time>2023-03-04T13:54:19Z</time>
      </trkpt>
      <trkpt lat="48.19246" lon="6.54579">
        <ele>356</ele>
        <time>2023-03-04T13:54:34Z</time>
      </trkpt>
      <trkpt lat="48.19242" lon="6.54567">
        <ele>356.7</ele>
        <time>2023-03-04T13:54:43Z</time>
      </trkpt>
      <trkpt lat="48.19239" lon="6.54553">
        <ele>357.2</ele>
        <time>2023-03-04T13:54:50Z</time>
      </trkpt>
      <trkpt lat="48.19235" lon="6.54539">
        <ele>357.8</ele>
        <time>2023-03-04T13:54:59Z</time>
      </trkpt>
      <trkpt lat="48.19229" lon="6.54527">
        <ele>358.3</ele>
        <time>2023-03-04T13:55:05Z</time>
      </trkpt>
      <trkpt lat="48.19224" lon="6.54515">
        <ele>358.8</ele>
        <time>2023-03-04T13:55:16Z</time>
      </trkpt>
      <trkpt lat="48.19223" lon="6.54502">
        <ele>359.3</ele>
        <time>2023-03-04T13:55:27Z</time>
      </trkpt>
      <trkpt lat="48.19224" lon="6.54488">
        <ele>359.8</ele>
        <time>2023-03-04T13:55:39Z</time>
      </trkpt>
      <trkpt lat="48.19223" lon="6.54478">
        <ele>360.2</ele>
        <time>2023-03-04T13:55:50Z</time>
      </trkpt>
      <trkpt lat="48.19223" lon="6.54477">
        <ele>360.2</ele>
        <time>2023-03-04T13:55:51Z</time>
      </trkpt>
      <trkpt lat="48.19224" lon="6.54463">
        <ele>360.7</ele>
        <time>2023-03-04T13:56:03Z</time>
      </trkpt>
      <trkpt lat="48.19224" lon="6.54449">
        <ele>361.1</ele>
        <time>2023-03-04T13:56:11Z</time>
      </trkpt>
      <trkpt lat="48.19223" lon="6.54434">
        <ele>361.4</ele>
        <time>2023-03-04T13:56:19Z</time>
      </trkpt>
      <trkpt lat="48.19224" lon="6.5442">
        <ele>361.4</ele>
        <time>2023-03-04T13:56:26Z</time>
      </trkpt>
      <trkpt lat="48.19229" lon="6.54408">
        <ele>361.4</ele>
        <time>2023-03-04T13:56:34Z</time>
      </trkpt>
      <trkpt lat="48.1923" lon="6.54394">
        <ele>361.4</ele>
        <time>2023-03-04T13:56:42Z</time>
      </trkpt>
      <trkpt lat="48.19235" lon="6.5438">
        <ele>361.4</ele>
        <time>2023-03-04T13:56:50Z</time>
      </trkpt>
      <trkpt lat="48.19241" lon="6.54369">
        <ele>361.4</ele>
        <time>2023-03-04T13:56:57Z</time>
      </trkpt>
      <trkpt lat="48.19245" lon="6.54355">
        <ele>361.3</ele>
        <time>2023-03-04T13:57:07Z</time>
      </trkpt>
      <trkpt lat="48.19249" lon="6.54343">
        <ele>361.2</ele>
        <time>2023-03-04T13:57:17Z</time>
      </trkpt>
      <trkpt lat="48.19254" lon="6.5433">
        <ele>361</ele>
        <time>2023-03-04T13:57:24Z</time>
      </trkpt>
      <trkpt lat="48.19258" lon="6.54316">
        <ele>360.8</ele>
        <time>2023-03-04T13:57:33Z</time>
      </trkpt>
      <trkpt lat="48.19262" lon="6.54304">
        <ele>360.6</ele>
        <time>2023-03-04T13:57:38Z</time>
      </trkpt>
      <trkpt lat="48.19261" lon="6.54289">
        <ele>360.6</ele>
        <time>2023-03-04T13:57:45Z</time>
      </trkpt>
      <trkpt lat="48.19263" lon="6.54275">
        <ele>360.6</ele>
        <time>2023-03-04T13:57:54Z</time>
      </trkpt>
      <trkpt lat="48.19265" lon="6.54261">
        <ele>360.5</ele>
        <time>2023-03-04T13:58:02Z</time>
      </trkpt>
      <trkpt lat="48.19269" lon="6.54248">
        <ele>360.3</ele>
        <time>2023-03-04T13:58:13Z</time>
      </trkpt>
      <trkpt lat="48.19275" lon="6.54237">
        <ele>359.9</ele>
        <time>2023-03-04T13:58:23Z</time>
      </trkpt>
      <trkpt lat="48.19281" lon="6.54226">
        <ele>359.2</ele>
        <time>2023-03-04T13:58:32Z</time>
      </trkpt>
      <trkpt lat="48.19288" lon="6.54215">
        <ele>358.4</ele>
        <time>2023-03-04T13:58:37Z</time>
      </trkpt>
      <trkpt lat="48.19291" lon="6.54202">
        <ele>357.8</ele>
        <time>2023-03-04T13:58:43Z</time>
      </trkpt>
      <trkpt lat="48.19295" lon="6.54189">
        <ele>357.2</ele>
        <time>2023-03-04T13:58:50Z</time>
      </trkpt>
      <trkpt lat="48.193" lon="6.54176">
        <ele>356.7</ele>
        <time>2023-03-04T13:58:59Z</time>
      </trkpt>
      <trkpt lat="48.19303" lon="6.54162">
        <ele>356.3</ele>
        <time>2023-03-04T13:59:07Z</time>
      </trkpt>
      <trkpt lat="48.19304" lon="6.54147">
        <ele>356</ele>
        <time>2023-03-04T13:59:13Z</time>
      </trkpt>
      <trkpt lat="48.19308" lon="6.54134">
        <ele>355.7</ele>
        <time>2023-03-04T13:59:19Z</time>
      </trkpt>
      <trkpt lat="48.19312" lon="6.5412">
        <ele>355.4</ele>
        <time>2023-03-04T13:59:27Z</time>
      </trkpt>
      <trkpt lat="48.19314" lon="6.54106">
        <ele>355.1</ele>
        <time>2023-03-04T13:59:36Z</time>
      </trkpt>
      <trkpt lat="48.19317" lon="6.54092">
        <ele>354.8</ele>
        <time>2023-03-04T13:59:43Z</time>
      </trkpt>
      <trkpt lat="48.19321" lon="6.54077">
        <ele>354.5</ele>
        <time>2023-03-04T13:59:50Z</time>
      </trkpt>
      <trkpt lat="48.19325" lon="6.54065">
        <ele>354.1</ele>
        <time>2023-03-04T13:59:57Z</time>
      </trkpt>
      <trkpt lat="48.1933" lon="6.54052">
        <ele>353.8</ele>
        <time>2023-03-04T14:00:05Z</time>
      </trkpt>
      <trkpt lat="48.19336" lon="6.54041">
        <ele>353.6</ele>
        <time>2023-03-04T14:00:14Z</time>
      </trkpt>
      <trkpt lat="48.19339" lon="6.54026">
        <ele>353.2</ele>
        <time>2023-03-04T14:00:23Z</time>
      </trkpt>
      <trkpt lat="48.19344" lon="6.54014">
        <ele>353</ele>
        <time>2023-03-04T14:00:28Z</time>
      </trkpt>
      <trkpt lat="48.19349" lon="6.54002">
        <ele>352.7</ele>
        <time>2023-03-04T14:00:36Z</time>
      </trkpt>
      <trkpt lat="48.19353" lon="6.53989">
        <ele>352.5</ele>
        <time>2023-03-04T14:00:44Z</time>
      </trkpt>
      <trkpt lat="48.19357" lon="6.53977">
        <ele>352.3</ele>
        <time>2023-03-04T14:00:51Z</time>
      </trkpt>
      <trkpt lat="48.19362" lon="6.53963">
        <ele>352</ele>
        <time>2023-03-04T14:00:59Z</time>
      </trkpt>
      <trkpt lat="48.19365" lon="6.53949">
        <ele>351.9</ele>
        <time>2023-03-04T14:01:07Z</time>
      </trkpt>
      <trkpt lat="48.19371" lon="6.53939">
        <ele>351.7</ele>
        <time>2023-03-04T14:01:19Z</time>
      </trkpt>
      <trkpt lat="48.19378" lon="6.53929">
        <ele>351.6</ele>
        <time>2023-03-04T14:01:26Z</time>
      </trkpt>
      <trkpt lat="48.19383" lon="6.53917">
        <ele>351.4</ele>
        <time>2023-03-04T14:01:32Z</time>
      </trkpt>
      <trkpt lat="48.19388" lon="6.53909">
        <ele>351.4</ele>
        <time>2023-03-04T14:01:40Z</time>
      </trkpt>
      <trkpt lat="48.19388" lon="6.53909">
        <ele>351.4</ele>
        <time>2023-03-04T14:01:41Z</time>
      </trkpt>
      <trkpt lat="48.19387" lon="6.53907">
        <ele>351.4</ele>
        <time>2023-03-04T14:01:47Z</time>
      </trkpt>
      <trkpt lat="48.19387" lon="6.53907">
        <ele>351.4</ele>
        <time>2023-03-04T14:01:48Z</time>
      </trkpt>
      <trkpt lat="48.19387" lon="6.53907">
        <ele>351.4</ele>
        <time>2023-03-04T14:01:50Z</time>
      </trkpt>
      <trkpt lat="48.19387" lon="6.53907">
        <ele>351.4</ele>
        <time>2023-03-04T14:01:54Z</time>
      </trkpt>
      <trkpt lat="48.19387" lon="6.53908">
        <ele>351.3</ele>
        <time>2023-03-04T14:01:59Z</time>
      </trkpt>
      <trkpt lat="48.19387" lon="6.53907">
        <ele>351.3</ele>
        <time>2023-03-04T14:02:01Z</time>
      </trkpt>
      <trkpt lat="48.19387" lon="6.53907">
        <ele>351.3</ele>
        <time>2023-03-04T14:02:05Z</time>
      </trkpt>
      <trkpt lat="48.19387" lon="6.53906">
        <ele>351.3</ele>
        <time>2023-03-04T14:02:06Z</time>
      </trkpt>
      <trkpt lat="48.19387" lon="6.53906">
        <ele>351.3</ele>
        <time>2023-03-04T14:02:07Z</time>
      </trkpt>
      <trkpt lat="48.19386" lon="6.53906">
        <ele>351.3</ele>
        <time>2023-03-04T14:02:10Z</time>
      </trkpt>
      <trkpt lat="48.19387" lon="6.53906">
        <ele>351.3</ele>
        <time>2023-03-04T14:02:12Z</time>
      </trkpt>
      <trkpt lat="48.19386" lon="6.53905">
        <ele>351.3</ele>
        <time>2023-03-04T14:02:13Z</time>
      </trkpt>
      <trkpt lat="48.19385" lon="6.53908">
        <ele>351.3</ele>
        <time>2023-03-04T14:02:23Z</time>
      </trkpt>
      <trkpt lat="48.19386" lon="6.53908">
        <ele>351.3</ele>
        <time>2023-03-04T14:02:24Z</time>
      </trkpt>
      <trkpt lat="48.19386" lon="6.53908">
        <ele>351.3</ele>
        <time>2023-03-04T14:02:25Z</time>
      </trkpt>
      <trkpt lat="48.19386" lon="6.53908">
        <ele>351.3</ele>
        <time>2023-03-04T14:02:26Z</time>
      </trkpt>
      <trkpt lat="48.19387" lon="6.53909">
        <ele>351.3</ele>
        <time>2023-03-04T14:02:32Z</time>
      </trkpt>
      <trkpt lat="48.19387" lon="6.53909">
        <ele>351.3</ele>
        <time>2023-03-04T14:02:35Z</time>
      </trkpt>
      <trkpt lat="48.19388" lon="6.53909">
        <ele>351.3</ele>
        <time>2023-03-04T14:02:38Z</time>
      </trkpt>
      <trkpt lat="48.19388" lon="6.53909">
        <ele>351.3</ele>
        <time>2023-03-04T14:02:44Z</time>
      </trkpt>
      <trkpt lat="48.19389" lon="6.53911">
        <ele>351.3</ele>
        <time>2023-03-04T14:02:47Z</time>
      </trkpt>
      <trkpt lat="48.19389" lon="6.53911">
        <ele>351.3</ele>
        <time>2023-03-04T14:03:02Z</time>
      </trkpt>
      <trkpt lat="48.19389" lon="6.53911">
        <ele>351.3</ele>
        <time>2023-03-04T14:03:06Z</time>
      </trkpt>
      <trkpt lat="48.19389" lon="6.53911">
        <ele>351.3</ele>
        <time>2023-03-04T14:03:07Z</time>
      </trkpt>
      <trkpt lat="48.1939" lon="6.5391">
        <ele>351.3</ele>
        <time>2023-03-04T14:03:14Z</time>
      </trkpt>
      <trkpt lat="48.1939" lon="6.5391">
        <ele>351.3</ele>
        <time>2023-03-04T14:03:15Z</time>
      </trkpt>
      <trkpt lat="48.19389" lon="6.5391">
        <ele>351.3</ele>
        <time>2023-03-04T14:03:19Z</time>
      </trkpt>
      <trkpt lat="48.19389" lon="6.5391">
        <ele>351.3</ele>
        <time>2023-03-04T14:03:20Z</time>
      </trkpt>
      <trkpt lat="48.19389" lon="6.5391">
        <ele>351.3</ele>
        <time>2023-03-04T14:03:21Z</time>
      </trkpt>
      <trkpt lat="48.19389" lon="6.5391">
        <ele>351.3</ele>
        <time>2023-03-04T14:03:22Z</time>
      </trkpt>
      <trkpt lat="48.19388" lon="6.53909">
        <ele>351.3</ele>
        <time>2023-03-04T14:03:24Z</time>
      </trkpt>
      <trkpt lat="48.19388" lon="6.53909">
        <ele>351.3</ele>
        <time>2023-03-04T14:03:25Z</time>
      </trkpt>
      <trkpt lat="48.19386" lon="6.53908">
        <ele>351.2</ele>
        <time>2023-03-04T14:03:33Z</time>
      </trkpt>
      <trkpt lat="48.19386" lon="6.53908">
        <ele>351.2</ele>
        <time>2023-03-04T14:03:35Z</time>
      </trkpt>
      <trkpt lat="48.19386" lon="6.53908">
        <ele>351.2</ele>
        <time>2023-03-04T14:03:36Z</time>
      </trkpt>
      <trkpt lat="48.19386" lon="6.53907">
        <ele>351.2</ele>
        <time>2023-03-04T14:03:37Z</time>
      </trkpt>
      <trkpt lat="48.19389" lon="6.53903">
        <ele>351.2</ele>
        <time>2023-03-04T14:03:48Z</time>
      </trkpt>
      <trkpt lat="48.19389" lon="6.53903">
        <ele>351.2</ele>
        <time>2023-03-04T14:03:50Z</time>
      </trkpt>
      <trkpt lat="48.19388" lon="6.53902">
        <ele>351.2</ele>
        <time>2023-03-04T14:03:52Z</time>
      </trkpt>
      <trkpt lat="48.19389" lon="6.53902">
        <ele>351.2</ele>
        <time>2023-03-04T14:04:00Z</time>
      </trkpt>
      <trkpt lat="48.19391" lon="6.53898">
        <ele>351.2</ele>
        <time>2023-03-04T14:04:12Z</time>
      </trkpt>
      <trkpt lat="48.19392" lon="6.53899">
        <ele>351.2</ele>
        <time>2023-03-04T14:04:14Z</time>
      </trkpt>
      <trkpt lat="48.19394" lon="6.53903">
        <ele>351.1</ele>
        <time>2023-03-04T14:04:29Z</time>
      </trkpt>
      <trkpt lat="48.19394" lon="6.53903">
        <ele>351.1</ele>
        <time>2023-03-04T14:04:30Z</time>
      </trkpt>
      <trkpt lat="48.19394" lon="6.53903">
        <ele>351.1</ele>
        <time>2023-03-04T14:04:31Z</time>
      </trkpt>
      <trkpt lat="48.19394" lon="6.53903">
        <ele>351.1</ele>
        <time>2023-03-04T14:04:32Z</time>
      </trkpt>
      <trkpt lat="48.19393" lon="6.53903">
        <ele>351.1</ele>
        <time>2023-03-04T14:04:35Z</time>
      </trkpt>
      <trkpt lat="48.19393" lon="6.53903">
        <ele>351.1</ele>
        <time>2023-03-04T14:04:36Z</time>
      </trkpt>
      <trkpt lat="48.19393" lon="6.53903">
        <ele>351.1</ele>
        <time>2023-03-04T14:04:38Z</time>
      </trkpt>
      <trkpt lat="48.19393" lon="6.53903">
        <ele>351.1</ele>
        <time>2023-03-04T14:04:41Z</time>
      </trkpt>
      <trkpt lat="48.19394" lon="6.539">
        <ele>351.1</ele>
        <time>2023-03-04T14:04:51Z</time>
      </trkpt>
      <trkpt lat="48.19394" lon="6.53899">
        <ele>351.1</ele>
        <time>2023-03-04T14:05:01Z</time>
      </trkpt>
      <trkpt lat="48.19394" lon="6.53899">
        <ele>351.1</ele>
        <time>2023-03-04T14:05:02Z</time>
      </trkpt>
      <trkpt lat="48.19394" lon="6.53899">
        <ele>351.1</ele>
        <time>2023-03-04T14:05:08Z</time>
      </trkpt>
      <trkpt lat="48.19394" lon="6.539">
        <ele>351.1</ele>
        <time>2023-03-04T14:05:13Z</time>
      </trkpt>
      <trkpt lat="48.19393" lon="6.53899">
        <ele>351.1</ele>
        <time>2023-03-04T14:05:15Z</time>
      </trkpt>
      <trkpt lat="48.194" lon="6.53901">
        <ele>351.1</ele>
        <time>2023-03-04T14:05:40Z</time>
      </trkpt>
      <trkpt lat="48.194" lon="6.53901">
        <ele>351.1</ele>
        <time>2023-03-04T14:05:42Z</time>
      </trkpt>
      <trkpt lat="48.194" lon="6.53901">
        <ele>351.1</ele>
        <time>2023-03-04T14:05:44Z</time>
      </trkpt>
      <trkpt lat="48.194" lon="6.539">
        <ele>351.1</ele>
        <time>2023-03-04T14:05:45Z</time>
      </trkpt>
      <trkpt lat="48.194" lon="6.53899">
        <ele>351.1</ele>
        <time>2023-03-04T14:05:56Z</time>
      </trkpt>
      <trkpt lat="48.194" lon="6.53898">
        <ele>351.1</ele>
        <time>2023-03-04T14:05:57Z</time>
      </trkpt>
      <trkpt lat="48.19395" lon="6.53889">
        <ele>351</ele>
        <time>2023-03-04T14:06:23Z</time>
      </trkpt>
      <trkpt lat="48.19395" lon="6.5389">
        <ele>351</ele>
        <time>2023-03-04T14:06:24Z</time>
      </trkpt>
      <trkpt lat="48.19395" lon="6.53891">
        <ele>351</ele>
        <time>2023-03-04T14:06:30Z</time>
      </trkpt>
      <trkpt lat="48.19395" lon="6.5389">
        <ele>351</ele>
        <time>2023-03-04T14:06:31Z</time>
      </trkpt>
      <trkpt lat="48.19391" lon="6.53888">
        <ele>351</ele>
        <time>2023-03-04T14:06:54Z</time>
      </trkpt>
      <trkpt lat="48.19391" lon="6.53888">
        <ele>351</ele>
        <time>2023-03-04T14:06:56Z</time>
      </trkpt>
      <trkpt lat="48.19391" lon="6.53889">
        <ele>351</ele>
        <time>2023-03-04T14:06:58Z</time>
      </trkpt>
      <trkpt lat="48.19391" lon="6.53889">
        <ele>351</ele>
        <time>2023-03-04T14:07:03Z</time>
      </trkpt>
      <trkpt lat="48.19399" lon="6.53895">
        <ele>351</ele>
        <time>2023-03-04T14:07:31Z</time>
      </trkpt>
      <trkpt lat="48.19408" lon="6.539">
        <ele>350.9</ele>
        <time>2023-03-04T14:07:47Z</time>
      </trkpt>
      <trkpt lat="48.1941" lon="6.53899">
        <ele>350.9</ele>
        <time>2023-03-04T14:08:02Z</time>
      </trkpt>
      <trkpt lat="48.19409" lon="6.53898">
        <ele>350.9</ele>
        <time>2023-03-04T14:08:03Z</time>
      </trkpt>
      <trkpt lat="48.19406" lon="6.53892">
        <ele>350.8</ele>
        <time>2023-03-04T14:08:07Z</time>
      </trkpt>
      <trkpt lat="48.19406" lon="6.53893">
        <ele>350.8</ele>
        <time>2023-03-04T14:08:10Z</time>
      </trkpt>
      <trkpt lat="48.19408" lon="6.53894">
        <ele>350.7</ele>
        <time>2023-03-04T14:08:19Z</time>
      </trkpt>
      <trkpt lat="48.19408" lon="6.53895">
        <ele>350.7</ele>
        <time>2023-03-04T14:08:20Z</time>
      </trkpt>
      <trkpt lat="48.19407" lon="6.53895">
        <ele>350.7</ele>
        <time>2023-03-04T14:08:26Z</time>
      </trkpt>
      <trkpt lat="48.19407" lon="6.53896">
        <ele>350.7</ele>
        <time>2023-03-04T14:08:27Z</time>
      </trkpt>
      <trkpt lat="48.19405" lon="6.53898">
        <ele>350.7</ele>
        <time>2023-03-04T14:08:35Z</time>
      </trkpt>
      <trkpt lat="48.19405" lon="6.53898">
        <ele>350.7</ele>
        <time>2023-03-04T14:08:36Z</time>
      </trkpt>
      <trkpt lat="48.19397" lon="6.53893">
        <ele>350.5</ele>
        <time>2023-03-04T14:09:03Z</time>
      </trkpt>
      <trkpt lat="48.19398" lon="6.53893">
        <ele>350.5</ele>
        <time>2023-03-04T14:09:04Z</time>
      </trkpt>
      <trkpt lat="48.19401" lon="6.53893">
        <ele>350.4</ele>
        <time>2023-03-04T14:09:22Z</time>
      </trkpt>
      <trkpt lat="48.19402" lon="6.53892">
        <ele>350.4</ele>
        <time>2023-03-04T14:09:23Z</time>
      </trkpt>
      <trkpt lat="48.19402" lon="6.53893">
        <ele>350.4</ele>
        <time>2023-03-04T14:09:24Z</time>
      </trkpt>
      <trkpt lat="48.19402" lon="6.53892">
        <ele>350.4</ele>
        <time>2023-03-04T14:09:27Z</time>
      </trkpt>
      <trkpt lat="48.19402" lon="6.53892">
        <ele>350.4</ele>
        <time>2023-03-04T14:09:28Z</time>
      </trkpt>
      <trkpt lat="48.19401" lon="6.53892">
        <ele>350.4</ele>
        <time>2023-03-04T14:09:31Z</time>
      </trkpt>
      <trkpt lat="48.19401" lon="6.53892">
        <ele>350.4</ele>
        <time>2023-03-04T14:09:32Z</time>
      </trkpt>
      <trkpt lat="48.19401" lon="6.53892">
        <ele>350.3</ele>
        <time>2023-03-04T14:09:37Z</time>
      </trkpt>
      <trkpt lat="48.19401" lon="6.53892">
        <ele>350.3</ele>
        <time>2023-03-04T14:09:39Z</time>
      </trkpt>
      <trkpt lat="48.19401" lon="6.53891">
        <ele>350.3</ele>
        <time>2023-03-04T14:09:41Z</time>
      </trkpt>
      <trkpt lat="48.19403" lon="6.53886">
        <ele>350.3</ele>
        <time>2023-03-04T14:09:49Z</time>
      </trkpt>
      <trkpt lat="48.19403" lon="6.53888">
        <ele>350.2</ele>
        <time>2023-03-04T14:09:50Z</time>
      </trkpt>
      <trkpt lat="48.19403" lon="6.53889">
        <ele>350.2</ele>
        <time>2023-03-04T14:09:55Z</time>
      </trkpt>
      <trkpt lat="48.19403" lon="6.5389">
        <ele>350.2</ele>
        <time>2023-03-04T14:09:57Z</time>
      </trkpt>
      <trkpt lat="48.19398" lon="6.53891">
        <ele>350.1</ele>
        <time>2023-03-04T14:10:21Z</time>
      </trkpt>
      <trkpt lat="48.19397" lon="6.53891">
        <ele>350.1</ele>
        <time>2023-03-04T14:10:22Z</time>
      </trkpt>
      <trkpt lat="48.19395" lon="6.53891">
        <ele>350.1</ele>
        <time>2023-03-04T14:10:28Z</time>
      </trkpt>
      <trkpt lat="48.19396" lon="6.53892">
        <ele>350.1</ele>
        <time>2023-03-04T14:10:29Z</time>
      </trkpt>
      <trkpt lat="48.19395" lon="6.53894">
        <ele>350.1</ele>
        <time>2023-03-04T14:10:47Z</time>
      </trkpt>
      <trkpt lat="48.19395" lon="6.53894">
        <ele>350.1</ele>
        <time>2023-03-04T14:10:49Z</time>
      </trkpt>
      <trkpt lat="48.19395" lon="6.53893">
        <ele>350</ele>
        <time>2023-03-04T14:10:53Z</time>
      </trkpt>
      <trkpt lat="48.19395" lon="6.53894">
        <ele>350</ele>
        <time>2023-03-04T14:10:54Z</time>
      </trkpt>
      <trkpt lat="48.19395" lon="6.53895">
        <ele>350</ele>
        <time>2023-03-04T14:10:59Z</time>
      </trkpt>
      <trkpt lat="48.19395" lon="6.53894">
        <ele>350</ele>
        <time>2023-03-04T14:11:00Z</time>
      </trkpt>
      <trkpt lat="48.19394" lon="6.5389">
        <ele>350</ele>
        <time>2023-03-04T14:11:09Z</time>
      </trkpt>
      <trkpt lat="48.19394" lon="6.5389">
        <ele>350</ele>
        <time>2023-03-04T14:11:10Z</time>
      </trkpt>
      <trkpt lat="48.19395" lon="6.53875">
        <ele>349.8</ele>
        <time>2023-03-04T14:11:22Z</time>
      </trkpt>
      <trkpt lat="48.19399" lon="6.53861">
        <ele>349.7</ele>
        <time>2023-03-04T14:11:30Z</time>
      </trkpt>
      <trkpt lat="48.19407" lon="6.53855">
        <ele>349.6</ele>
        <time>2023-03-04T14:11:39Z</time>
      </trkpt>
      <trkpt lat="48.19409" lon="6.53841">
        <ele>349.4</ele>
        <time>2023-03-04T14:11:48Z</time>
      </trkpt>
      <trkpt lat="48.19416" lon="6.53831">
        <ele>349.2</ele>
        <time>2023-03-04T14:11:57Z</time>
      </trkpt>
      <trkpt lat="48.19424" lon="6.53825">
        <ele>349</ele>
        <time>2023-03-04T14:12:04Z</time>
      </trkpt>
      <trkpt lat="48.19433" lon="6.53817">
        <ele>348.7</ele>
        <time>2023-03-04T14:12:11Z</time>
      </trkpt>
      <trkpt lat="48.1944" lon="6.53808">
        <ele>348.5</ele>
        <time>2023-03-04T14:12:19Z</time>
      </trkpt>
      <trkpt lat="48.19441" lon="6.53794">
        <ele>347.8</ele>
        <time>2023-03-04T14:12:27Z</time>
      </trkpt>
      <trkpt lat="48.19442" lon="6.5378">
        <ele>347.8</ele>
        <time>2023-03-04T14:12:35Z</time>
      </trkpt>
      <trkpt lat="48.19442" lon="6.53765">
        <ele>347.7</ele>
        <time>2023-03-04T14:12:43Z</time>
      </trkpt>
      <trkpt lat="48.19444" lon="6.53751">
        <ele>347.6</ele>
        <time>2023-03-04T14:12:52Z</time>
      </trkpt>
      <trkpt lat="48.19447" lon="6.53737">
        <ele>347.4</ele>
        <time>2023-03-04T14:13:00Z</time>
      </trkpt>
      <trkpt lat="48.19449" lon="6.53724">
        <ele>347.3</ele>
        <time>2023-03-04T14:13:08Z</time>
      </trkpt>
      <trkpt lat="48.19449" lon="6.5371">
        <ele>347.3</ele>
        <time>2023-03-04T14:13:14Z</time>
      </trkpt>
      <trkpt lat="48.19451" lon="6.53695">
        <ele>347.2</ele>
        <time>2023-03-04T14:13:21Z</time>
      </trkpt>
      <trkpt lat="48.19453" lon="6.53681">
        <ele>347.2</ele>
        <time>2023-03-04T14:13:28Z</time>
      </trkpt>
      <trkpt lat="48.19455" lon="6.53668">
        <ele>347.2</ele>
        <time>2023-03-04T14:13:35Z</time>
      </trkpt>
      <trkpt lat="48.19458" lon="6.53655">
        <ele>347.2</ele>
        <time>2023-03-04T14:13:43Z</time>
      </trkpt>
      <trkpt lat="48.19465" lon="6.53644">
        <ele>347.3</ele>
        <time>2023-03-04T14:13:53Z</time>
      </trkpt>
      <trkpt lat="48.19471" lon="6.53634">
        <ele>347.3</ele>
        <time>2023-03-04T14:14:03Z</time>
      </trkpt>
      <trkpt lat="48.19473" lon="6.53619">
        <ele>347.3</ele>
        <time>2023-03-04T14:14:13Z</time>
      </trkpt>
      <trkpt lat="48.19476" lon="6.53606">
        <ele>347.4</ele>
        <time>2023-03-04T14:14:21Z</time>
      </trkpt>
      <trkpt lat="48.19476" lon="6.53592">
        <ele>347.4</ele>
        <time>2023-03-04T14:14:29Z</time>
      </trkpt>
      <trkpt lat="48.19477" lon="6.53578">
        <ele>347.4</ele>
        <time>2023-03-04T14:14:35Z</time>
      </trkpt>
      <trkpt lat="48.19478" lon="6.53563">
        <ele>347.4</ele>
        <time>2023-03-04T14:14:43Z</time>
      </trkpt>
      <trkpt lat="48.19475" lon="6.53549">
        <ele>347.4</ele>
        <time>2023-03-04T14:14:51Z</time>
      </trkpt>
      <trkpt lat="48.1947" lon="6.53536">
        <ele>347.4</ele>
        <time>2023-03-04T14:14:57Z</time>
      </trkpt>
      <trkpt lat="48.19468" lon="6.53523">
        <ele>347.4</ele>
        <time>2023-03-04T14:15:05Z</time>
      </trkpt>
      <trkpt lat="48.19458" lon="6.5353">
        <ele>348.1</ele>
        <time>2023-03-04T14:15:20Z</time>
      </trkpt>
      <trkpt lat="48.19449" lon="6.53536">
        <ele>348.5</ele>
        <time>2023-03-04T14:15:26Z</time>
      </trkpt>
      <trkpt lat="48.19442" lon="6.53545">
        <ele>349</ele>
        <time>2023-03-04T14:15:34Z</time>
      </trkpt>
      <trkpt lat="48.19437" lon="6.53556">
        <ele>349.4</ele>
        <time>2023-03-04T14:15:41Z</time>
      </trkpt>
      <trkpt lat="48.19431" lon="6.53567">
        <ele>349.8</ele>
        <time>2023-03-04T14:15:49Z</time>
      </trkpt>
      <trkpt lat="48.19425" lon="6.5358">
        <ele>350.2</ele>
        <time>2023-03-04T14:15:56Z</time>
      </trkpt>
      <trkpt lat="48.19418" lon="6.5359">
        <ele>350.6</ele>
        <time>2023-03-04T14:16:04Z</time>
      </trkpt>
      <trkpt lat="48.1941" lon="6.53597">
        <ele>350.8</ele>
        <time>2023-03-04T14:16:14Z</time>
      </trkpt>
      <trkpt lat="48.19401" lon="6.53603">
        <ele>350.9</ele>
        <time>2023-03-04T14:16:22Z</time>
      </trkpt>
      <trkpt lat="48.19392" lon="6.53607">
        <ele>350.9</ele>
        <time>2023-03-04T14:16:30Z</time>
      </trkpt>
      <trkpt lat="48.19382" lon="6.5361">
        <ele>350.9</ele>
        <time>2023-03-04T14:16:36Z</time>
      </trkpt>
      <trkpt lat="48.19372" lon="6.53611">
        <ele>351</ele>
        <time>2023-03-04T14:16:44Z</time>
      </trkpt>
      <trkpt lat="48.19362" lon="6.53607">
        <ele>351</ele>
        <time>2023-03-04T14:16:52Z</time>
      </trkpt>
      <trkpt lat="48.19352" lon="6.53606">
        <ele>351.1</ele>
        <time>2023-03-04T14:17:00Z</time>
      </trkpt>
      <trkpt lat="48.19343" lon="6.53603">
        <ele>351.1</ele>
        <time>2023-03-04T14:17:07Z</time>
      </trkpt>
      <trkpt lat="48.19334" lon="6.536">
        <ele>351.1</ele>
        <time>2023-03-04T14:17:14Z</time>
      </trkpt>
      <trkpt lat="48.19325" lon="6.536">
        <ele>351.1</ele>
        <time>2023-03-04T14:17:21Z</time>
      </trkpt>
      <trkpt lat="48.19315" lon="6.53597">
        <ele>351.2</ele>
        <time>2023-03-04T14:17:29Z</time>
      </trkpt>
      <trkpt lat="48.19305" lon="6.53595">
        <ele>351.4</ele>
        <time>2023-03-04T14:17:40Z</time>
      </trkpt>
      <trkpt lat="48.19296" lon="6.53594">
        <ele>351.8</ele>
        <time>2023-03-04T14:17:47Z</time>
      </trkpt>
      <trkpt lat="48.19286" lon="6.53594">
        <ele>352.2</ele>
        <time>2023-03-04T14:17:53Z</time>
      </trkpt>
      <trkpt lat="48.19277" lon="6.5359">
        <ele>352.8</ele>
        <time>2023-03-04T14:18:01Z</time>
      </trkpt>
      <trkpt lat="48.19268" lon="6.53587">
        <ele>353.3</ele>
        <time>2023-03-04T14:18:08Z</time>
      </trkpt>
      <trkpt lat="48.19258" lon="6.53585">
        <ele>353.7</ele>
        <time>2023-03-04T14:18:17Z</time>
      </trkpt>
      <trkpt lat="48.19249" lon="6.53581">
        <ele>354.1</ele>
        <time>2023-03-04T14:18:24Z</time>
      </trkpt>
      <trkpt lat="48.19241" lon="6.53574">
        <ele>354.4</ele>
        <time>2023-03-04T14:18:34Z</time>
      </trkpt>
      <trkpt lat="48.19231" lon="6.53569">
        <ele>354.8</ele>
        <time>2023-03-04T14:18:42Z</time>
      </trkpt>
      <trkpt lat="48.19228" lon="6.53555">
        <ele>356</ele>
        <time>2023-03-04T14:18:51Z</time>
      </trkpt>
      <trkpt lat="48.19225" lon="6.53542">
        <ele>357.1</ele>
        <time>2023-03-04T14:19:02Z</time>
      </trkpt>
      <trkpt lat="48.19225" lon="6.53528">
        <ele>358.2</ele>
        <time>2023-03-04T14:19:13Z</time>
      </trkpt>
      <trkpt lat="48.19226" lon="6.53515">
        <ele>359.4</ele>
        <time>2023-03-04T14:19:22Z</time>
      </trkpt>
      <trkpt lat="48.19222" lon="6.53502">
        <ele>360.7</ele>
        <time>2023-03-04T14:19:29Z</time>
      </trkpt>
      <trkpt lat="48.19221" lon="6.53487">
        <ele>362.1</ele>
        <time>2023-03-04T14:19:37Z</time>
      </trkpt>
      <trkpt lat="48.19228" lon="6.53477">
        <ele>363.6</ele>
        <time>2023-03-04T14:19:45Z</time>
      </trkpt>
      <trkpt lat="48.19229" lon="6.53462">
        <ele>365.2</ele>
        <time>2023-03-04T14:19:52Z</time>
      </trkpt>
      <trkpt lat="48.19229" lon="6.53451">
        <ele>366.3</ele>
        <time>2023-03-04T14:20:01Z</time>
      </trkpt>
      <trkpt lat="48.19229" lon="6.5345">
        <ele>366.4</ele>
        <time>2023-03-04T14:20:02Z</time>
      </trkpt>
      <trkpt lat="48.19227" lon="6.53435">
        <ele>367.8</ele>
        <time>2023-03-04T14:20:09Z</time>
      </trkpt>
      <trkpt lat="48.19224" lon="6.53421">
        <ele>368.9</ele>
        <time>2023-03-04T14:20:16Z</time>
      </trkpt>
      <trkpt lat="48.19223" lon="6.53408">
        <ele>369.8</ele>
        <time>2023-03-04T14:20:22Z</time>
      </trkpt>
      <trkpt lat="48.19215" lon="6.53399">
        <ele>370.3</ele>
        <time>2023-03-04T14:20:32Z</time>
      </trkpt>
      <trkpt lat="48.19208" lon="6.53388">
        <ele>370.3</ele>
        <time>2023-03-04T14:20:40Z</time>
      </trkpt>
      <trkpt lat="48.19198" lon="6.53383">
        <ele>370.3</ele>
        <time>2023-03-04T14:20:49Z</time>
      </trkpt>
      <trkpt lat="48.19189" lon="6.53378">
        <ele>370.2</ele>
        <time>2023-03-04T14:20:57Z</time>
      </trkpt>
      <trkpt lat="48.19179" lon="6.53376">
        <ele>370.2</ele>
        <time>2023-03-04T14:21:06Z</time>
      </trkpt>
      <trkpt lat="48.19171" lon="6.53372">
        <ele>370.1</ele>
        <time>2023-03-04T14:21:14Z</time>
      </trkpt>
      <trkpt lat="48.19162" lon="6.53366">
        <ele>370.1</ele>
        <time>2023-03-04T14:21:22Z</time>
      </trkpt>
      <trkpt lat="48.19153" lon="6.53363">
        <ele>370</ele>
        <time>2023-03-04T14:21:31Z</time>
      </trkpt>
      <trkpt lat="48.19143" lon="6.53361">
        <ele>369.9</ele>
        <time>2023-03-04T14:21:38Z</time>
      </trkpt>
      <trkpt lat="48.19134" lon="6.53358">
        <ele>369.9</ele>
        <time>2023-03-04T14:21:44Z</time>
      </trkpt>
      <trkpt lat="48.19125" lon="6.53348">
        <ele>370</ele>
        <time>2023-03-04T14:21:51Z</time>
      </trkpt>
      <trkpt lat="48.19116" lon="6.5334">
        <ele>370.1</ele>
        <time>2023-03-04T14:21:58Z</time>
      </trkpt>
      <trkpt lat="48.19108" lon="6.53333">
        <ele>370.2</ele>
        <time>2023-03-04T14:22:05Z</time>
      </trkpt>
      <trkpt lat="48.19101" lon="6.53324">
        <ele>370.3</ele>
        <time>2023-03-04T14:22:13Z</time>
      </trkpt>
      <trkpt lat="48.19095" lon="6.53312">
        <ele>370.5</ele>
        <time>2023-03-04T14:22:20Z</time>
      </trkpt>
      <trkpt lat="48.1909" lon="6.533">
        <ele>370.7</ele>
        <time>2023-03-04T14:22:28Z</time>
      </trkpt>
      <trkpt lat="48.19086" lon="6.53288">
        <ele>370.8</ele>
        <time>2023-03-04T14:22:39Z</time>
      </trkpt>
      <trkpt lat="48.19078" lon="6.53281">
        <ele>370.8</ele>
        <time>2023-03-04T14:22:49Z</time>
      </trkpt>
      <trkpt lat="48.19074" lon="6.53268">
        <ele>370.7</ele>
        <time>2023-03-04T14:22:59Z</time>
      </trkpt>
      <trkpt lat="48.19074" lon="6.53254">
        <ele>370.3</ele>
        <time>2023-03-04T14:23:11Z</time>
      </trkpt>
      <trkpt lat="48.19082" lon="6.53246">
        <ele>369.7</ele>
        <time>2023-03-04T14:23:20Z</time>
      </trkpt>
      <trkpt lat="48.19089" lon="6.53236">
        <ele>369</ele>
        <time>2023-03-04T14:23:29Z</time>
      </trkpt>
      <trkpt lat="48.19096" lon="6.53227">
        <ele>368.3</ele>
        <time>2023-03-04T14:23:36Z</time>
      </trkpt>
      <trkpt lat="48.19105" lon="6.53225">
        <ele>367.5</ele>
        <time>2023-03-04T14:23:46Z</time>
      </trkpt>
      <trkpt lat="48.19113" lon="6.53214">
        <ele>366.7</ele>
        <time>2023-03-04T14:23:56Z</time>
      </trkpt>
      <trkpt lat="48.19124" lon="6.53212">
        <ele>366</ele>
        <time>2023-03-04T14:24:00Z</time>
      </trkpt>
      <trkpt lat="48.19133" lon="6.53208">
        <ele>365.3</ele>
        <time>2023-03-04T14:24:06Z</time>
      </trkpt>
      <trkpt lat="48.19142" lon="6.53204">
        <ele>364.6</ele>
        <time>2023-03-04T14:24:13Z</time>
      </trkpt>
      <trkpt lat="48.19153" lon="6.53201">
        <ele>363.9</ele>
        <time>2023-03-04T14:24:20Z</time>
      </trkpt>
      <trkpt lat="48.19162" lon="6.53198">
        <ele>363.3</ele>
        <time>2023-03-04T14:24:30Z</time>
      </trkpt>
      <trkpt lat="48.1917" lon="6.53192">
        <ele>362.6</ele>
        <time>2023-03-04T14:24:36Z</time>
      </trkpt>
      <trkpt lat="48.19176" lon="6.5318">
        <ele>362</ele>
        <time>2023-03-04T14:24:46Z</time>
      </trkpt>
      <trkpt lat="48.19184" lon="6.53172">
        <ele>361.3</ele>
        <time>2023-03-04T14:24:56Z</time>
      </trkpt>
      <trkpt lat="48.19194" lon="6.53168">
        <ele>360.6</ele>
        <time>2023-03-04T14:25:03Z</time>
      </trkpt>
      <trkpt lat="48.19201" lon="6.53159">
        <ele>359.9</ele>
        <time>2023-03-04T14:25:10Z</time>
      </trkpt>
      <trkpt lat="48.19209" lon="6.53147">
        <ele>359.2</ele>
        <time>2023-03-04T14:25:17Z</time>
      </trkpt>
      <trkpt lat="48.19216" lon="6.53138">
        <ele>358.6</ele>
        <time>2023-03-04T14:25:23Z</time>
      </trkpt>
      <trkpt lat="48.19225" lon="6.53135">
        <ele>358</ele>
        <time>2023-03-04T14:25:33Z</time>
      </trkpt>
      <trkpt lat="48.19233" lon="6.5313">
        <ele>357.2</ele>
        <time>2023-03-04T14:25:42Z</time>
      </trkpt>
      <trkpt lat="48.19242" lon="6.53124">
        <ele>356.4</ele>
        <time>2023-03-04T14:25:50Z</time>
      </trkpt>
      <trkpt lat="48.1925" lon="6.53115">
        <ele>355.6</ele>
        <time>2023-03-04T14:25:57Z</time>
      </trkpt>
      <trkpt lat="48.19257" lon="6.53105">
        <ele>354.8</ele>
        <time>2023-03-04T14:26:08Z</time>
      </trkpt>
      <trkpt lat="48.19264" lon="6.53094">
        <ele>354</ele>
        <time>2023-03-04T14:26:16Z</time>
      </trkpt>
      <trkpt lat="48.1927" lon="6.53083">
        <ele>353.3</ele>
        <time>2023-03-04T14:26:24Z</time>
      </trkpt>
      <trkpt lat="48.19279" lon="6.53079">
        <ele>352.7</ele>
        <time>2023-03-04T14:26:34Z</time>
      </trkpt>
      <trkpt lat="48.19288" lon="6.53075">
        <ele>352</ele>
        <time>2023-03-04T14:26:42Z</time>
      </trkpt>
      <trkpt lat="48.19295" lon="6.53065">
        <ele>351.3</ele>
        <time>2023-03-04T14:26:53Z</time>
      </trkpt>
      <trkpt lat="48.19301" lon="6.53055">
        <ele>350.7</ele>
        <time>2023-03-04T14:27:01Z</time>
      </trkpt>
      <trkpt lat="48.19306" lon="6.53041">
        <ele>350.5</ele>
        <time>2023-03-04T14:27:08Z</time>
      </trkpt>
      <trkpt lat="48.19299" lon="6.53032">
        <ele>350.9</ele>
        <time>2023-03-04T14:27:21Z</time>
      </trkpt>
      <trkpt lat="48.19291" lon="6.53024">
        <ele>351.5</ele>
        <time>2023-03-04T14:27:32Z</time>
      </trkpt>
      <trkpt lat="48.19282" lon="6.5302">
        <ele>352.1</ele>
        <time>2023-03-04T14:27:39Z</time>
      </trkpt>
      <trkpt lat="48.19273" lon="6.53013">
        <ele>352.6</ele>
        <time>2023-03-04T14:27:46Z</time>
      </trkpt>
      <trkpt lat="48.19264" lon="6.53008">
        <ele>353.2</ele>
        <time>2023-03-04T14:27:55Z</time>
      </trkpt>
      <trkpt lat="48.19256" lon="6.53001">
        <ele>353.7</ele>
        <time>2023-03-04T14:28:00Z</time>
      </trkpt>
      <trkpt lat="48.19247" lon="6.52995">
        <ele>354.3</ele>
        <time>2023-03-04T14:28:06Z</time>
      </trkpt>
      <trkpt lat="48.19238" lon="6.52989">
        <ele>355</ele>
        <time>2023-03-04T14:28:14Z</time>
      </trkpt>
      <trkpt lat="48.19233" lon="6.52978">
        <ele>356.1</ele>
        <time>2023-03-04T14:28:23Z</time>
      </trkpt>
      <trkpt lat="48.19238" lon="6.52967">
        <ele>357.3</ele>
        <time>2023-03-04T14:28:32Z</time>
      </trkpt>
      <trkpt lat="48.19243" lon="6.52954">
        <ele>358.5</ele>
        <time>2023-03-04T14:28:42Z</time>
      </trkpt>
      <trkpt lat="48.19249" lon="6.52943">
        <ele>359.6</ele>
        <time>2023-03-04T14:28:49Z</time>
      </trkpt>
      <trkpt lat="48.19256" lon="6.52931">
        <ele>360.7</ele>
        <time>2023-03-04T14:28:56Z</time>
      </trkpt>
      <trkpt lat="48.19262" lon="6.5292">
        <ele>361.5</ele>
        <time>2023-03-04T14:29:06Z</time>
      </trkpt>
      <trkpt lat="48.19269" lon="6.52909">
        <ele>362.2</ele>
        <time>2023-03-04T14:29:14Z</time>
      </trkpt>
      <trkpt lat="48.19276" lon="6.52899">
        <ele>362.9</ele>
        <time>2023-03-04T14:29:23Z</time>
      </trkpt>
      <trkpt lat="48.19281" lon="6.5289">
        <ele>363.4</ele>
        <time>2023-03-04T14:29:32Z</time>
      </trkpt>
      <trkpt lat="48.19281" lon="6.52889">
        <ele>363.4</ele>
        <time>2023-03-04T14:29:33Z</time>
      </trkpt>
      <trkpt lat="48.19277" lon="6.52876">
        <ele>363.9</ele>
        <time>2023-03-04T14:29:42Z</time>
      </trkpt>
      <trkpt lat="48.19274" lon="6.52863">
        <ele>364.4</ele>
        <time>2023-03-04T14:29:49Z</time>
      </trkpt>
      <trkpt lat="48.19267" lon="6.52855">
        <ele>364.8</ele>
        <time>2023-03-04T14:29:56Z</time>
      </trkpt>
      <trkpt lat="48.19263" lon="6.52841">
        <ele>365.3</ele>
        <time>2023-03-04T14:30:03Z</time>
      </trkpt>
      <trkpt lat="48.19255" lon="6.52834">
        <ele>365.8</ele>
        <time>2023-03-04T14:30:10Z</time>
      </trkpt>
      <trkpt lat="48.19248" lon="6.52825">
        <ele>366.2</ele>
        <time>2023-03-04T14:30:18Z</time>
      </trkpt>
      <trkpt lat="48.19243" lon="6.52812">
        <ele>366.7</ele>
        <time>2023-03-04T14:30:26Z</time>
      </trkpt>
      <trkpt lat="48.19237" lon="6.52801">
        <ele>367.1</ele>
        <time>2023-03-04T14:30:36Z</time>
      </trkpt>
      <trkpt lat="48.1923" lon="6.52791">
        <ele>367.4</ele>
        <time>2023-03-04T14:30:43Z</time>
      </trkpt>
      <trkpt lat="48.19226" lon="6.52778">
        <ele>367.9</ele>
        <time>2023-03-04T14:30:49Z</time>
      </trkpt>
      <trkpt lat="48.19221" lon="6.52767">
        <ele>368.4</ele>
        <time>2023-03-04T14:30:56Z</time>
      </trkpt>
      <trkpt lat="48.19215" lon="6.52755">
        <ele>369</ele>
        <time>2023-03-04T14:31:03Z</time>
      </trkpt>
      <trkpt lat="48.19208" lon="6.52746">
        <ele>369.6</ele>
        <time>2023-03-04T14:31:10Z</time>
      </trkpt>
      <trkpt lat="48.19202" lon="6.52735">
        <ele>370.1</ele>
        <time>2023-03-04T14:31:17Z</time>
      </trkpt>
      <trkpt lat="48.19196" lon="6.52724">
        <ele>370.7</ele>
        <time>2023-03-04T14:31:24Z</time>
      </trkpt>
      <trkpt lat="48.1919" lon="6.52713">
        <ele>371.2</ele>
        <time>2023-03-04T14:31:31Z</time>
      </trkpt>
      <trkpt lat="48.19184" lon="6.52702">
        <ele>371.8</ele>
        <time>2023-03-04T14:31:41Z</time>
      </trkpt>
      <trkpt lat="48.19177" lon="6.52692">
        <ele>372.5</ele>
        <time>2023-03-04T14:31:50Z</time>
      </trkpt>
      <trkpt lat="48.19171" lon="6.5268">
        <ele>373.3</ele>
        <time>2023-03-04T14:31:57Z</time>
      </trkpt>
      <trkpt lat="48.19164" lon="6.5267">
        <ele>374.1</ele>
        <time>2023-03-04T14:32:07Z</time>
      </trkpt>
      <trkpt lat="48.19157" lon="6.52658">
        <ele>375</ele>
        <time>2023-03-04T14:32:15Z</time>
      </trkpt>
      <trkpt lat="48.19151" lon="6.52648">
        <ele>375.7</ele>
        <time>2023-03-04T14:32:26Z</time>
      </trkpt>
      <trkpt lat="48.19145" lon="6.52636">
        <ele>376.4</ele>
        <time>2023-03-04T14:32:35Z</time>
      </trkpt>
      <trkpt lat="48.19143" lon="6.52622">
        <ele>377.2</ele>
        <time>2023-03-04T14:32:44Z</time>
      </trkpt>
      <trkpt lat="48.19135" lon="6.52614">
        <ele>378.2</ele>
        <time>2023-03-04T14:32:51Z</time>
      </trkpt>
      <trkpt lat="48.19129" lon="6.52603">
        <ele>379.2</ele>
        <time>2023-03-04T14:33:00Z</time>
      </trkpt>
      <trkpt lat="48.19125" lon="6.5259">
        <ele>380.2</ele>
        <time>2023-03-04T14:33:09Z</time>
      </trkpt>
      <trkpt lat="48.19117" lon="6.52582">
        <ele>381.3</ele>
        <time>2023-03-04T14:33:16Z</time>
      </trkpt>
      <trkpt lat="48.19112" lon="6.5257">
        <ele>382.4</ele>
        <time>2023-03-04T14:33:25Z</time>
      </trkpt>
      <trkpt lat="48.19104" lon="6.52564">
        <ele>383.5</ele>
        <time>2023-03-04T14:33:35Z</time>
      </trkpt>
      <trkpt lat="48.19108" lon="6.52551">
        <ele>384.4</ele>
        <time>2023-03-04T14:33:44Z</time>
      </trkpt>
      <trkpt lat="48.19111" lon="6.52538">
        <ele>385.1</ele>
        <time>2023-03-04T14:33:58Z</time>
      </trkpt>
      <trkpt lat="48.19118" lon="6.52528">
        <ele>385.4</ele>
        <time>2023-03-04T14:34:07Z</time>
      </trkpt>
      <trkpt lat="48.19124" lon="6.52518">
        <ele>385.5</ele>
        <time>2023-03-04T14:34:16Z</time>
      </trkpt>
      <trkpt lat="48.1913" lon="6.52506">
        <ele>385.3</ele>
        <time>2023-03-04T14:34:25Z</time>
      </trkpt>
      <trkpt lat="48.19132" lon="6.52491">
        <ele>385.1</ele>
        <time>2023-03-04T14:34:32Z</time>
      </trkpt>
      <trkpt lat="48.19135" lon="6.52477">
        <ele>384.9</ele>
        <time>2023-03-04T14:34:40Z</time>
      </trkpt>
      <trkpt lat="48.19138" lon="6.52463">
        <ele>384.7</ele>
        <time>2023-03-04T14:34:48Z</time>
      </trkpt>
      <trkpt lat="48.19141" lon="6.52448">
        <ele>384.4</ele>
        <time>2023-03-04T14:34:58Z</time>
      </trkpt>
      <trkpt lat="48.19147" lon="6.52438">
        <ele>384.3</ele>
        <time>2023-03-04T14:35:06Z</time>
      </trkpt>
      <trkpt lat="48.19153" lon="6.52427">
        <ele>384.2</ele>
        <time>2023-03-04T14:35:13Z</time>
      </trkpt>
      <trkpt lat="48.19161" lon="6.5242">
        <ele>384.2</ele>
        <time>2023-03-04T14:35:23Z</time>
      </trkpt>
      <trkpt lat="48.19168" lon="6.52408">
        <ele>384.3</ele>
        <time>2023-03-04T14:35:30Z</time>
      </trkpt>
      <trkpt lat="48.19172" lon="6.52395">
        <ele>384.4</ele>
        <time>2023-03-04T14:35:37Z</time>
      </trkpt>
      <trkpt lat="48.19176" lon="6.5238">
        <ele>384.4</ele>
        <time>2023-03-04T14:35:44Z</time>
      </trkpt>
      <trkpt lat="48.19181" lon="6.52367">
        <ele>384.4</ele>
        <time>2023-03-04T14:35:55Z</time>
      </trkpt>
      <trkpt lat="48.19183" lon="6.52353">
        <ele>384.3</ele>
        <time>2023-03-04T14:36:03Z</time>
      </trkpt>
      <trkpt lat="48.19189" lon="6.52341">
        <ele>384.2</ele>
        <time>2023-03-04T14:36:08Z</time>
      </trkpt>
      <trkpt lat="48.19196" lon="6.52331">
        <ele>384.1</ele>
        <time>2023-03-04T14:36:17Z</time>
      </trkpt>
      <trkpt lat="48.19202" lon="6.52319">
        <ele>384</ele>
        <time>2023-03-04T14:36:25Z</time>
      </trkpt>
      <trkpt lat="48.19208" lon="6.52309">
        <ele>383.9</ele>
        <time>2023-03-04T14:36:34Z</time>
      </trkpt>
      <trkpt lat="48.19211" lon="6.52294">
        <ele>383.9</ele>
        <time>2023-03-04T14:36:39Z</time>
      </trkpt>
      <trkpt lat="48.19215" lon="6.52281">
        <ele>383.8</ele>
        <time>2023-03-04T14:36:48Z</time>
      </trkpt>
      <trkpt lat="48.19214" lon="6.52267">
        <ele>383.7</ele>
        <time>2023-03-04T14:36:54Z</time>
      </trkpt>
      <trkpt lat="48.19214" lon="6.52253">
        <ele>383.6</ele>
        <time>2023-03-04T14:37:00Z</time>
      </trkpt>
      <trkpt lat="48.19214" lon="6.52238">
        <ele>383.5</ele>
        <time>2023-03-04T14:37:06Z</time>
      </trkpt>
      <trkpt lat="48.19214" lon="6.52224">
        <ele>383.4</ele>
        <time>2023-03-04T14:37:14Z</time>
      </trkpt>
      <trkpt lat="48.19214" lon="6.52209">
        <ele>383.2</ele>
        <time>2023-03-04T14:37:23Z</time>
      </trkpt>
      <trkpt lat="48.19213" lon="6.52206">
        <ele>383.2</ele>
        <time>2023-03-04T14:37:26Z</time>
      </trkpt>
      <trkpt lat="48.19213" lon="6.52206">
        <ele>383.2</ele>
        <time>2023-03-04T14:37:27Z</time>
      </trkpt>
      <trkpt lat="48.1921" lon="6.52193">
        <ele>382.9</ele>
        <time>2023-03-04T14:37:34Z</time>
      </trkpt>
      <trkpt lat="48.19207" lon="6.52179">
        <ele>382.5</ele>
        <time>2023-03-04T14:37:43Z</time>
      </trkpt>
      <trkpt lat="48.19204" lon="6.52165">
        <ele>382</ele>
        <time>2023-03-04T14:37:51Z</time>
      </trkpt>
      <trkpt lat="48.19202" lon="6.52151">
        <ele>381.7</ele>
        <time>2023-03-04T14:38:00Z</time>
      </trkpt>
      <trkpt lat="48.192" lon="6.52136">
        <ele>381.1</ele>
        <time>2023-03-04T14:38:07Z</time>
      </trkpt>
      <trkpt lat="48.19199" lon="6.52121">
        <ele>380.6</ele>
        <time>2023-03-04T14:38:13Z</time>
      </trkpt>
      <trkpt lat="48.19195" lon="6.52109">
        <ele>380.3</ele>
        <time>2023-03-04T14:38:21Z</time>
      </trkpt>
      <trkpt lat="48.19189" lon="6.52098">
        <ele>379.9</ele>
        <time>2023-03-04T14:38:26Z</time>
      </trkpt>
      <trkpt lat="48.19183" lon="6.52086">
        <ele>379.4</ele>
        <time>2023-03-04T14:38:33Z</time>
      </trkpt>
      <trkpt lat="48.19175" lon="6.52077">
        <ele>379.2</ele>
        <time>2023-03-04T14:38:39Z</time>
      </trkpt>
      <trkpt lat="48.19168" lon="6.5207">
        <ele>379.2</ele>
        <time>2023-03-04T14:38:45Z</time>
      </trkpt>
      <trkpt lat="48.19158" lon="6.5207">
        <ele>379.4</ele>
        <time>2023-03-04T14:38:54Z</time>
      </trkpt>
      <trkpt lat="48.19149" lon="6.52065">
        <ele>379.7</ele>
        <time>2023-03-04T14:39:02Z</time>
      </trkpt>
      <trkpt lat="48.19141" lon="6.52059">
        <ele>380.2</ele>
        <time>2023-03-04T14:39:11Z</time>
      </trkpt>
      <trkpt lat="48.19132" lon="6.52053">
        <ele>381</ele>
        <time>2023-03-04T14:39:19Z</time>
      </trkpt>
      <trkpt lat="48.19124" lon="6.52047">
        <ele>381.8</ele>
        <time>2023-03-04T14:39:26Z</time>
      </trkpt>
      <trkpt lat="48.19117" lon="6.52035">
        <ele>382.9</ele>
        <time>2023-03-04T14:39:33Z</time>
      </trkpt>
      <trkpt lat="48.1911" lon="6.52024">
        <ele>383.9</ele>
        <time>2023-03-04T14:39:40Z</time>
      </trkpt>
      <trkpt lat="48.19106" lon="6.52012">
        <ele>384.9</ele>
        <time>2023-03-04T14:39:47Z</time>
      </trkpt>
      <trkpt lat="48.191" lon="6.52002">
        <ele>385.9</ele>
        <time>2023-03-04T14:39:57Z</time>
      </trkpt>
      <trkpt lat="48.19097" lon="6.51988">
        <ele>386.9</ele>
        <time>2023-03-04T14:40:07Z</time>
      </trkpt>
      <trkpt lat="48.1909" lon="6.51976">
        <ele>388.1</ele>
        <time>2023-03-04T14:40:17Z</time>
      </trkpt>
      <trkpt lat="48.19088" lon="6.51963">
        <ele>389</ele>
        <time>2023-03-04T14:40:26Z</time>
      </trkpt>
      <trkpt lat="48.19093" lon="6.51949">
        <ele>389.9</ele>
        <time>2023-03-04T14:40:35Z</time>
      </trkpt>
      <trkpt lat="48.19098" lon="6.51937">
        <ele>390.4</ele>
        <time>2023-03-04T14:40:42Z</time>
      </trkpt>
      <trkpt lat="48.19103" lon="6.51924">
        <ele>390.7</ele>
        <time>2023-03-04T14:40:49Z</time>
      </trkpt>
      <trkpt lat="48.1911" lon="6.51914">
        <ele>391.1</ele>
        <time>2023-03-04T14:40:55Z</time>
      </trkpt>
      <trkpt lat="48.19117" lon="6.51904">
        <ele>391.1</ele>
        <time>2023-03-04T14:41:04Z</time>
      </trkpt>
      <trkpt lat="48.19124" lon="6.51894">
        <ele>390.4</ele>
        <time>2023-03-04T14:41:12Z</time>
      </trkpt>
      <trkpt lat="48.19131" lon="6.51884">
        <ele>389.6</ele>
        <time>2023-03-04T14:41:24Z</time>
      </trkpt>
      <trkpt lat="48.19138" lon="6.51875">
        <ele>388.6</ele>
        <time>2023-03-04T14:41:34Z</time>
      </trkpt>
      <trkpt lat="48.19143" lon="6.5187">
        <ele>387.9</ele>
        <time>2023-03-04T14:41:42Z</time>
      </trkpt>
      <trkpt lat="48.19144" lon="6.5187">
        <ele>387.8</ele>
        <time>2023-03-04T14:41:43Z</time>
      </trkpt>
      <trkpt lat="48.19153" lon="6.51865">
        <ele>386.7</ele>
        <time>2023-03-04T14:41:51Z</time>
      </trkpt>
      <trkpt lat="48.19162" lon="6.5187">
        <ele>385.6</ele>
        <time>2023-03-04T14:42:05Z</time>
      </trkpt>
      <trkpt lat="48.19171" lon="6.51868">
        <ele>384.6</ele>
        <time>2023-03-04T14:42:11Z</time>
      </trkpt>
      <trkpt lat="48.19179" lon="6.51859">
        <ele>383.7</ele>
        <time>2023-03-04T14:42:21Z</time>
      </trkpt>
      <trkpt lat="48.19187" lon="6.51853">
        <ele>383</ele>
        <time>2023-03-04T14:42:30Z</time>
      </trkpt>
      <trkpt lat="48.19197" lon="6.51848">
        <ele>382.5</ele>
        <time>2023-03-04T14:42:40Z</time>
      </trkpt>
      <trkpt lat="48.19206" lon="6.51844">
        <ele>382.1</ele>
        <time>2023-03-04T14:42:50Z</time>
      </trkpt>
      <trkpt lat="48.19215" lon="6.5184">
        <ele>381.8</ele>
        <time>2023-03-04T14:42:59Z</time>
      </trkpt>
      <trkpt lat="48.19222" lon="6.51831">
        <ele>381.6</ele>
        <time>2023-03-04T14:43:07Z</time>
      </trkpt>
      <trkpt lat="48.1923" lon="6.51824">
        <ele>381.4</ele>
        <time>2023-03-04T14:43:16Z</time>
      </trkpt>
      <trkpt lat="48.19239" lon="6.5182">
        <ele>381.2</ele>
        <time>2023-03-04T14:43:25Z</time>
      </trkpt>
      <trkpt lat="48.19251" lon="6.51813">
        <ele>380.9</ele>
        <time>2023-03-04T14:43:34Z</time>
      </trkpt>
      <trkpt lat="48.1926" lon="6.51808">
        <ele>380.6</ele>
        <time>2023-03-04T14:43:42Z</time>
      </trkpt>
      <trkpt lat="48.19268" lon="6.51802">
        <ele>380.3</ele>
        <time>2023-03-04T14:43:50Z</time>
      </trkpt>
      <trkpt lat="48.19275" lon="6.51792">
        <ele>380.1</ele>
        <time>2023-03-04T14:43:57Z</time>
      </trkpt>
      <trkpt lat="48.19281" lon="6.51782">
        <ele>379.9</ele>
        <time>2023-03-04T14:44:03Z</time>
      </trkpt>
      <trkpt lat="48.19289" lon="6.51775">
        <ele>379.7</ele>
        <time>2023-03-04T14:44:10Z</time>
      </trkpt>
      <trkpt lat="48.19296" lon="6.51764">
        <ele>379.4</ele>
        <time>2023-03-04T14:44:15Z</time>
      </trkpt>
      <trkpt lat="48.19301" lon="6.51751">
        <ele>379</ele>
        <time>2023-03-04T14:44:21Z</time>
      </trkpt>
      <trkpt lat="48.19305" lon="6.51738">
        <ele>378.5</ele>
        <time>2023-03-04T14:44:28Z</time>
      </trkpt>
      <trkpt lat="48.19306" lon="6.51723">
        <ele>377.8</ele>
        <time>2023-03-04T14:44:36Z</time>
      </trkpt>
      <trkpt lat="48.19308" lon="6.5171">
        <ele>377.1</ele>
        <time>2023-03-04T14:44:45Z</time>
      </trkpt>
      <trkpt lat="48.19306" lon="6.51696">
        <ele>376.4</ele>
        <time>2023-03-04T14:44:54Z</time>
      </trkpt>
      <trkpt lat="48.19311" lon="6.51684">
        <ele>375.8</ele>
        <time>2023-03-04T14:45:06Z</time>
      </trkpt>
      <trkpt lat="48.19318" lon="6.51673">
        <ele>375.4</ele>
        <time>2023-03-04T14:45:16Z</time>
      </trkpt>
      <trkpt lat="48.19323" lon="6.5166">
        <ele>375</ele>
        <time>2023-03-04T14:45:26Z</time>
      </trkpt>
      <trkpt lat="48.19322" lon="6.51646">
        <ele>374.7</ele>
        <time>2023-03-04T14:45:36Z</time>
      </trkpt>
      <trkpt lat="48.19326" lon="6.51633">
        <ele>374.3</ele>
        <time>2023-03-04T14:45:47Z</time>
      </trkpt>
      <trkpt lat="48.1933" lon="6.51621">
        <ele>373.9</ele>
        <time>2023-03-04T14:45:54Z</time>
      </trkpt>
      <trkpt lat="48.19331" lon="6.51605">
        <ele>373.3</ele>
        <time>2023-03-04T14:46:02Z</time>
      </trkpt>
      <trkpt lat="48.1933" lon="6.51591">
        <ele>372.7</ele>
        <time>2023-03-04T14:46:12Z</time>
      </trkpt>
      <trkpt lat="48.19333" lon="6.51577">
        <ele>372.3</ele>
        <time>2023-03-04T14:46:23Z</time>
      </trkpt>
      <trkpt lat="48.19327" lon="6.51566">
        <ele>371.9</ele>
        <time>2023-03-04T14:46:32Z</time>
      </trkpt>
      <trkpt lat="48.19328" lon="6.51559">
        <ele>371.7</ele>
        <time>2023-03-04T14:46:41Z</time>
      </trkpt>
      <trkpt lat="48.19327" lon="6.51557">
        <ele>371.7</ele>
        <time>2023-03-04T14:46:42Z</time>
      </trkpt>
      <trkpt lat="48.19331" lon="6.51563">
        <ele>371.5</ele>
        <time>2023-03-04T14:46:54Z</time>
      </trkpt>
      <trkpt lat="48.1933" lon="6.51562">
        <ele>371.5</ele>
        <time>2023-03-04T14:46:55Z</time>
      </trkpt>
      <trkpt lat="48.1933" lon="6.51562">
        <ele>371.5</ele>
        <time>2023-03-04T14:46:56Z</time>
      </trkpt>
      <trkpt lat="48.19331" lon="6.51562">
        <ele>371.5</ele>
        <time>2023-03-04T14:46:57Z</time>
      </trkpt>
      <trkpt lat="48.19331" lon="6.51562">
        <ele>371.5</ele>
        <time>2023-03-04T14:46:59Z</time>
      </trkpt>
      <trkpt lat="48.19332" lon="6.51563">
        <ele>371.4</ele>
        <time>2023-03-04T14:47:01Z</time>
      </trkpt>
      <trkpt lat="48.19332" lon="6.51563">
        <ele>371.4</ele>
        <time>2023-03-04T14:47:12Z</time>
      </trkpt>
      <trkpt lat="48.19332" lon="6.51563">
        <ele>371.4</ele>
        <time>2023-03-04T14:47:13Z</time>
      </trkpt>
      <trkpt lat="48.19333" lon="6.5156">
        <ele>371.4</ele>
        <time>2023-03-04T14:47:25Z</time>
      </trkpt>
      <trkpt lat="48.19333" lon="6.51559">
        <ele>371.4</ele>
        <time>2023-03-04T14:47:26Z</time>
      </trkpt>
      <trkpt lat="48.19327" lon="6.51554">
        <ele>371.2</ele>
        <time>2023-03-04T14:48:05Z</time>
      </trkpt>
      <trkpt lat="48.19327" lon="6.51553">
        <ele>371.2</ele>
        <time>2023-03-04T14:48:06Z</time>
      </trkpt>
      <trkpt lat="48.19328" lon="6.51555">
        <ele>371.2</ele>
        <time>2023-03-04T14:48:12Z</time>
      </trkpt>
      <trkpt lat="48.19328" lon="6.51555">
        <ele>371.2</ele>
        <time>2023-03-04T14:48:13Z</time>
      </trkpt>
      <trkpt lat="48.19325" lon="6.51553">
        <ele>371.1</ele>
        <time>2023-03-04T14:48:23Z</time>
      </trkpt>
      <trkpt lat="48.19325" lon="6.51553">
        <ele>371.1</ele>
        <time>2023-03-04T14:48:24Z</time>
      </trkpt>
      <trkpt lat="48.19325" lon="6.51552">
        <ele>371.1</ele>
        <time>2023-03-04T14:48:30Z</time>
      </trkpt>
      <trkpt lat="48.19325" lon="6.51552">
        <ele>371.1</ele>
        <time>2023-03-04T14:48:31Z</time>
      </trkpt>
      <trkpt lat="48.19326" lon="6.51552">
        <ele>371</ele>
        <time>2023-03-04T14:48:35Z</time>
      </trkpt>
      <trkpt lat="48.19326" lon="6.51552">
        <ele>371</ele>
        <time>2023-03-04T14:48:36Z</time>
      </trkpt>
      <trkpt lat="48.19326" lon="6.51554">
        <ele>371</ele>
        <time>2023-03-04T14:48:44Z</time>
      </trkpt>
      <trkpt lat="48.19326" lon="6.51554">
        <ele>371</ele>
        <time>2023-03-04T14:48:45Z</time>
      </trkpt>
      <trkpt lat="48.19328" lon="6.51553">
        <ele>371</ele>
        <time>2023-03-04T14:48:55Z</time>
      </trkpt>
      <trkpt lat="48.19328" lon="6.51553">
        <ele>371</ele>
        <time>2023-03-04T14:48:56Z</time>
      </trkpt>
      <trkpt lat="48.19328" lon="6.51549">
        <ele>370.9</ele>
        <time>2023-03-04T14:49:44Z</time>
      </trkpt>
      <trkpt lat="48.19328" lon="6.51549">
        <ele>370.9</ele>
        <time>2023-03-04T14:49:45Z</time>
      </trkpt>
      <trkpt lat="48.19328" lon="6.51551">
        <ele>370.8</ele>
        <time>2023-03-04T14:49:57Z</time>
      </trkpt>
      <trkpt lat="48.19328" lon="6.51551">
        <ele>370.8</ele>
        <time>2023-03-04T14:49:58Z</time>
      </trkpt>
      <trkpt lat="48.19326" lon="6.51548">
        <ele>370.8</ele>
        <time>2023-03-04T14:50:10Z</time>
      </trkpt>
      <trkpt lat="48.19326" lon="6.51549">
        <ele>370.9</ele>
        <time>2023-03-04T14:50:11Z</time>
      </trkpt>
      <trkpt lat="48.19325" lon="6.5155">
        <ele>370.9</ele>
        <time>2023-03-04T14:50:20Z</time>
      </trkpt>
      <trkpt lat="48.19325" lon="6.51551">
        <ele>370.9</ele>
        <time>2023-03-04T14:50:22Z</time>
      </trkpt>
      <trkpt lat="48.19323" lon="6.51548">
        <ele>370.9</ele>
        <time>2023-03-04T14:50:34Z</time>
      </trkpt>
      <trkpt lat="48.19323" lon="6.51548">
        <ele>370.9</ele>
        <time>2023-03-04T14:50:35Z</time>
      </trkpt>
      <trkpt lat="48.19328" lon="6.51535">
        <ele>370.9</ele>
        <time>2023-03-04T14:51:05Z</time>
      </trkpt>
      <trkpt lat="48.19319" lon="6.51529">
        <ele>371</ele>
        <time>2023-03-04T14:51:13Z</time>
      </trkpt>
      <trkpt lat="48.1931" lon="6.51533">
        <ele>371.1</ele>
        <time>2023-03-04T14:51:19Z</time>
      </trkpt>
      <trkpt lat="48.19312" lon="6.51526">
        <ele>371.1</ele>
        <time>2023-03-04T14:51:36Z</time>
      </trkpt>
      <trkpt lat="48.19312" lon="6.51527">
        <ele>371.1</ele>
        <time>2023-03-04T14:51:37Z</time>
      </trkpt>
      <trkpt lat="48.19312" lon="6.51527">
        <ele>371.1</ele>
        <time>2023-03-04T14:51:38Z</time>
      </trkpt>
      <trkpt lat="48.19312" lon="6.51527">
        <ele>371.1</ele>
        <time>2023-03-04T14:51:39Z</time>
      </trkpt>
      <trkpt lat="48.19312" lon="6.51527">
        <ele>371.1</ele>
        <time>2023-03-04T14:51:41Z</time>
      </trkpt>
      <trkpt lat="48.19312" lon="6.51527">
        <ele>371.1</ele>
        <time>2023-03-04T14:51:57Z</time>
      </trkpt>
      <trkpt lat="48.19312" lon="6.51527">
        <ele>371.1</ele>
        <time>2023-03-04T14:51:58Z</time>
      </trkpt>
      <trkpt lat="48.19312" lon="6.51527">
        <ele>371.1</ele>
        <time>2023-03-04T14:52:08Z</time>
      </trkpt>
      <trkpt lat="48.19312" lon="6.51527">
        <ele>371.1</ele>
        <time>2023-03-04T14:52:08Z</time>
      </trkpt>
    </trkseg>
  </trk>
</gpx>